Provisional Data: Apalachin Creek near Apalachin, NY


Please select a monitoring station.
Please select start date.
Please select start date.

Toggle Unit: C/F Toggle Unit: C/F
Sample Time Temperature (C) Temperature (F) Specific Conductivity (mS/cm) pH   Turbidity (NTU+) DO (mg/L)
10/17/2022 12:00:00 AM 12.14 53.852 0.202 7.13 0.81 9.2
10/17/2022 12:15:00 AM 12.1 53.78 0.203 7.13 0.8 9.19
10/17/2022 12:30:00 AM 12.05 53.69 0.203 7.13 0.82 9.21
10/17/2022 12:45:00 AM 12.01 53.618 0.203 7.13 0.71 9.22
10/17/2022 1:00:00 AM 11.97 53.546 0.203 7.13 0.85 9.22
10/17/2022 1:15:00 AM 11.93 53.474 0.203 7.13 0.71 9.24
10/17/2022 1:30:00 AM 11.9 53.42 0.203 7.13 0.81 9.24
10/17/2022 1:45:00 AM 11.86 53.348 0.203 7.13 0.7 9.26
10/17/2022 2:00:00 AM 11.82 53.276 0.203 7.13 0.81 9.26
10/17/2022 2:15:00 AM 11.78 53.204 0.203 7.13 0.8 9.26
10/17/2022 2:30:00 AM 11.75 53.15 0.203 7.13 0.81 9.26
10/17/2022 2:45:00 AM 11.71 53.078 0.203 7.13 0.98 9.26
10/17/2022 3:00:00 AM 11.67 53.006 0.203 7.13 0.82 9.28
10/17/2022 3:15:00 AM 11.64 52.952 0.204 7.13 0.73 9.29
10/17/2022 3:30:00 AM 11.62 52.916 0.204 7.13 0.78 9.28
10/17/2022 3:45:00 AM 11.6 52.88 0.204 7.13 0.71 9.29
10/17/2022 4:00:00 AM 11.58 52.844 0.204 7.13 0.74 9.29
10/17/2022 4:15:00 AM 11.57 52.826 0.204 7.13 0.76 9.3
10/17/2022 4:30:00 AM 11.57 52.826 0.204 7.13 0.79 9.28
10/17/2022 4:45:00 AM 11.56 52.808 0.204 7.13 0.77 9.29
10/17/2022 5:00:00 AM 11.55 52.79 0.204 7.13 0.71 9.3
10/17/2022 5:15:00 AM 11.53 52.754 0.204 7.13 0.82 9.29
10/17/2022 5:30:00 AM 11.52 52.736 0.204 7.11 1.5 9.29
10/17/2022 5:45:00 AM 11.51 52.718 0.204 7.13 0.7 9.27
10/17/2022 6:00:00 AM 11.5 52.7 0.204 7.13 0.71 9.29
10/17/2022 6:15:00 AM 11.49 52.682 0.204 7.13 0.79 9.28
10/17/2022 6:30:00 AM 11.48 52.664 0.204 7.12 0.81 9.27
10/17/2022 6:45:00 AM 11.48 52.664 0.204 7.13 0.86 9.28
10/17/2022 7:00:00 AM 11.48 52.664 0.205 7.11 1.57 9.28
10/17/2022 7:15:00 AM 11.49 52.682 0.205 7.12 0.85 9.25
10/17/2022 7:30:00 AM 11.5 52.7 0.205 7.12 0.73 9.27
10/17/2022 7:45:00 AM 11.53 52.754 0.205 7.12 0.81 9.28
10/17/2022 8:00:00 AM 11.53 52.754 0.205 7.13 0.74 9.31
10/17/2022 8:15:00 AM 11.55 52.79 0.205 7.13 0.69 9.34
10/17/2022 8:30:00 AM 11.58 52.844 0.205 7.13 0.71 9.41
10/17/2022 8:45:00 AM 11.62 52.916 0.205 7.14 0.69 9.47
10/17/2022 9:00:00 AM 11.68 53.024 0.205 7.15 0.66 9.64
10/17/2022 9:15:00 AM 11.71 53.078 0.205 7.16 0.74 9.73
10/17/2022 9:30:00 AM 11.75 53.15 0.205 7.17 0.69 9.79
10/17/2022 9:45:00 AM 11.8 53.24 0.205 7.17 0.67 9.72
10/17/2022 10:00:00 AM 11.84 53.312 0.205 7.17 0.68 9.71
10/17/2022 10:15:00 AM 11.89 53.402 0.205 7.18 0.74 9.81
10/17/2022 10:30:00 AM 11.92 53.456 0.205 7.18 0.7 9.73
10/17/2022 10:45:00 AM 11.98 53.564 0.205 7.19 0.7 9.88
10/17/2022 11:00:00 AM 12.02 53.636 0.205 7.19 0.69 9.87
10/17/2022 11:15:00 AM 12.07 53.726 0.205 7.2 0.62 9.98
10/17/2022 11:30:00 AM 12.12 53.816 0.205 7.2 0.7 10.02
10/17/2022 11:45:00 AM 12.19 53.942 0.205 7.21 0.6 10.08
10/17/2022 12:00:00 PM 12.28 54.104 0.205 7.23 0.6 10.25
10/17/2022 12:15:00 PM 12.36 54.248 0.205 7.23 0.64 10.27
10/17/2022 12:30:00 PM 12.42 54.356 0.205 7.24 0.68 10.29
10/17/2022 12:45:00 PM 12.53 54.554 0.205 7.25 0.71 10.36
10/17/2022 1:00:00 PM 12.65 54.77 0.205 7.25 1.33 10.48
10/17/2022 1:15:00 PM 12.8 55.04 0.205 7.28 0.72 10.53
10/17/2022 1:30:00 PM 12.88 55.184 0.206 7.28 0.76 10.55
10/17/2022 1:45:00 PM 12.9 55.22 0.206 7.28 0.82 10.39
10/17/2022 2:00:00 PM 12.92 55.256 0.206 7.23 1.44 10.18
10/17/2022 2:15:00 PM 12.93 55.274 0.206 7.25 0.63 10.04
10/17/2022 2:30:00 PM 12.96 55.328 0.206 7.22 1.44 9.93
10/17/2022 2:45:00 PM 12.99 55.382 0.206 7.22 1.44 10.03
10/17/2022 3:00:00 PM 13.02 55.436 0.206 7.26 0.65 10.1
10/17/2022 3:15:00 PM 13.03 55.454 0.206 7.27 0.66 10.2
10/17/2022 3:30:00 PM 13.04 55.472 0.206 7.25 0.94 10.25
10/17/2022 3:45:00 PM 13.05 55.49 0.206 7.26 1.29 10.34
10/17/2022 4:00:00 PM 13.07 55.526 0.206 7.29 0.66 10.41
10/17/2022 4:15:00 PM 13.08 55.544 0.206 7.28 0.78 10.31
10/17/2022 4:30:00 PM 13.07 55.526 0.206 7.28 0.63 10.34
10/17/2022 4:45:00 PM 13.04 55.472 0.206 7.25 1.39 10.29
10/17/2022 5:00:00 PM 13 55.4 0.206 7.28 0.66 10.2
10/17/2022 5:15:00 PM 12.98 55.364 0.206 7.27 0.63 10.15
10/17/2022 5:30:00 PM 12.95 55.31 0.206 7.26 0.64 10.07
10/17/2022 5:45:00 PM 12.91 55.238 0.206 7.25 0.68 9.98
10/17/2022 6:00:00 PM 12.86 55.148 0.207 7.21 1.4 9.84
10/17/2022 6:15:00 PM 12.8 55.04 0.207 7.2 1.4 9.71
10/17/2022 6:30:00 PM 12.73 54.914 0.207 7.2 0.62 9.58
10/17/2022 6:45:00 PM 12.66 54.788 0.207 7.17 1.46 9.45
10/17/2022 7:00:00 PM 12.62 54.716 0.207 7.17 0.64 9.36
10/17/2022 7:15:00 PM 12.56 54.608 0.207 7.17 0.63 9.3
10/17/2022 7:30:00 PM 12.51 54.518 0.207 7.15 0.64 9.23
10/17/2022 7:45:00 PM 12.45 54.41 0.207 7.15 0.83 9.18
10/17/2022 8:00:00 PM 12.4 54.32 0.208 7.14 0.7 9.14
10/17/2022 8:15:00 PM 12.36 54.248 0.208 7.14 0.67 9.11
10/17/2022 8:30:00 PM 12.3 54.14 0.208 7.13 0.68 9.09
10/17/2022 8:45:00 PM 12.25 54.05 0.208 7.13 0.84 9.08
10/17/2022 9:00:00 PM 12.22 53.996 0.208 7.13 0.72 9.07
10/17/2022 9:15:00 PM 12.18 53.924 0.208 7.12 0.68 9.06
10/17/2022 9:30:00 PM 12.16 53.888 0.208 7.12 0.74 9.04
10/17/2022 9:45:00 PM 12.13 53.834 0.208 7.12 0.77 9.04
10/17/2022 10:00:00 PM 12.1 53.78 0.208 7.12 0.73 9.06
10/17/2022 10:15:00 PM 12.06 53.708 0.208 7.12 0.74 9.05
10/17/2022 10:30:00 PM 12.04 53.672 0.208 7.11 0.65 9.06
10/17/2022 10:45:00 PM 12.01 53.618 0.208 7.11 0.78 9.04
10/17/2022 11:00:00 PM 11.98 53.564 0.208 7.11 0.76 9.04
10/17/2022 11:15:00 PM 11.95 53.51 0.208 7.11 0.91 9.03
10/17/2022 11:30:00 PM 11.93 53.474 0.208 7.11 0.74 9.05
10/17/2022 11:45:00 PM 11.89 53.402 0.208 7.11 0.74 9.07
10/18/2022 12:00:00 AM 11.86 53.348 0.209 7.11 0.71 9.06
10/18/2022 12:15:00 AM 11.82 53.276 0.209 7.11 0.65 9.06
10/18/2022 12:30:00 AM 11.79 53.222 0.209 7.11 0.72 9.09
10/18/2022 12:45:00 AM 11.75 53.15 0.209 7.11 0.75 9.1
10/18/2022 1:00:00 AM 11.71 53.078 0.209 7.11 0.78 9.09
10/18/2022 1:15:00 AM 11.67 53.006 0.209 7.11 0.72 9.08
10/18/2022 1:30:00 AM 11.62 52.916 0.209 7.11 0.75 9.13
10/18/2022 1:45:00 AM 11.57 52.826 0.209 7.11 0.72 9.15
10/18/2022 2:00:00 AM 11.51 52.718 0.209 7.06 0.76 9.14
10/18/2022 2:15:00 AM 11.46 52.628 0.209 7.12 0.75 9.15
10/18/2022 2:30:00 AM 11.4 52.52 0.209 7.11 0.72 9.15
10/18/2022 2:45:00 AM 11.34 52.412 0.209 7.1 1.42 9.19
10/18/2022 3:00:00 AM 11.29 52.322 0.209 7.12 0.64 9.19
10/18/2022 3:15:00 AM 11.23 52.214 0.209 7.12 0.73 9.19
10/18/2022 3:30:00 AM 11.18 52.124 0.209 7.12 0.69 9.21
10/18/2022 3:45:00 AM 11.13 52.034 0.209 7.12 0.68 9.22
10/18/2022 4:00:00 AM 11.07 51.926 0.209 7.12 0.67 9.24
10/18/2022 4:15:00 AM 11.03 51.854 0.209 7.12 0.77 9.24
10/18/2022 4:30:00 AM 10.97 51.746 0.209 7.12 0.68 9.27
10/18/2022 4:45:00 AM 10.93 51.674 0.209 7.11 0.76 9.25
10/18/2022 5:00:00 AM 10.89 51.602 0.209 7.12 0.72 9.28
10/18/2022 5:15:00 AM 10.85 51.53 0.209 7.12 0.73 9.28
10/18/2022 5:30:00 AM 10.81 51.458 0.209 7.11 0.67 9.31
10/18/2022 5:45:00 AM 10.78 51.404 0.209 7.11 0.66 9.31
10/18/2022 6:00:00 AM 10.73 51.314 0.209 7.11 0.76 9.32
10/18/2022 6:15:00 AM 10.7 51.26 0.209 7.11 0.93 9.29
10/18/2022 6:30:00 AM 10.65 51.17 0.209 7.11 0.83 9.31
10/18/2022 6:45:00 AM 10.63 51.134 0.209 7.11 0.84 9.32
10/18/2022 7:00:00 AM 10.59 51.062 0.21 7.11 0.72 9.33
10/18/2022 7:15:00 AM 10.56 51.008 0.21 7.11 0.73 9.33
10/18/2022 7:30:00 AM 10.54 50.972 0.21 7.11 5.31 9.35
10/18/2022 7:45:00 AM 10.52 50.936 0.21 7.11 1.04 9.38
10/18/2022 8:00:00 AM 10.49 50.882 0.21 7.11 0.79 9.41
10/18/2022 8:15:00 AM 10.49 50.882 0.21 7.11 0.74 9.45
10/18/2022 8:30:00 AM 10.48 50.864 0.21 7.12 0.64 9.49
10/18/2022 8:45:00 AM 10.5 50.9 0.21 7.12 0.63 9.59
10/18/2022 9:00:00 AM 10.53 50.954 0.21 7.13 0.61 9.66
10/18/2022 9:15:00 AM 10.57 51.026 0.21 7.13 0.65 9.65
10/18/2022 9:30:00 AM 10.62 51.116 0.21 7.15 0.55 9.91
10/18/2022 9:45:00 AM 10.71 51.278 0.21 7.16 0.6 9.94
10/18/2022 10:00:00 AM 10.8 51.44 0.21 7.17 0.61 10.05
10/18/2022 10:15:00 AM 10.86 51.548 0.21 7.18 1 10.25
10/18/2022 10:30:00 AM 10.98 51.764 0.21 7.21 0.59 10.43
10/18/2022 10:45:00 AM 11.08 51.944 0.21 7.22 0.53 10.52
10/18/2022 11:00:00 AM 11.21 52.178 0.21 7.23 0.58 10.59
10/18/2022 11:15:00 AM 11.3 52.34 0.21 7.24 0.55 10.64
10/18/2022 11:30:00 AM 11.4 52.52 0.21 7.25 0.54 10.7
10/18/2022 11:45:00 AM 11.51 52.718 0.21 7.24 0.59 10.75
10/18/2022 12:00:00 PM 11.63 52.934 0.21 7.27 0.58 10.82
10/18/2022 12:15:00 PM 11.7 53.06 0.21 7.27 0.84 10.86
10/18/2022 12:30:00 PM 11.81 53.258 0.21 7.28 0.62 10.92
10/18/2022 12:45:00 PM 11.89 53.402 0.21 7.28 0.58 10.87
10/18/2022 1:00:00 PM 11.96 53.528 0.21 7.28 0.64 10.77
10/18/2022 1:15:00 PM 11.97 53.546 0.211 7.27 0.61 10.7
10/18/2022 1:30:00 PM 11.99 53.582 0.211 7.28 0.53 10.71
10/18/2022 1:45:00 PM 12.05 53.69 0.211 7.27 0.56 10.71
10/18/2022 2:00:00 PM 12.09 53.762 0.211 7.28 0.55 10.75
10/18/2022 2:15:00 PM 12.12 53.816 0.211 7.28 0.53 10.77
10/18/2022 2:30:00 PM 12.18 53.924 0.211 7.28 0.55 10.78
10/18/2022 2:45:00 PM 12.19 53.942 0.211 7.29 0.57 10.78
10/18/2022 3:00:00 PM 12.2 53.96 0.211 7.28 0.55 10.73
10/18/2022 3:15:00 PM 12.19 53.942 0.211 7.28 0.53 10.63
10/18/2022 3:30:00 PM 12.17 53.906 0.211 7.26 0.59 10.52
10/18/2022 3:45:00 PM 12.16 53.888 0.211 7.26 0.6 10.48
10/18/2022 4:00:00 PM 12.14 53.852 0.211 7.26 0.6 10.48
10/18/2022 4:15:00 PM 12.13 53.834 0.211 7.25 0.62 10.43
10/18/2022 4:30:00 PM 12.13 53.834 0.211 7.25 0.53 10.39
10/18/2022 4:45:00 PM 12.12 53.816 0.211 7.25 0.58 10.44
10/18/2022 5:00:00 PM 12.11 53.798 0.211 7.25 0.77 10.42
10/18/2022 5:15:00 PM 12.08 53.744 0.211 7.24 0.77 10.38
10/18/2022 5:30:00 PM 12.03 53.654 0.211 7.24 0.67 10.29
10/18/2022 5:45:00 PM 11.98 53.564 0.212 7.23 2.22 10.16
10/18/2022 6:00:00 PM 11.93 53.474 0.212 7.21 0.56 10.04
10/18/2022 6:15:00 PM 11.88 53.384 0.212 7.2 0.62 9.94
10/18/2022 6:30:00 PM 11.82 53.276 0.212 7.19 0.61 9.83
10/18/2022 6:45:00 PM 11.75 53.15 0.212 7.17 0.53 9.69
10/18/2022 7:00:00 PM 11.69 53.042 0.212 7.16 0.59 9.59
10/18/2022 7:15:00 PM 11.61 52.898 0.212 7.15 0.58 9.5
10/18/2022 7:30:00 PM 11.54 52.772 0.212 7.14 0.55 9.46
10/18/2022 7:45:00 PM 11.47 52.646 0.212 7.14 0.55 9.4
10/18/2022 8:00:00 PM 11.4 52.52 0.212 7.13 0.8 9.36
10/18/2022 8:15:00 PM 11.34 52.412 0.213 7.13 0.61 9.33
10/18/2022 8:30:00 PM 11.28 52.304 0.213 7.12 0.58 9.31
10/18/2022 8:45:00 PM 11.23 52.214 0.213 7.12 0.62 9.27
10/18/2022 9:00:00 PM 11.15 52.07 0.213 7.12 0.7 9.27
10/18/2022 9:15:00 PM 11.1 51.98 0.213 7.11 0.63 9.25
10/18/2022 9:30:00 PM 11.05 51.89 0.213 7.1 0.66 9.26
10/18/2022 9:45:00 PM 10.99 51.782 0.213 7.11 0.57 9.26
10/18/2022 10:00:00 PM 10.95 51.71 0.213 7.1 0.65 9.26
10/18/2022 10:15:00 PM 10.9 51.62 0.213 7.1 0.67 9.25
10/18/2022 10:30:00 PM 10.86 51.548 0.213 7.1 0.59 9.26
10/18/2022 10:45:00 PM 10.81 51.458 0.213 7.09 0.71 9.28
10/18/2022 11:00:00 PM 10.77 51.386 0.213 7.09 0.69 9.28
10/18/2022 11:15:00 PM 10.72 51.296 0.213 7.09 0.66 9.27
10/18/2022 11:30:00 PM 10.69 51.242 0.213 7.09 0.66 9.28
10/18/2022 11:45:00 PM 10.66 51.188 0.213 7.08 0.67 9.28
10/19/2022 12:00:00 AM 10.61 51.098 0.213 7.08 0.65 9.28
10/19/2022 12:15:00 AM 10.57 51.026 0.213 7.08 0.63 9.28
10/19/2022 12:30:00 AM 10.54 50.972 0.214 7.08 0.64 9.31
10/19/2022 12:45:00 AM 10.49 50.882 0.213 7.08 0.64 9.3
10/19/2022 1:00:00 AM 10.46 50.828 0.213 7.08 0.72 9.3
10/19/2022 1:15:00 AM 10.44 50.792 0.213 7.08 0.68 9.3
10/19/2022 1:30:00 AM 10.41 50.738 0.214 7.08 0.71 9.34
10/19/2022 1:45:00 AM 10.38 50.684 0.214 7.08 0.71 9.33
10/19/2022 2:00:00 AM 10.35 50.63 0.214 7.08 0.61 9.34
10/19/2022 2:15:00 AM 10.31 50.558 0.214 7.08 0.65 9.33
10/19/2022 2:30:00 AM 10.29 50.522 0.214 7.08 0.71 9.35
10/19/2022 2:45:00 AM 10.26 50.468 0.214 7.08 0.71 9.36
10/19/2022 3:00:00 AM 10.23 50.414 0.214 7.08 0.63 9.36
10/19/2022 3:15:00 AM 10.2 50.36 0.214 7.08 0.64 9.36
10/19/2022 3:30:00 AM 10.17 50.306 0.214 7.08 0.6 9.37
10/19/2022 3:45:00 AM 10.15 50.27 0.214 7.08 0.65 9.36
10/19/2022 4:00:00 AM 10.11 50.198 0.214 7.08 0.93 9.39
10/19/2022 4:15:00 AM 10.1 50.18 0.214 7.06 0.64 9.41
10/19/2022 4:30:00 AM 10.1 50.18 0.214 7.09 0.65 9.38
10/19/2022 4:45:00 AM 10.1 50.18 0.214 7.09 0.64 9.4
10/19/2022 5:00:00 AM 10.11 50.198 0.214 7.09 0.65 9.4
10/19/2022 5:15:00 AM 10.13 50.234 0.214 7.09 0.64 9.39
10/19/2022 5:30:00 AM 10.13 50.234 0.214 7.09 0.64 9.38
10/19/2022 5:45:00 AM 10.17 50.306 0.214 7.09 0.57 9.37
10/19/2022 6:00:00 AM 10.18 50.324 0.214 7.09 0.71 9.37
10/19/2022 6:15:00 AM 10.21 50.378 0.214 7.09 0.73 9.33
10/19/2022 6:30:00 AM 10.22 50.396 0.214 7.09 0.68 9.34
10/19/2022 6:45:00 AM 10.25 50.45 0.215 7.09 0.6 9.33
10/19/2022 7:00:00 AM 10.29 50.522 0.215 7.09 0.84 9.3
10/19/2022 7:15:00 AM 10.29 50.522 0.215 7.09 0.69 9.29
10/19/2022 7:30:00 AM 10.33 50.594 0.215 7.09 0.71 9.17
10/19/2022 7:45:00 AM 10.34 50.612 0.215 7.09 0.72 9.32
10/19/2022 8:00:00 AM 10.37 50.666 0.215 7.1 0.68 9.34
10/19/2022 8:15:00 AM 10.39 50.702 0.215 7.1 0.58 9.44
10/19/2022 8:30:00 AM 10.43 50.774 0.215 7.11 0.64 9.52
10/19/2022 8:45:00 AM 10.49 50.882 0.215 7.06 0.61 9.7
10/19/2022 9:00:00 AM 10.53 50.954 0.215 7.14 0.81 9.87
10/19/2022 9:15:00 AM 10.56 51.008 0.215 7.15 0.66 10.01
10/19/2022 9:30:00 AM 10.61 51.098 0.215 7.16 0.56 10.11
10/19/2022 9:45:00 AM 10.67 51.206 0.215 7.17 0.53 10.25
10/19/2022 10:00:00 AM 10.69 51.242 0.215 7.19 0.56 10.36
10/19/2022 10:15:00 AM 10.76 51.368 0.215 7.2 0.51 10.43
10/19/2022 10:30:00 AM 10.83 51.494 0.215 7.15 0.59 10.49
10/19/2022 10:45:00 AM 10.86 51.548 0.215 7.21 0.8 10.53
10/19/2022 11:00:00 AM 10.9 51.62 0.215 7.21 0.55 10.59
10/19/2022 11:15:00 AM 10.96 51.728 0.215 7.22 0.55 10.65
10/19/2022 11:30:00 AM 11.02 51.836 0.215 7.22 0.59 10.65
10/19/2022 11:45:00 AM 11.06 51.908 0.215 7.23 0.59 10.69
10/19/2022 12:00:00 PM 11.08 51.944 0.216 7.23 0.58 10.65
10/19/2022 12:15:00 PM 11.09 51.962 0.216 7.22 0.67 10.6
10/19/2022 12:30:00 PM 11.11 51.998 0.216 7.22 0.56 10.57
10/19/2022 12:45:00 PM 11.11 51.998 0.215 7.22 0.5 10.57
10/19/2022 1:00:00 PM 11.15 52.07 0.215 7.23 0.56 10.62
10/19/2022 1:15:00 PM 11.17 52.106 0.215 7.23 0.57 10.71
10/19/2022 1:30:00 PM 11.23 52.214 0.215 7.24 0.58 10.8
10/19/2022 1:45:00 PM 11.24 52.232 0.215 7.24 0.58 10.78
10/19/2022 2:00:00 PM 11.28 52.304 0.215 7.24 0.55 10.77
10/19/2022 2:15:00 PM 11.31 52.358 0.216 7.25 0.56 10.79
10/19/2022 2:30:00 PM 11.34 52.412 0.216 7.25 0.58 10.86
10/19/2022 2:45:00 PM 11.39 52.502 0.216 7.25 0.62 10.82
10/19/2022 3:00:00 PM 11.4 52.52 0.216 7.25 0.54 10.78
10/19/2022 3:15:00 PM 11.41 52.538 0.215 7.25 0.52 10.79
10/19/2022 3:30:00 PM 11.41 52.538 0.215 7.25 0.54 10.74
10/19/2022 3:45:00 PM 11.42 52.556 0.215 7.24 0.54 10.66
10/19/2022 4:00:00 PM 11.41 52.538 0.216 7.23 0.59 10.58
10/19/2022 4:15:00 PM 11.42 52.556 0.216 7.23 0.55 10.54
10/19/2022 4:30:00 PM 11.45 52.61 0.216 7.23 0.66 10.6
10/19/2022 4:45:00 PM 11.45 52.61 0.216 7.23 0.56 10.66
10/19/2022 5:00:00 PM 11.47 52.646 0.216 7.24 0.48 10.68
10/19/2022 5:15:00 PM 11.47 52.646 0.216 7.23 0.57 10.64
10/19/2022 5:30:00 PM 11.45 52.61 0.216 7.23 0.55 10.6
10/19/2022 5:45:00 PM 11.41 52.538 0.216 7.22 0.67 10.48
10/19/2022 6:00:00 PM 11.36 52.448 0.216 7.21 0.54 10.31
10/19/2022 6:15:00 PM 11.31 52.358 0.216 7.19 0.57 10.15
10/19/2022 6:30:00 PM 11.26 52.268 0.216 7.17 0.6 9.98
10/19/2022 6:45:00 PM 11.21 52.178 0.216 7.17 0.58 9.89
10/19/2022 7:00:00 PM 11.16 52.088 0.216 7.15 0.6 9.69
10/19/2022 7:15:00 PM 11.11 51.998 0.217 7.14 0.64 9.62
10/19/2022 7:30:00 PM 11.06 51.908 0.217 7.13 0.68 9.53
10/19/2022 7:45:00 PM 11 51.8 0.217 7.12 0.58 9.49
10/19/2022 8:00:00 PM 10.96 51.728 0.217 7.12 0.58 9.44
10/19/2022 8:15:00 PM 10.92 51.656 0.217 7.11 0.58 9.39
10/19/2022 8:30:00 PM 10.86 51.548 0.217 7.11 0.61 9.37
10/19/2022 8:45:00 PM 10.83 51.494 0.217 7.1 0.59 9.32
10/19/2022 9:00:00 PM 10.78 51.404 0.217 7.1 0.66 9.3
10/19/2022 9:15:00 PM 10.74 51.332 0.217 7.1 0.6 9.3
10/19/2022 9:30:00 PM 10.69 51.242 0.217 7.09 0.71 9.26
10/19/2022 9:45:00 PM 10.66 51.188 0.217 7.09 0.68 9.27
10/19/2022 10:00:00 PM 10.62 51.116 0.217 7.09 0.64 9.25
10/19/2022 10:15:00 PM 10.6 51.08 0.217 7.08 0.71 9.27
10/19/2022 10:30:00 PM 10.57 51.026 0.217 7.08 0.72 9.27
10/19/2022 10:45:00 PM 10.55 50.99 0.217 7.08 0.74 9.26
10/19/2022 11:00:00 PM 10.53 50.954 0.217 7.08 0.72 9.25
10/19/2022 11:15:00 PM 10.52 50.936 0.217 7.08 0.72 9.26
10/19/2022 11:30:00 PM 10.52 50.936 0.217 7.07 0.83 9.26
10/19/2022 11:45:00 PM 10.49 50.882 0.217 7.07 0.73 9.25
10/20/2022 12:00:00 AM 10.48 50.864 0.217 7.07 0.78 9.26
10/20/2022 12:15:00 AM 10.46 50.828 0.218 7.07 0.67 9.26
10/20/2022 12:30:00 AM 10.46 50.828 0.218 7.07 0.76 9.24
10/20/2022 12:45:00 AM 10.46 50.828 0.218 7.07 0.62 9.25
10/20/2022 1:00:00 AM 10.47 50.846 0.218 7.07 0.75 9.23
10/20/2022 1:15:00 AM 10.48 50.864 0.218 7.07 0.73 9.24
10/20/2022 1:30:00 AM 10.49 50.882 0.218 7.07 1.2 9.23
10/20/2022 1:45:00 AM 10.49 50.882 0.218 7.07 0.71 9.25
10/20/2022 2:00:00 AM 10.48 50.864 0.218 7.07 0.64 9.25
10/20/2022 2:15:00 AM 10.46 50.828 0.218 7.07 0.78 9.24
10/20/2022 2:30:00 AM 10.46 50.828 0.218 7.07 0.72 9.25
10/20/2022 2:45:00 AM 10.44 50.792 0.218 7.08 0.67 9.25
10/20/2022 3:00:00 AM 10.43 50.774 0.218 7.08 0.74 9.27
10/20/2022 3:15:00 AM 10.44 50.792 0.218 7.07 0.65 9.25
10/20/2022 3:30:00 AM 10.42 50.756 0.218 7.08 0.85 9.26
10/20/2022 3:45:00 AM 10.42 50.756 0.218 7.08 0.64 9.25
10/20/2022 4:00:00 AM 10.41 50.738 0.218 7.08 0.63 9.27
10/20/2022 4:15:00 AM 10.41 50.738 0.218 7.08 0.64 9.24
10/20/2022 4:30:00 AM 10.41 50.738 0.218 7.08 0.62 9.25
10/20/2022 4:45:00 AM 10.39 50.702 0.218 7.08 0.75 9.27
10/20/2022 5:00:00 AM 10.38 50.684 0.218 7.08 0.75 9.26
10/20/2022 5:15:00 AM 10.36 50.648 0.218 7.08 0.64 9.26
10/20/2022 5:30:00 AM 10.35 50.63 0.218 7.07 0.61 9.28
10/20/2022 5:45:00 AM 10.32 50.576 0.218 7.08 0.65 9.28
10/20/2022 6:00:00 AM 10.28 50.504 0.218 7.07 0.65 9.3
10/20/2022 6:15:00 AM 10.25 50.45 0.218 7.08 0.76 9.32
10/20/2022 6:30:00 AM 10.22 50.396 0.218 7.07 0.7 9.3
10/20/2022 6:45:00 AM 10.19 50.342 0.218 7.07 0.69 9.28
10/20/2022 7:00:00 AM 10.16 50.288 0.218 7.07 0.65 9.31
10/20/2022 7:15:00 AM 10.14 50.252 0.218 7.07 0.66 9.29
10/20/2022 7:30:00 AM 10.12 50.216 0.218 7.08 0.81 9.35
10/20/2022 7:45:00 AM 10.1 50.18 0.218 7.08 0.63 9.37
10/20/2022 8:00:00 AM 10.11 50.198 0.218 7.08 0.61 9.42
10/20/2022 8:15:00 AM 10.11 50.198 0.218 7.09 0.55 9.48
10/20/2022 8:30:00 AM 10.12 50.216 0.218 7.09 0.62 9.56
10/20/2022 8:45:00 AM 10.15 50.27 0.218 7.1 0.6 9.68
10/20/2022 9:00:00 AM 10.16 50.288 0.218 7.11 0.63 9.79
10/20/2022 9:15:00 AM 10.19 50.342 0.218 7.12 1.28 9.94
10/20/2022 9:30:00 AM 10.24 50.432 0.218 7.14 1.91 10.1
10/20/2022 9:45:00 AM 10.27 50.486 0.218 7.15 0.68 10.22
10/20/2022 10:00:00 AM 10.33 50.594 0.218 7.16 0.64 10.39
10/20/2022 10:15:00 AM 10.37 50.666 0.218 7.17 0.61 10.44
10/20/2022 10:30:00 AM 10.41 50.738 0.218 7.19 0.58 10.61
10/20/2022 10:45:00 AM 10.52 50.936 0.218 7.2 0.62 10.76
10/20/2022 11:00:00 AM 10.58 51.044 0.218 7.21 0.83 10.85
10/20/2022 11:15:00 AM 10.6 51.08 0.218 7.23 0.53 10.9
10/20/2022 11:30:00 AM 10.68 51.224 0.218 7.24 0.56 11.01
10/20/2022 11:45:00 AM 10.74 51.332 0.218 7.25 0.57 11.06
10/20/2022 12:00:00 PM 10.83 51.494 0.218 7.25 0.56 11.1
10/20/2022 12:15:00 PM 10.91 51.638 0.218 7.26 0.73 11.19
10/20/2022 12:30:00 PM 10.99 51.782 0.218 7.27 0.54 11.17
10/20/2022 12:45:00 PM 11.06 51.908 0.218 7.27 0.52 11.18
10/20/2022 1:00:00 PM 11.12 52.016 0.218 7.27 0.53 11.15
10/20/2022 1:15:00 PM 11.2 52.16 0.218 7.27 0.58 11.16
10/20/2022 1:30:00 PM 11.26 52.268 0.218 7.28 0.52 11.2
10/20/2022 1:45:00 PM 11.32 52.376 0.218 7.28 0.53 11.23
10/20/2022 2:00:00 PM 11.4 52.52 0.218 7.28 0.54 11.23
10/20/2022 2:15:00 PM 11.45 52.61 0.218 7.29 0.53 11.25
10/20/2022 2:30:00 PM 11.5 52.7 0.218 7.29 0.55 11.28
10/20/2022 2:45:00 PM 11.57 52.826 0.218 7.29 0.57 11.26
10/20/2022 3:00:00 PM 11.63 52.934 0.218 7.29 0.57 11.27
10/20/2022 3:15:00 PM 11.65 52.97 0.218 7.29 0.52 11.24
10/20/2022 3:30:00 PM 11.68 53.024 0.218 7.29 0.55 11.27
10/20/2022 3:45:00 PM 11.69 53.042 0.218 7.3 0.55 11.22
10/20/2022 4:00:00 PM 11.7 53.06 0.218 7.29 0.55 11.22
10/20/2022 4:15:00 PM 11.69 53.042 0.219 7.28 0.52 11.1
10/20/2022 4:30:00 PM 11.68 53.024 0.219 7.28 0.57 11.08
10/20/2022 4:45:00 PM 11.67 53.006 0.219 7.26 0.55 10.97
10/20/2022 5:00:00 PM 11.69 53.042 0.219 7.26 0.63 10.9
10/20/2022 5:15:00 PM 11.68 53.024 0.219 7.25 0.54 10.84
10/20/2022 5:30:00 PM 11.64 52.952 0.219 7.24 0.63 10.7
10/20/2022 5:45:00 PM 11.59 52.862 0.219 7.22 0.55 10.51
10/20/2022 6:00:00 PM 11.53 52.754 0.219 7.2 1.27 10.34
10/20/2022 6:15:00 PM 11.45 52.61 0.219 7.17 1 10.16
10/20/2022 6:30:00 PM 11.39 52.502 0.22 7.17 0.54 9.98
10/20/2022 6:45:00 PM 11.3 52.34 0.22 7.16 0.64 9.86
10/20/2022 7:00:00 PM 11.21 52.178 0.22 7.14 0.63 9.71
10/20/2022 7:15:00 PM 11.13 52.034 0.22 7.13 0.67 9.62
10/20/2022 7:30:00 PM 11.06 51.908 0.22 7.12 0.59 9.54
10/20/2022 7:45:00 PM 10.97 51.746 0.22 7.11 0.65 9.45
10/20/2022 8:00:00 PM 10.91 51.638 0.22 7.1 0.65 9.42
10/20/2022 8:15:00 PM 10.84 51.512 0.22 7.1 0.61 9.37
10/20/2022 8:30:00 PM 10.78 51.404 0.22 7.09 0.65 9.33
10/20/2022 8:45:00 PM 10.74 51.332 0.22 7.09 0.6 9.3
10/20/2022 9:00:00 PM 10.71 51.278 0.22 7.08 0.68 9.27
10/20/2022 9:15:00 PM 10.67 51.206 0.22 7.08 0.62 9.3
10/20/2022 9:30:00 PM 10.67 51.206 0.22 7.07 0.62 9.22
10/20/2022 9:45:00 PM 10.64 51.152 0.22 7.07 0.65 9.22
10/20/2022 10:00:00 PM 10.61 51.098 0.22 7.07 0.75 9.18
10/20/2022 10:15:00 PM 10.6 51.08 0.22 7.06 0.63 9.22
10/20/2022 10:30:00 PM 10.58 51.044 0.22 7.06 0.63 9.22
10/20/2022 10:45:00 PM 10.58 51.044 0.221 7.05 0.71 9.22
10/20/2022 11:00:00 PM 10.55 50.99 0.221 7.06 0.61 9.23
10/20/2022 11:15:00 PM 10.52 50.936 0.221 7.05 0.6 9.18
10/20/2022 11:30:00 PM 10.5 50.9 0.221 7.05 0.62 9.2
10/20/2022 11:45:00 PM 10.46 50.828 0.221 7.05 0.65 9.18
10/21/2022 12:00:00 AM 10.44 50.792 0.221 7.05 0.58 9.2
10/21/2022 12:15:00 AM 10.44 50.792 0.221 7.05 0.8 9.23
10/21/2022 12:30:00 AM 10.43 50.774 0.221 7.05 0.57 9.19
10/21/2022 12:45:00 AM 10.44 50.792 0.221 7.05 0.63 9.17
10/21/2022 1:00:00 AM 10.44 50.792 0.221 7.05 0.7 9.23
10/21/2022 1:15:00 AM 10.42 50.756 0.221 7.05 0.61 9.19
10/21/2022 1:30:00 AM 10.42 50.756 0.221 7.05 0.65 9.17
10/21/2022 1:45:00 AM 10.4 50.72 0.221 7.05 0.73 9.19
10/21/2022 2:00:00 AM 10.36 50.648 0.221 7.05 0.75 9.18
10/21/2022 2:15:00 AM 10.34 50.612 0.221 7.04 0.62 9.17
10/21/2022 2:30:00 AM 10.3 50.54 0.221 7.04 0.7 9.19
10/21/2022 2:45:00 AM 10.25 50.45 0.221 7.04 1.03 9.16
10/21/2022 3:00:00 AM 10.23 50.414 0.221 7.04 0.8 9.22
10/21/2022 3:15:00 AM 10.18 50.324 0.221 7.04 0.68 9.21
10/21/2022 3:30:00 AM 10.15 50.27 0.222 7.04 0.77 9.24
10/21/2022 3:45:00 AM 10.09 50.162 0.222 7.04 0.73 9.24
10/21/2022 4:00:00 AM 10.07 50.126 0.222 7.04 0.69 9.23
10/21/2022 4:15:00 AM 10.04 50.072 0.222 7.03 0.64 9.21
10/21/2022 4:30:00 AM 10 50 0.222 7.04 0.6 9.22
10/21/2022 4:45:00 AM 9.96 49.928 0.222 7.04 0.68 9.27
10/21/2022 5:00:00 AM 9.92 49.856 0.222 7.03 0.57 9.24
10/21/2022 5:15:00 AM 9.89 49.802 0.222 7.04 0.67 9.31
10/21/2022 5:30:00 AM 9.84 49.712 0.222 7.03 0.69 9.3
10/21/2022 5:45:00 AM 9.81 49.658 0.222 7.03 0.72 9.31
10/21/2022 6:00:00 AM 9.79 49.622 0.222 7.03 0.82 9.31
10/21/2022 6:15:00 AM 9.75 49.55 0.222 7.04 0.72 9.32
10/21/2022 6:30:00 AM 9.72 49.496 0.222 7.03 0.71 9.32
10/21/2022 6:45:00 AM 9.68 49.424 0.222 7.04 0.8 9.32
10/21/2022 7:00:00 AM 9.66 49.388 0.222 7.03 1.03 9.34
10/21/2022 7:15:00 AM 9.61 49.298 0.222 7.04 0.68 9.37
10/21/2022 7:30:00 AM 9.6 49.28 0.222 7.04 0.67 9.41
10/21/2022 7:45:00 AM 9.58 49.244 0.222 7.04 0.62 9.46
10/21/2022 8:00:00 AM 9.53 49.154 0.222 7.04 0.69 9.48
10/21/2022 8:15:00 AM 9.53 49.154 0.222 7.05 0.75 9.53
10/21/2022 8:30:00 AM 9.51 49.118 0.222 7.06 0.77 9.62
10/21/2022 8:45:00 AM 9.52 49.136 0.222 7.07 0.67 9.72
10/21/2022 9:00:00 AM 9.55 49.19 0.222 7.08 0.65 9.89
10/21/2022 9:15:00 AM 9.62 49.316 0.222 7.09 0.64 10.05
10/21/2022 9:30:00 AM 9.66 49.388 0.222 7.1 0.64 10.14
10/21/2022 9:45:00 AM 9.78 49.604 0.222 7.12 0.62 10.27
10/21/2022 10:00:00 AM 9.9 49.82 0.222 7.13 0.62 10.34
10/21/2022 10:15:00 AM 9.99 49.982 0.222 7.14 0.62 10.51
10/21/2022 10:30:00 AM 10.09 50.162 0.222 7.15 0.71 10.6
10/21/2022 10:45:00 AM 10.21 50.378 0.221 7.16 0.59 10.74
10/21/2022 11:00:00 AM 10.36 50.648 0.221 7.17 0.57 10.79
10/21/2022 11:15:00 AM 10.5 50.9 0.221 7.17 0.59 10.78
10/21/2022 11:30:00 AM 10.66 51.188 0.221 7.17 0.68 10.82
10/21/2022 11:45:00 AM 10.74 51.332 0.222 7.19 0.61 10.87
10/21/2022 12:00:00 PM 10.87 51.566 0.222 7.19 0.9 10.92
10/21/2022 12:15:00 PM 11.02 51.836 0.222 7.2 0.56 10.93
10/21/2022 12:30:00 PM 11.2 52.16 0.222 7.21 0.54 10.97
10/21/2022 12:45:00 PM 11.41 52.538 0.222 7.21 0.56 10.95
10/21/2022 1:00:00 PM 11.59 52.862 0.222 7.22 1 11.04
10/21/2022 1:15:00 PM 11.72 53.096 0.222 7.23 0.86 11.06
10/21/2022 1:30:00 PM 11.89 53.402 0.222 7.23 0.6 11.07
10/21/2022 1:45:00 PM 12.05 53.69 0.222 7.24 0.53 11.08
10/21/2022 2:00:00 PM 12.21 53.978 0.222 7.24 0.55 11.06
10/21/2022 2:15:00 PM 12.3 54.14 0.222 7.24 0.61 11.06
10/21/2022 2:30:00 PM 12.4 54.32 0.222 7.24 0.59 11.02
10/21/2022 2:45:00 PM 12.48 54.464 0.223 7.24 0.55 11
10/21/2022 3:00:00 PM 12.56 54.608 0.223 7.23 0.56 10.91
10/21/2022 3:15:00 PM 12.63 54.734 0.223 7.24 0.51 10.91
10/21/2022 3:30:00 PM 12.64 54.752 0.223 7.23 0.54 10.81
10/21/2022 3:45:00 PM 12.66 54.788 0.223 7.24 0.68 10.85
10/21/2022 4:00:00 PM 12.67 54.806 0.223 7.23 0.62 10.74
10/21/2022 4:15:00 PM 12.66 54.788 0.223 7.23 0.65 10.75
10/21/2022 4:30:00 PM 12.6 54.68 0.223 7.23 0.64 10.7
10/21/2022 4:45:00 PM 12.54 54.572 0.223 7.22 0.59 10.56
10/21/2022 5:00:00 PM 12.5 54.5 0.223 7.19 1.26 10.48
10/21/2022 5:15:00 PM 12.42 54.356 0.223 7.2 0.57 10.4
10/21/2022 5:30:00 PM 12.3 54.14 0.223 7.16 1.21 10.28
10/21/2022 5:45:00 PM 12.16 53.888 0.223 7.17 0.58 10.09
10/21/2022 6:00:00 PM 12.1 53.78 0.223 7.14 0.68 9.88
10/21/2022 6:15:00 PM 12.02 53.636 0.223 7.14 0.54 9.77
10/21/2022 6:30:00 PM 11.89 53.402 0.223 7.13 0.6 9.68
10/21/2022 6:45:00 PM 11.79 53.222 0.224 7.12 0.59 9.59
10/21/2022 7:00:00 PM 11.72 53.096 0.224 7.11 0.64 9.52
10/21/2022 7:15:00 PM 11.61 52.898 0.224 7.1 0.63 9.4
10/21/2022 7:30:00 PM 11.53 52.754 0.224 7.09 0.6 9.33
10/21/2022 7:45:00 PM 11.45 52.61 0.224 7.08 0.66 9.26
10/21/2022 8:00:00 PM 11.35 52.43 0.224 7.08 0.59 9.21
10/21/2022 8:15:00 PM 11.25 52.25 0.224 7.07 0.65 9.15
10/21/2022 8:30:00 PM 11.13 52.034 0.224 7.07 0.63 9.16
10/21/2022 8:45:00 PM 11.09 51.962 0.224 7.06 0.7 9.11
10/21/2022 9:00:00 PM 11.02 51.836 0.224 7.06 0.71 9.06
10/21/2022 9:15:00 PM 10.93 51.674 0.224 7.06 0.76 9.08
10/21/2022 9:30:00 PM 10.86 51.548 0.224 7.06 0.89 9.11
10/21/2022 9:45:00 PM 10.81 51.458 0.224 7.05 0.77 9.08
10/21/2022 10:00:00 PM 10.74 51.332 0.224 7.05 1.5 9.07
10/21/2022 10:15:00 PM 10.69 51.242 0.225 7.05 0.79 9.09
10/21/2022 10:30:00 PM 10.65 51.17 0.225 7.05 0.84 9.11
10/21/2022 10:45:00 PM 10.6 51.08 0.225 7.04 0.66 9.11
10/21/2022 11:00:00 PM 10.58 51.044 0.225 7.04 0.64 9.06
10/21/2022 11:15:00 PM 10.54 50.972 0.225 7.04 0.67 9.06
10/21/2022 11:30:00 PM 10.49 50.882 0.225 7.04 0.66 9.07
10/21/2022 11:45:00 PM 10.44 50.792 0.225 7.04 2.65 9.08
10/22/2022 12:00:00 AM 10.42 50.756 0.225 7.03 1.15 9.09
10/22/2022 12:15:00 AM 10.4 50.72 0.225 7.02 0.75 9.05
10/22/2022 12:30:00 AM 10.35 50.63 0.225 7.01 0.68 9.07
10/22/2022 12:45:00 AM 10.32 50.576 0.225 7.02 0.6 9.09
10/22/2022 1:00:00 AM 10.29 50.522 0.225 7.02 0.62 9.11
10/22/2022 1:15:00 AM 10.26 50.468 0.225 7.02 0.62 9.14
10/22/2022 1:30:00 AM 10.23 50.414 0.225 7.02 0.62 9.13
10/22/2022 1:45:00 AM 10.21 50.378 0.225 7.02 0.69 9.13
10/22/2022 2:00:00 AM 10.2 50.36 0.225 7.02 0.66 9.15
10/22/2022 2:15:00 AM 10.17 50.306 0.225 7.02 0.64 9.16
10/22/2022 2:30:00 AM 10.15 50.27 0.225 7.02 0.66 9.13
10/22/2022 2:45:00 AM 10.13 50.234 0.225 7.02 0.62 9.16
10/22/2022 3:00:00 AM 10.1 50.18 0.225 7.02 0.69 9.14
10/22/2022 3:15:00 AM 10.1 50.18 0.225 7.03 0.68 9.19
10/22/2022 3:30:00 AM 10.07 50.126 0.225 7.02 0.62 9.18
10/22/2022 3:45:00 AM 10.04 50.072 0.225 7.02 0.71 9.16
10/22/2022 4:00:00 AM 10.04 50.072 0.225 7.02 0.66 9.19
10/22/2022 4:15:00 AM 10.02 50.036 0.226 7.02 0.7 9.17
10/22/2022 4:30:00 AM 10.01 50.018 0.226 7.02 0.61 9.17
10/22/2022 4:45:00 AM 9.99 49.982 0.226 7.02 0.68 9.15
10/22/2022 5:00:00 AM 9.96 49.928 0.226 7.02 0.61 9.19
10/22/2022 5:15:00 AM 9.95 49.91 0.226 7.02 0.61 9.19
10/22/2022 5:30:00 AM 9.91 49.838 0.226 7.02 0.63 9.19
10/22/2022 5:45:00 AM 9.91 49.838 0.226 7.02 0.58 9.18
10/22/2022 6:00:00 AM 9.9 49.82 0.226 7.02 0.79 9.19
10/22/2022 6:15:00 AM 9.87 49.766 0.226 7.03 0.61 9.19
10/22/2022 6:30:00 AM 9.87 49.766 0.226 7.03 0.76 9.23
10/22/2022 6:45:00 AM 9.85 49.73 0.226 7.02 0.69 9.2
10/22/2022 7:00:00 AM 9.83 49.694 0.226 7.03 0.64 9.25
10/22/2022 7:15:00 AM 9.8 49.64 0.226 7.03 0.89 9.22
10/22/2022 7:30:00 AM 9.79 49.622 0.226 7.03 0.93 9.23
10/22/2022 7:45:00 AM 9.8 49.64 0.226 7.03 0.6 9.21
10/22/2022 8:00:00 AM 9.77 49.586 0.226 7.02 0.56 9.16
10/22/2022 8:15:00 AM 9.78 49.604 0.226 7.03 0.78 9.33
10/22/2022 8:30:00 AM 9.8 49.64 0.226 7.04 0.53 9.38
10/22/2022 8:45:00 AM 9.79 49.622 0.226 7.04 0.59 9.35
10/22/2022 9:00:00 AM 9.84 49.712 0.226 7.06 0.52 9.66
10/22/2022 9:15:00 AM 9.92 49.856 0.226 7.06 0.56 9.74
10/22/2022 9:30:00 AM 9.96 49.928 0.226 7.08 0.61 9.88
10/22/2022 9:45:00 AM 10.09 50.162 0.226 7.09 0.56 10.06
10/22/2022 10:00:00 AM 10.19 50.342 0.226 7.1 0.6 10.08
10/22/2022 10:15:00 AM 10.31 50.558 0.226 7.11 0.59 10.22
10/22/2022 10:30:00 AM 10.4 50.72 0.226 7.12 0.54 10.36
10/22/2022 10:45:00 AM 10.52 50.936 0.226 7.12 0.61 10.41
10/22/2022 11:00:00 AM 10.67 51.206 0.226 7.13 0.59 10.45
10/22/2022 11:15:00 AM 10.82 51.476 0.226 7.14 0.52 10.59
10/22/2022 11:30:00 AM 11 51.8 0.226 7.15 0.53 10.75
10/22/2022 11:45:00 AM 11.12 52.016 0.226 7.16 0.56 10.78
10/22/2022 12:00:00 PM 11.27 52.286 0.226 7.16 0.56 10.84
10/22/2022 12:15:00 PM 11.4 52.52 0.226 7.17 0.59 10.88
10/22/2022 12:30:00 PM 11.63 52.934 0.227 7.18 0.53 10.94
10/22/2022 12:45:00 PM 11.82 53.276 0.227 7.18 0.51 11
10/22/2022 1:00:00 PM 12.04 53.672 0.227 7.19 0.54 11.03
10/22/2022 1:15:00 PM 12.21 53.978 0.226 7.19 0.53 11.07
10/22/2022 1:30:00 PM 12.38 54.284 0.227 7.2 0.55 11.07
10/22/2022 1:45:00 PM 12.58 54.644 0.227 7.21 0.56 11.06
10/22/2022 2:00:00 PM 12.71 54.878 0.227 7.21 0.61 11
10/22/2022 2:15:00 PM 12.82 55.076 0.226 7.21 0.57 10.99
10/22/2022 2:30:00 PM 12.9 55.22 0.227 7.21 0.61 10.95
10/22/2022 2:45:00 PM 12.98 55.364 0.227 7.21 0.57 10.87
10/22/2022 3:00:00 PM 13.06 55.508 0.227 7.21 0.61 10.81
10/22/2022 3:15:00 PM 13.14 55.652 0.227 7.22 0.62 10.98
10/22/2022 3:30:00 PM 13.14 55.652 0.227 7.22 0.61 10.93
10/22/2022 3:45:00 PM 13.15 55.67 0.227 7.22 0.54 10.88
10/22/2022 4:00:00 PM 13.16 55.688 0.227 7.21 0.54 10.76
10/22/2022 4:15:00 PM 13.15 55.67 0.227 7.21 0.52 10.66
10/22/2022 4:30:00 PM 13.12 55.616 0.227 7.2 0.59 10.64
10/22/2022 4:45:00 PM 13.05 55.49 0.227 7.19 0.6 10.49
10/22/2022 5:00:00 PM 12.98 55.364 0.227 7.19 0.58 10.46
10/22/2022 5:15:00 PM 12.89 55.202 0.227 7.18 0.68 10.36
10/22/2022 5:30:00 PM 12.81 55.058 0.227 7.16 0.85 10.17
10/22/2022 5:45:00 PM 12.72 54.896 0.227 7.16 0.66 10.12
10/22/2022 6:00:00 PM 12.59 54.662 0.227 7.14 0.62 9.93
10/22/2022 6:15:00 PM 12.47 54.446 0.227 7.13 0.65 9.77
10/22/2022 6:30:00 PM 12.38 54.284 0.227 7.11 0.59 9.61
10/22/2022 6:45:00 PM 12.28 54.104 0.227 7.1 0.7 9.48
10/22/2022 7:00:00 PM 12.18 53.924 0.227 7.09 0.55 9.34
10/22/2022 7:15:00 PM 12.08 53.744 0.227 7.08 0.64 9.25
10/22/2022 7:30:00 PM 11.98 53.564 0.227 7.07 0.59 9.15
10/22/2022 7:45:00 PM 11.84 53.312 0.227 7.06 0.59 9.1
10/22/2022 8:00:00 PM 11.78 53.204 0.228 7.05 0.71 9.02
10/22/2022 8:15:00 PM 11.67 53.006 0.227 7.05 0.6 9
10/22/2022 8:30:00 PM 11.6 52.88 0.228 7.04 0.68 9.01
10/22/2022 8:45:00 PM 11.51 52.718 0.228 7.04 0.66 8.94
10/22/2022 9:00:00 PM 11.44 52.592 0.228 7.04 0.58 8.96
10/22/2022 9:15:00 PM 11.37 52.466 0.228 7.03 0.63 8.94
10/22/2022 9:30:00 PM 11.31 52.358 0.228 7.03 0.89 8.94
10/22/2022 9:45:00 PM 11.22 52.196 0.228 7.03 0.7 8.95
10/22/2022 10:00:00 PM 11.16 52.088 0.228 7.03 0.56 8.96
10/22/2022 10:15:00 PM 11.11 51.998 0.228 7.02 0.53 8.93
10/22/2022 10:30:00 PM 11.05 51.89 0.228 7.02 0.67 8.92
10/22/2022 10:45:00 PM 11 51.8 0.228 7.02 0.58 8.96
10/22/2022 11:00:00 PM 10.95 51.71 0.228 7.02 0.67 8.94
10/22/2022 11:15:00 PM 10.9 51.62 0.228 7.01 0.76 8.98
10/22/2022 11:30:00 PM 10.85 51.53 0.228 7.01 0.62 8.97
10/22/2022 11:45:00 PM 10.81 51.458 0.228 6.99 0.63 8.96
10/23/2022 12:00:00 AM 10.76 51.368 0.228 7.01 0.59 8.97
10/23/2022 12:15:00 AM 10.72 51.296 0.228 7.01 0.59 8.95
10/23/2022 12:30:00 AM 10.68 51.224 0.228 7.01 0.61 8.97
10/23/2022 12:45:00 AM 10.64 51.152 0.228 7.01 0.6 9
10/23/2022 1:00:00 AM 10.6 51.08 0.228 7.01 0.66 8.98
10/23/2022 1:15:00 AM 10.57 51.026 0.228 7.01 0.87 9.01
10/23/2022 1:30:00 AM 10.5 50.9 0.228 7.01 0.79 8.99
10/23/2022 1:45:00 AM 10.51 50.918 0.228 7 0.67 9
10/23/2022 2:00:00 AM 10.46 50.828 0.228 7.01 0.71 9.04
10/23/2022 2:15:00 AM 10.43 50.774 0.229 7 0.64 9.02
10/23/2022 2:30:00 AM 10.41 50.738 0.229 7 0.73 9.05
10/23/2022 2:45:00 AM 10.39 50.702 0.229 7.01 0.67 9.07
10/23/2022 3:00:00 AM 10.38 50.684 0.229 7.01 0.68 9.08
10/23/2022 3:15:00 AM 10.35 50.63 0.229 7.01 0.67 9.11
10/23/2022 3:30:00 AM 10.3 50.54 0.229 7.01 0.65 9.06
10/23/2022 3:45:00 AM 10.29 50.522 0.229 7.01 0.8 9.07
10/23/2022 4:00:00 AM 10.25 50.45 0.229 7.01 0.65 9.1
10/23/2022 4:15:00 AM 10.23 50.414 0.229 7.01 0.64 9.07
10/23/2022 4:30:00 AM 10.21 50.378 0.229 7.01 0.63 9.06
10/23/2022 4:45:00 AM 10.18 50.324 0.229 7.01 0.67 9.09
10/23/2022 5:00:00 AM 10.16 50.288 0.229 7.01 0.64 9.12
10/23/2022 5:15:00 AM 10.15 50.27 0.229 7.01 0.62 9.13
10/23/2022 5:30:00 AM 10.13 50.234 0.229 7.01 0.64 9.12
10/23/2022 5:45:00 AM 10.11 50.198 0.229 7.01 0.71 9.14
10/23/2022 6:00:00 AM 10.11 50.198 0.229 7.01 0.63 9.13
10/23/2022 6:15:00 AM 10.07 50.126 0.229 7.01 0.59 9.12
10/23/2022 6:30:00 AM 10.06 50.108 0.229 7.01 0.66 9.13
10/23/2022 6:45:00 AM 10.03 50.054 0.229 7.01 0.56 9.13
10/23/2022 7:00:00 AM 10 50 0.229 7.01 0.65 9.11
10/23/2022 7:15:00 AM 10 50 0.23 7 0.67 9
10/23/2022 7:30:00 AM 9.97 49.946 0.229 7.01 0.6 9.01
10/23/2022 7:45:00 AM 9.95 49.91 0.23 7.01 0.62 9.08
10/23/2022 8:00:00 AM 9.95 49.91 0.23 7.01 0.63 9.06
10/23/2022 8:15:00 AM 9.96 49.928 0.23 7.01 0.63 9.1
10/23/2022 8:30:00 AM 9.98 49.964 0.23 7.02 0.62 9.27
10/23/2022 8:45:00 AM 10 50 0.23 7.03 0.65 9.41
10/23/2022 9:00:00 AM 10.02 50.036 0.23 7.04 0.58 9.54
10/23/2022 9:15:00 AM 10.06 50.108 0.23 7.06 2.93 9.81
10/23/2022 9:30:00 AM 10.12 50.216 0.23 7.08 0.61 9.95
10/23/2022 9:45:00 AM 10.19 50.342 0.229 7.1 0.55 10.22
10/23/2022 10:00:00 AM 10.26 50.468 0.229 7.11 0.57 10.31
10/23/2022 10:15:00 AM 10.36 50.648 0.229 7.12 0.55 10.45
10/23/2022 10:30:00 AM 10.45 50.81 0.229 7.13 0.61 10.55
10/23/2022 10:45:00 AM 10.54 50.972 0.229 7.14 0.58 10.69
10/23/2022 11:00:00 AM 10.65 51.17 0.229 7.15 0.52 10.79
10/23/2022 11:15:00 AM 10.75 51.35 0.229 7.16 0.57 10.91
10/23/2022 11:30:00 AM 10.88 51.584 0.229 7.16 0.55 10.91
10/23/2022 11:45:00 AM 11.01 51.818 0.229 7.17 0.52 11.06
10/23/2022 12:00:00 PM 11.14 52.052 0.229 7.19 0.54 11.2
10/23/2022 12:15:00 PM 11.27 52.286 0.229 7.19 0.62 11.24
10/23/2022 12:30:00 PM 11.47 52.646 0.229 7.2 0.58 11.31
10/23/2022 12:45:00 PM 11.67 53.006 0.23 7.2 0.57 11.34
10/23/2022 1:00:00 PM 11.83 53.294 0.23 7.2 0.54 11.34
10/23/2022 1:15:00 PM 11.98 53.564 0.23 7.21 0.6 11.33
10/23/2022 1:30:00 PM 12.19 53.942 0.23 7.22 0.55 11.42
10/23/2022 1:45:00 PM 12.31 54.158 0.23 7.22 0.59 11.38
10/23/2022 2:00:00 PM 12.47 54.446 0.23 7.23 0.57 11.41
10/23/2022 2:15:00 PM 12.58 54.644 0.23 7.23 0.55 11.41
10/23/2022 2:30:00 PM 12.65 54.77 0.23 7.23 0.56 11.37
10/23/2022 2:45:00 PM 12.74 54.932 0.23 7.23 0.52 11.29
10/23/2022 3:00:00 PM 12.82 55.076 0.23 7.23 0.56 11.28
10/23/2022 3:15:00 PM 12.99 55.382 0.23 7.24 0.92 11.39
10/23/2022 3:30:00 PM 13.01 55.418 0.229 7.24 0.55 11.34
10/23/2022 3:45:00 PM 13.04 55.472 0.23 7.24 0.54 11.32
10/23/2022 4:00:00 PM 13.03 55.454 0.23 7.22 0.57 11.16
10/23/2022 4:15:00 PM 13.01 55.418 0.23 7.23 0.59 11.18
10/23/2022 4:30:00 PM 12.98 55.364 0.23 7.22 0.55 11.08
10/23/2022 4:45:00 PM 12.93 55.274 0.23 7.21 0.59 10.92
10/23/2022 5:00:00 PM 12.89 55.202 0.23 7.2 0.62 10.8
10/23/2022 5:15:00 PM 12.85 55.13 0.23 7.18 0.87 10.62
10/23/2022 5:30:00 PM 12.8 55.04 0.23 7.17 0.63 10.51
10/23/2022 5:45:00 PM 12.74 54.932 0.23 7.14 0.87 10.29
10/23/2022 6:00:00 PM 12.69 54.842 0.23 7.13 0.65 10.11
10/23/2022 6:15:00 PM 12.65 54.77 0.23 7.12 0.54 9.96
10/23/2022 6:30:00 PM 12.59 54.662 0.23 7.09 0.61 9.67
10/23/2022 6:45:00 PM 12.5 54.5 0.23 7.07 1.07 9.41
10/23/2022 7:00:00 PM 12.46 54.428 0.23 7.06 0.57 9.29
10/23/2022 7:15:00 PM 12.4 54.32 0.23 7.05 0.52 9.15
10/23/2022 7:30:00 PM 12.36 54.248 0.231 7.04 0.55 9.04
10/23/2022 7:45:00 PM 12.29 54.122 0.231 7.03 0.56 8.96
10/23/2022 8:00:00 PM 12.25 54.05 0.231 7.02 0.62 8.89
10/23/2022 8:15:00 PM 12.21 53.978 0.231 7.02 0.6 8.84
10/23/2022 8:30:00 PM 12.14 53.852 0.231 7.01 0.67 8.81
10/23/2022 8:45:00 PM 12.13 53.834 0.231 7.01 0.59 8.78
10/23/2022 9:00:00 PM 12.08 53.744 0.231 7.01 0.65 8.77
10/23/2022 9:15:00 PM 12.07 53.726 0.231 7 0.61 8.67
10/23/2022 9:30:00 PM 12.01 53.618 0.231 7 0.62 8.7
10/23/2022 9:45:00 PM 12.01 53.618 0.231 7 0.68 8.66
10/23/2022 10:00:00 PM 11.97 53.546 0.231 7 0.61 8.64
10/23/2022 10:15:00 PM 11.94 53.492 0.231 6.99 0.61 8.64
10/23/2022 10:30:00 PM 11.91 53.438 0.231 6.99 0.61 8.63
10/23/2022 10:45:00 PM 11.88 53.384 0.231 6.99 0.61 8.63
10/23/2022 11:00:00 PM 11.87 53.366 0.231 6.99 0.64 8.62
10/23/2022 11:15:00 PM 11.84 53.312 0.231 6.99 0.63 8.63
10/23/2022 11:30:00 PM 11.83 53.294 0.231 6.99 0.67 8.6
10/23/2022 11:45:00 PM 11.81 53.258 0.231 6.98 0.67 8.59
10/24/2022 12:00:00 AM 11.8 53.24 0.231 6.98 0.76 8.54
10/24/2022 12:15:00 AM 11.79 53.222 0.231 6.98 0.62 8.57
10/24/2022 12:30:00 AM 11.78 53.204 0.231 6.98 0.63 8.56
10/24/2022 12:45:00 AM 11.77 53.186 0.231 6.98 0.69 8.53
10/24/2022 1:00:00 AM 11.76 53.168 0.232 6.98 0.76 8.53
10/24/2022 1:15:00 AM 11.75 53.15 0.232 6.98 0.7 8.55
10/24/2022 1:30:00 AM 11.74 53.132 0.232 6.98 0.75 8.54
10/24/2022 1:45:00 AM 11.73 53.114 0.232 6.98 0.65 8.54
10/24/2022 2:00:00 AM 11.72 53.096 0.232 6.98 0.63 8.55
10/24/2022 2:15:00 AM 11.71 53.078 0.232 6.98 0.62 8.55
10/24/2022 2:30:00 AM 11.7 53.06 0.232 6.98 0.73 8.56
10/24/2022 2:45:00 AM 11.7 53.06 0.232 6.97 0.65 8.53
10/24/2022 3:00:00 AM 11.7 53.06 0.232 6.97 0.69 8.52
10/24/2022 3:15:00 AM 11.7 53.06 0.232 6.97 0.64 8.55
10/24/2022 3:30:00 AM 11.71 53.078 0.232 6.97 0.61 8.53
10/24/2022 3:45:00 AM 11.71 53.078 0.232 6.97 0.72 8.52
10/24/2022 4:00:00 AM 11.72 53.096 0.232 6.97 0.63 8.51
10/24/2022 4:15:00 AM 11.72 53.096 0.232 6.97 0.71 8.51
10/24/2022 4:30:00 AM 11.72 53.096 0.232 6.97 0.68 8.52
10/24/2022 4:45:00 AM 11.73 53.114 0.232 6.97 0.78 8.51
10/24/2022 5:00:00 AM 11.73 53.114 0.232 6.97 0.71 8.49
10/24/2022 5:15:00 AM 11.73 53.114 0.232 6.97 0.76 8.49
10/24/2022 5:30:00 AM 11.74 53.132 0.232 6.97 0.85 8.47
10/24/2022 5:45:00 AM 11.74 53.132 0.231 6.97 0.82 8.54
10/24/2022 6:00:00 AM 11.74 53.132 0.23 6.98 0.75 8.56
10/24/2022 6:15:00 AM 11.74 53.132 0.229 6.98 0.8 8.58
10/24/2022 6:30:00 AM 11.74 53.132 0.228 6.99 0.92 8.63
10/24/2022 6:45:00 AM 11.73 53.114 0.228 6.99 0.97 8.67
10/24/2022 7:00:00 AM 11.73 53.114 0.228 6.99 0.77 8.62
10/24/2022 7:15:00 AM 11.72 53.096 0.228 6.99 0.99 8.57
10/24/2022 7:30:00 AM 11.71 53.078 0.228 6.99 4.62 8.59
10/24/2022 7:45:00 AM 11.71 53.078 0.229 6.99 1.06 8.58
10/24/2022 8:00:00 AM 11.71 53.078 0.229 7 0.82 8.6
10/24/2022 8:15:00 AM 11.71 53.078 0.229 6.99 3.25 8.57
10/24/2022 8:30:00 AM 11.72 53.096 0.229 7 0.6 8.69
10/24/2022 8:45:00 AM 11.73 53.114 0.229 7.01 0.57 8.81
10/24/2022 9:00:00 AM 11.74 53.132 0.229 7.02 0.6 8.93
10/24/2022 9:15:00 AM 11.75 53.15 0.229 7.03 0.55 9.01
10/24/2022 9:30:00 AM 11.77 53.186 0.229 7.03 0.59 9.13
10/24/2022 9:45:00 AM 11.8 53.24 0.229 7.04 0.59 9.34
10/24/2022 10:00:00 AM 11.85 53.33 0.229 7.07 0.76 9.55
10/24/2022 10:15:00 AM 11.89 53.402 0.229 7.08 0.55 9.75
10/24/2022 10:30:00 AM 11.95 53.51 0.229 7.1 0.57 10
10/24/2022 10:45:00 AM 12.02 53.636 0.229 7.1 1.38 10.21
10/24/2022 11:00:00 AM 12.08 53.744 0.229 7.13 0.51 10.28
10/24/2022 11:15:00 AM 12.14 53.852 0.229 7.15 0.52 10.57
10/24/2022 11:30:00 AM 12.19 53.942 0.229 7.15 0.56 10.58
10/24/2022 11:45:00 AM 12.24 54.032 0.229 7.17 0.68 10.68
10/24/2022 12:00:00 PM 12.29 54.122 0.229 7.17 0.59 10.71
10/24/2022 12:15:00 PM 12.37 54.266 0.229 7.18 0.52 10.81
10/24/2022 12:30:00 PM 12.47 54.446 0.229 7.2 0.51 10.89
10/24/2022 12:45:00 PM 12.57 54.626 0.229 7.21 0.53 11.01
10/24/2022 1:00:00 PM 12.67 54.806 0.229 7.23 0.53 11.17
10/24/2022 1:15:00 PM 12.79 55.022 0.229 7.24 0.55 11.24
10/24/2022 1:30:00 PM 12.88 55.184 0.229 7.24 0.53 11.32
10/24/2022 1:45:00 PM 12.98 55.364 0.229 7.25 0.51 11.33
10/24/2022 2:00:00 PM 13.07 55.526 0.229 7.26 0.57 11.33
10/24/2022 2:15:00 PM 13.16 55.688 0.229 7.26 0.56 11.37
10/24/2022 2:30:00 PM 13.24 55.832 0.229 7.26 0.56 11.29
10/24/2022 2:45:00 PM 13.3 55.94 0.229 7.26 0.53 11.22
10/24/2022 3:00:00 PM 13.33 55.994 0.229 7.26 0.83 11.16
10/24/2022 3:15:00 PM 13.33 55.994 0.229 7.25 0.84 11.08
10/24/2022 3:30:00 PM 13.3 55.94 0.229 7.24 0.93 10.95
10/24/2022 3:45:00 PM 13.27 55.886 0.229 7.23 0.57 10.73
10/24/2022 4:00:00 PM 13.23 55.814 0.229 7.21 0.5 10.51
10/24/2022 4:15:00 PM 13.2 55.76 0.229 7.19 0.72 10.33
10/24/2022 4:30:00 PM 13.17 55.706 0.229 7.18 0.55 10.15
10/24/2022 4:45:00 PM 13.13 55.634 0.229 7.16 0.55 9.99
10/24/2022 5:00:00 PM 13.11 55.598 0.229 7.15 0.9 9.88
10/24/2022 5:15:00 PM 13.05 55.49 0.229 7.14 0.65 9.74
10/24/2022 5:30:00 PM 13.01 55.418 0.229 7.13 0.78 9.62
10/24/2022 5:45:00 PM 12.98 55.364 0.229 7.12 0.63 9.5
10/24/2022 6:00:00 PM 12.92 55.256 0.229 7.11 0.64 9.36
10/24/2022 6:15:00 PM 12.85 55.13 0.229 7.09 0.53 9.2
10/24/2022 6:30:00 PM 12.8 55.04 0.229 7.08 0.52 9.09
10/24/2022 6:45:00 PM 12.75 54.95 0.229 7.07 0.59 9
10/24/2022 7:00:00 PM 12.71 54.878 0.229 7.07 0.72 8.96
10/24/2022 7:15:00 PM 12.66 54.788 0.229 7.06 0.76 8.88
10/24/2022 7:30:00 PM 12.61 54.698 0.229 7.05 0.68 8.82
10/24/2022 7:45:00 PM 12.55 54.59 0.229 7.05 0.67 8.8
10/24/2022 8:00:00 PM 12.5 54.5 0.229 7.04 0.58 8.78
10/24/2022 8:15:00 PM 12.45 54.41 0.229 7.04 0.62 8.75
10/24/2022 8:30:00 PM 12.42 54.356 0.229 7.04 0.69 8.73
10/24/2022 8:45:00 PM 12.39 54.302 0.229 7.03 0.57 8.73
10/24/2022 9:00:00 PM 12.39 54.302 0.229 7.03 0.61 8.68
10/24/2022 9:15:00 PM 12.36 54.248 0.229 7.03 0.6 8.68
10/24/2022 9:30:00 PM 12.32 54.176 0.228 7.03 0.64 8.72
10/24/2022 9:45:00 PM 12.3 54.14 0.228 7.03 0.65 8.7
10/24/2022 10:00:00 PM 12.26 54.068 0.228 7.03 0.59 8.69
10/24/2022 10:15:00 PM 12.23 54.014 0.228 7.03 0.73 8.7
10/24/2022 10:30:00 PM 12.21 53.978 0.228 7.03 0.85 8.68
10/24/2022 10:45:00 PM 12.19 53.942 0.228 7.03 0.72 8.73
10/24/2022 11:00:00 PM 12.18 53.924 0.228 7.04 0.68 8.76
10/24/2022 11:15:00 PM 12.17 53.906 0.228 7.04 0.64 8.78
10/24/2022 11:30:00 PM 12.16 53.888 0.227 7.04 1 8.8
10/24/2022 11:45:00 PM 12.15 53.87 0.227 7.04 0.67 8.8
10/25/2022 12:00:00 AM 12.13 53.834 0.227 7.04 0.59 8.8
10/25/2022 12:15:00 AM 12.14 53.852 0.227 7.04 0.82 8.81
10/25/2022 12:30:00 AM 12.14 53.852 0.227 7.05 0.65 8.79
10/25/2022 12:45:00 AM 12.14 53.852 0.227 7.05 0.59 8.82
10/25/2022 1:00:00 AM 12.15 53.87 0.227 7.05 0.68 8.81
10/25/2022 1:15:00 AM 12.15 53.87 0.226 7.05 0.75 8.84
10/25/2022 1:30:00 AM 12.16 53.888 0.226 7.05 0.73 8.82
10/25/2022 1:45:00 AM 12.16 53.888 0.226 7.05 0.69 8.8
10/25/2022 2:00:00 AM 12.17 53.906 0.226 7.05 0.86 8.85
10/25/2022 2:15:00 AM 12.18 53.924 0.226 7.05 0.73 8.82
10/25/2022 2:30:00 AM 12.18 53.924 0.226 7.04 0.71 8.82
10/25/2022 2:45:00 AM 12.19 53.942 0.226 7.04 0.76 8.82
10/25/2022 3:00:00 AM 12.19 53.942 0.226 7.05 0.65 8.81
10/25/2022 3:15:00 AM 12.2 53.96 0.226 7.03 1.37 8.82
10/25/2022 3:30:00 AM 12.2 53.96 0.226 7.05 1.07 8.84
10/25/2022 3:45:00 AM 12.21 53.978 0.226 7.04 0.7 8.83
10/25/2022 4:00:00 AM 12.21 53.978 0.226 7.04 0.82 8.82
10/25/2022 4:15:00 AM 12.21 53.978 0.226 7.04 0.73 8.83
10/25/2022 4:30:00 AM 12.21 53.978 0.226 7.04 0.67 8.8
10/25/2022 4:45:00 AM 12.22 53.996 0.226 7.04 0.67 8.83
10/25/2022 5:00:00 AM 12.22 53.996 0.226 7.04 0.69 8.81
10/25/2022 5:15:00 AM 12.23 54.014 0.226 7.04 0.66 8.79
10/25/2022 5:30:00 AM 12.23 54.014 0.226 7.04 0.66 8.78
10/25/2022 5:45:00 AM 12.23 54.014 0.226 7.04 0.66 8.79
10/25/2022 6:00:00 AM 12.23 54.014 0.226 7.05 0.63 8.79
10/25/2022 6:15:00 AM 12.23 54.014 0.226 7.05 0.61 8.8
10/25/2022 6:30:00 AM 12.24 54.032 0.226 7.04 0.78 8.79
10/25/2022 6:45:00 AM 12.24 54.032 0.226 7.04 0.82 8.8
10/25/2022 7:00:00 AM 12.24 54.032 0.226 7.04 0.67 8.78
10/25/2022 7:15:00 AM 12.24 54.032 0.226 7.04 0.78 8.71
10/25/2022 7:30:00 AM 12.24 54.032 0.226 7.04 0.71 8.79
10/25/2022 7:45:00 AM 12.25 54.05 0.226 7.04 0.66 8.64
10/25/2022 8:00:00 AM 12.26 54.068 0.226 7.04 0.73 8.74
10/25/2022 8:15:00 AM 12.27 54.086 0.226 7.04 0.69 8.65
10/25/2022 8:30:00 AM 12.28 54.104 0.226 7.05 0.69 8.88
10/25/2022 8:45:00 AM 12.31 54.158 0.226 7.06 0.7 9.1
10/25/2022 9:00:00 AM 12.34 54.212 0.226 7.08 0.64 9.25
10/25/2022 9:15:00 AM 12.38 54.284 0.226 7.09 0.61 9.4
10/25/2022 9:30:00 AM 12.43 54.374 0.226 7.11 0.61 9.63
10/25/2022 9:45:00 AM 12.48 54.464 0.226 7.13 0.72 9.83
10/25/2022 10:00:00 AM 12.55 54.59 0.226 7.14 0.7 9.92
10/25/2022 10:15:00 AM 12.63 54.734 0.226 7.15 0.67 10.07
10/25/2022 10:30:00 AM 12.74 54.932 0.226 7.17 0.62 10.31
10/25/2022 10:45:00 AM 12.83 55.094 0.226 7.2 0.63 10.47
10/25/2022 11:00:00 AM 12.95 55.31 0.226 7.21 0.6 10.57
10/25/2022 11:15:00 AM 13.05 55.49 0.226 7.22 0.93 10.68
10/25/2022 11:30:00 AM 13.15 55.67 0.226 7.23 0.98 10.69
10/25/2022 11:45:00 AM 13.31 55.958 0.225 7.25 0.66 10.82
10/25/2022 12:00:00 PM 13.4 56.12 0.225 7.26 0.61 10.83
10/25/2022 12:15:00 PM 13.48 56.264 0.225 7.26 0.58 10.83
10/25/2022 12:30:00 PM 13.56 56.408 0.226 7.26 0.61 10.8
10/25/2022 12:45:00 PM 13.68 56.624 0.225 7.26 0.49 10.79
10/25/2022 1:00:00 PM 13.76 56.768 0.225 7.27 0.64 10.8
10/25/2022 1:15:00 PM 13.81 56.858 0.225 7.28 0.53 10.79
10/25/2022 1:30:00 PM 13.87 56.966 0.225 7.28 88.73 10.77
10/25/2022 1:45:00 PM 13.91 57.038 0.225 7.28 0.63 10.69
10/25/2022 2:00:00 PM 13.95 57.11 0.225 7.29 0.69 10.77
10/25/2022 2:15:00 PM 13.98 57.164 0.225 7.3 0.58 10.82
10/25/2022 2:30:00 PM 14.03 57.254 0.225 7.3 0.72 10.83
10/25/2022 2:45:00 PM 14.09 57.362 0.225 7.3 0.61 10.84
10/25/2022 3:00:00 PM 14.13 57.434 0.225 7.31 0.69 10.89
10/25/2022 3:15:00 PM 14.15 57.47 0.225 7.3 0.58 10.77
10/25/2022 3:30:00 PM 14.16 57.488 0.225 7.3 0.54 10.79
10/25/2022 3:45:00 PM 14.14 57.452 0.225 7.3 0.61 10.76
10/25/2022 4:00:00 PM 14.12 57.416 0.225 7.29 0.55 10.66
10/25/2022 4:15:00 PM 14.09 57.362 0.225 7.28 0.56 10.55
10/25/2022 4:30:00 PM 14.07 57.326 0.225 7.27 0.54 10.46
10/25/2022 4:45:00 PM 14.03 57.254 0.225 7.26 0.78 10.35
10/25/2022 5:00:00 PM 13.98 57.164 0.225 7.24 0.58 10.15
10/25/2022 5:15:00 PM 13.91 57.038 0.225 7.22 0.54 9.97
10/25/2022 5:30:00 PM 13.83 56.894 0.225 7.21 0.6 9.85
10/25/2022 5:45:00 PM 13.76 56.768 0.225 7.19 0.57 9.62
10/25/2022 6:00:00 PM 13.68 56.624 0.225 7.18 0.61 9.59
10/25/2022 6:15:00 PM 13.56 56.408 0.225 7.16 0.73 9.43
10/25/2022 6:30:00 PM 13.49 56.282 0.226 7.14 0.58 9.24
10/25/2022 6:45:00 PM 13.4 56.12 0.226 7.13 0.61 9.12
10/25/2022 7:00:00 PM 13.32 55.976 0.226 7.12 0.62 8.99
10/25/2022 7:15:00 PM 13.24 55.832 0.226 7.11 0.65 8.91
10/25/2022 7:30:00 PM 13.16 55.688 0.226 7.1 0.67 8.84
10/25/2022 7:45:00 PM 13.08 55.544 0.226 7.1 0.68 8.82
10/25/2022 8:00:00 PM 13 55.4 0.226 7.09 0.68 8.76
10/25/2022 8:15:00 PM 12.93 55.274 0.226 7.09 0.63 8.72
10/25/2022 8:30:00 PM 12.86 55.148 0.226 7.08 0.66 8.65
10/25/2022 8:45:00 PM 12.81 55.058 0.226 7.08 0.59 8.65
10/25/2022 9:00:00 PM 12.77 54.986 0.225 7.07 0.63 8.65
10/25/2022 9:15:00 PM 12.75 54.95 0.225 7.07 0.63 8.66
10/25/2022 9:30:00 PM 12.72 54.896 0.225 7.07 0.62 8.63
10/25/2022 9:45:00 PM 12.7 54.86 0.226 7.06 0.65 8.6
10/25/2022 10:00:00 PM 12.67 54.806 0.226 7.06 0.66 8.57
10/25/2022 10:15:00 PM 12.63 54.734 0.226 7.06 0.58 8.59
10/25/2022 10:30:00 PM 12.58 54.644 0.226 7.06 0.59 8.6
10/25/2022 10:45:00 PM 12.54 54.572 0.226 7.06 0.67 8.59
10/25/2022 11:00:00 PM 12.5 54.5 0.226 7.06 0.76 8.59
10/25/2022 11:15:00 PM 12.45 54.41 0.226 7.06 0.66 8.62
10/25/2022 11:30:00 PM 12.42 54.356 0.226 7.06 0.85 8.62
10/25/2022 11:45:00 PM 12.39 54.302 0.226 7.05 0.68 8.62
10/26/2022 12:00:00 AM 12.38 54.284 0.226 7.05 0.78 8.63
10/26/2022 12:15:00 AM 12.37 54.266 0.226 7.06 0.68 8.66
10/26/2022 12:30:00 AM 12.37 54.266 0.226 7.06 0.66 8.66
10/26/2022 12:45:00 AM 12.37 54.266 0.226 7.05 0.79 8.63
10/26/2022 1:00:00 AM 12.36 54.248 0.226 7.05 0.66 8.63
10/26/2022 1:15:00 AM 12.36 54.248 0.226 7.05 0.66 8.65
10/26/2022 1:30:00 AM 12.37 54.266 0.226 7.05 0.64 8.62
10/26/2022 1:45:00 AM 12.37 54.266 0.226 7.05 0.7 8.63
10/26/2022 2:00:00 AM 12.38 54.284 0.226 7.05 0.82 8.6
10/26/2022 2:15:00 AM 12.39 54.302 0.226 7.05 0.78 8.63
10/26/2022 2:30:00 AM 12.4 54.32 0.226 7.05 0.65 8.64
10/26/2022 2:45:00 AM 12.42 54.356 0.226 7.05 0.61 8.62
10/26/2022 3:00:00 AM 12.44 54.392 0.226 7.05 0.6 8.63
10/26/2022 3:15:00 AM 12.45 54.41 0.226 7.05 0.66 8.59
10/26/2022 3:30:00 AM 12.46 54.428 0.226 7.05 0.63 8.57
10/26/2022 3:45:00 AM 12.45 54.41 0.226 7.05 0.62 8.61
10/26/2022 4:00:00 AM 12.44 54.392 0.226 7.05 0.67 8.58
10/26/2022 4:15:00 AM 12.43 54.374 0.226 7.06 0.68 8.61
10/26/2022 4:30:00 AM 12.41 54.338 0.225 7.06 0.64 8.62
10/26/2022 4:45:00 AM 12.4 54.32 0.225 7.06 0.74 8.59
10/26/2022 5:00:00 AM 12.38 54.284 0.225 7.06 0.67 8.61
10/26/2022 5:15:00 AM 12.36 54.248 0.225 7.06 0.86 8.6
10/26/2022 5:30:00 AM 12.35 54.23 0.225 7.06 0.72 8.62
10/26/2022 5:45:00 AM 12.34 54.212 0.225 7.07 0.77 8.64
10/26/2022 6:00:00 AM 12.34 54.212 0.225 7.07 1.55 8.63
10/26/2022 6:15:00 AM 12.35 54.23 0.225 7.07 0.65 8.6
10/26/2022 6:30:00 AM 12.36 54.248 0.225 7.07 0.66 8.62
10/26/2022 6:45:00 AM 12.37 54.266 0.225 7.07 0.7 8.67
10/26/2022 7:00:00 AM 12.39 54.302 0.225 7.07 0.74 8.61
10/26/2022 7:15:00 AM 12.41 54.338 0.225 7.07 0.65 8.65
10/26/2022 7:30:00 AM 12.44 54.392 0.225 7.07 0.7 8.68
10/26/2022 7:45:00 AM 12.46 54.428 0.225 7.07 0.79 8.65
10/26/2022 8:00:00 AM 12.49 54.482 0.225 7.07 0.69 8.58
10/26/2022 8:15:00 AM 12.53 54.554 0.225 7.07 0.65 8.67
10/26/2022 8:30:00 AM 12.57 54.626 0.225 7.08 0.58 8.72
10/26/2022 8:45:00 AM 12.61 54.698 0.224 7.09 0.68 8.81
10/26/2022 9:00:00 AM 12.65 54.77 0.224 7.1 0.65 8.96
10/26/2022 9:15:00 AM 12.72 54.896 0.224 7.11 0.94 9.18
10/26/2022 9:30:00 AM 12.77 54.986 0.224 7.13 0.65 9.35
10/26/2022 9:45:00 AM 12.84 55.112 0.224 7.14 0.65 9.5
10/26/2022 10:00:00 AM 12.91 55.238 0.224 7.16 0.58 9.68
10/26/2022 10:15:00 AM 12.99 55.382 0.224 7.16 0.62 9.8
10/26/2022 10:30:00 AM 13.09 55.562 0.224 7.18 0.68 9.96
10/26/2022 10:45:00 AM 13.21 55.778 0.224 7.19 0.62 9.98
10/26/2022 11:00:00 AM 13.35 56.03 0.224 7.2 0.96 10.15
10/26/2022 11:15:00 AM 13.52 56.336 0.224 7.22 0.7 10.3
10/26/2022 11:30:00 AM 13.68 56.624 0.224 7.24 0.6 10.46
10/26/2022 11:45:00 AM 13.81 56.858 0.224 7.25 0.61 10.47
10/26/2022 12:00:00 PM 13.87 56.966 0.224 7.25 0.6 10.45
10/26/2022 12:15:00 PM 13.94 57.092 0.224 7.26 0.59 10.46
10/26/2022 12:30:00 PM 14.02 57.236 0.224 7.27 0.66 10.49
10/26/2022 12:45:00 PM 14.13 57.434 0.224 7.28 0.62 10.54
10/26/2022 1:00:00 PM 14.3 57.74 0.224 7.28 0.58 10.62
10/26/2022 1:15:00 PM 14.48 58.064 0.224 7.29 0.59 10.65
10/26/2022 1:30:00 PM 14.63 58.334 0.224 7.29 0.54 10.54
10/26/2022 1:45:00 PM 14.67 58.406 0.224 7.3 0.64 10.59
10/26/2022 2:00:00 PM 14.68 58.424 0.224 7.29 1.25 10.53
10/26/2022 2:15:00 PM 14.69 58.442 0.223 7.29 1.24 10.52
10/26/2022 2:30:00 PM 14.69 58.442 0.223 7.31 0.59 10.45
10/26/2022 2:45:00 PM 14.67 58.406 0.223 7.3 0.63 10.36
10/26/2022 3:00:00 PM 14.65 58.37 0.224 7.3 0.61 10.41
10/26/2022 3:15:00 PM 14.62 58.316 0.224 7.28 0.92 10.2
10/26/2022 3:30:00 PM 14.59 58.262 0.224 7.28 0.6 10.19
10/26/2022 3:45:00 PM 14.56 58.208 0.224 7.28 0.71 10.14
10/26/2022 4:00:00 PM 14.59 58.262 0.224 7.28 0.59 10.02
10/26/2022 4:15:00 PM 14.55 58.19 0.224 7.29 0.61 10.13
10/26/2022 4:30:00 PM 14.46 58.028 0.224 7.28 0.59 10.17
10/26/2022 4:45:00 PM 14.38 57.884 0.223 7.25 0.58 9.9
10/26/2022 5:00:00 PM 14.29 57.722 0.223 7.24 0.61 9.74
10/26/2022 5:15:00 PM 14.22 57.596 0.223 7.23 0.57 9.65
10/26/2022 5:30:00 PM 14.1 57.38 0.223 7.2 0.57 9.41
10/26/2022 5:45:00 PM 14.04 57.272 0.223 7.18 0.58 9.26
10/26/2022 6:00:00 PM 13.99 57.182 0.224 7.17 0.6 9.13
10/26/2022 6:15:00 PM 13.91 57.038 0.224 7.15 0.6 8.99
10/26/2022 6:30:00 PM 13.84 56.912 0.224 7.14 0.73 8.84
10/26/2022 6:45:00 PM 13.76 56.768 0.224 7.13 0.7 8.76
10/26/2022 7:00:00 PM 13.71 56.678 0.224 7.12 0.65 8.67
10/26/2022 7:15:00 PM 13.62 56.516 0.224 7.11 0.65 8.61
10/26/2022 7:30:00 PM 13.55 56.39 0.224 7.11 0.63 8.58
10/26/2022 7:45:00 PM 13.49 56.282 0.224 7.1 0.67 8.53
10/26/2022 8:00:00 PM 13.46 56.228 0.224 7.1 0.65 8.51
10/26/2022 8:15:00 PM 13.41 56.138 0.224 7.09 0.7 8.47
10/26/2022 8:30:00 PM 13.39 56.102 0.224 7.09 0.65 8.43
10/26/2022 8:45:00 PM 13.33 55.994 0.224 7.09 0.68 8.43
10/26/2022 9:00:00 PM 13.27 55.886 0.224 7.09 0.81 8.45
10/26/2022 9:15:00 PM 13.21 55.778 0.224 7.08 0.7 8.44
10/26/2022 9:30:00 PM 13.16 55.688 0.224 7.08 0.76 8.45
10/26/2022 9:45:00 PM 13.12 55.616 0.224 7.08 0.9 8.42
10/26/2022 10:00:00 PM 13.06 55.508 0.224 7.08 0.7 8.45
10/26/2022 10:15:00 PM 13 55.4 0.224 7.08 0.91 8.47
10/26/2022 10:30:00 PM 12.94 55.292 0.224 7.08 0.71 8.51
10/26/2022 10:45:00 PM 12.91 55.238 0.224 7.08 0.66 8.49
10/26/2022 11:00:00 PM 12.88 55.184 0.224 7.08 0.95 8.48
10/26/2022 11:15:00 PM 12.83 55.094 0.224 7.08 0.66 8.49
10/26/2022 11:30:00 PM 12.8 55.04 0.224 7.07 0.72 8.49
10/26/2022 11:45:00 PM 12.77 54.986 0.224 7.07 0.68 8.49
10/27/2022 12:00:00 AM 12.75 54.95 0.224 7.07 0.69 8.51
10/27/2022 12:15:00 AM 12.73 54.914 0.224 7.07 0.66 8.49
10/27/2022 12:30:00 AM 12.71 54.878 0.224 7.07 0.59 8.51
10/27/2022 12:45:00 AM 12.71 54.878 0.224 7.07 0.6 8.49
10/27/2022 1:00:00 AM 12.71 54.878 0.224 7.07 0.63 8.52
10/27/2022 1:15:00 AM 12.71 54.878 0.224 7.07 0.66 8.51
10/27/2022 1:30:00 AM 12.71 54.878 0.224 7.07 0.67 8.5
10/27/2022 1:45:00 AM 12.71 54.878 0.224 7.05 1.44 8.49
10/27/2022 2:00:00 AM 12.72 54.896 0.224 7.06 0.67 8.47
10/27/2022 2:15:00 AM 12.71 54.878 0.224 7.07 0.68 8.5
10/27/2022 2:30:00 AM 12.71 54.878 0.224 7.07 0.67 8.5
10/27/2022 2:45:00 AM 12.7 54.86 0.224 7.07 0.73 8.5
10/27/2022 3:00:00 AM 12.68 54.824 0.224 7.05 1.49 8.48
10/27/2022 3:15:00 AM 12.66 54.788 0.224 7.07 0.73 8.51
10/27/2022 3:30:00 AM 12.64 54.752 0.224 7.07 0.63 8.5
10/27/2022 3:45:00 AM 12.61 54.698 0.224 7.07 1.38 8.52
10/27/2022 4:00:00 AM 12.59 54.662 0.224 7.07 0.63 8.52
10/27/2022 4:15:00 AM 12.56 54.608 0.224 7.05 1.38 8.51
10/27/2022 4:30:00 AM 12.53 54.554 0.224 7.07 0.71 8.53
10/27/2022 4:45:00 AM 12.5 54.5 0.224 7.08 0.71 8.56
10/27/2022 5:00:00 AM 12.48 54.464 0.224 7.07 0.72 8.54
10/27/2022 5:15:00 AM 12.45 54.41 0.224 7.07 0.74 8.54
10/27/2022 5:30:00 AM 12.42 54.356 0.224 7.07 0.75 8.57
10/27/2022 5:45:00 AM 12.39 54.302 0.224 7.07 0.65 8.55
10/27/2022 6:00:00 AM 12.35 54.23 0.224 7.08 0.83 8.6
10/27/2022 6:15:00 AM 12.33 54.194 0.224 7.08 0.72 8.63
10/27/2022 6:30:00 AM 12.3 54.14 0.224 7.07 1.22 8.58
10/27/2022 6:45:00 AM 12.27 54.086 0.224 7.07 0.76 8.56
10/27/2022 7:00:00 AM 12.23 54.014 0.225 7.06 1.52 8.62
10/27/2022 7:15:00 AM 12.21 53.978 0.225 7.08 0.68 8.6
10/27/2022 7:30:00 AM 12.17 53.906 0.225 7.07 0.83 8.6
10/27/2022 7:45:00 AM 12.15 53.87 0.225 7.07 0.74 8.54
10/27/2022 8:00:00 AM 12.12 53.816 0.225 7.07 0.65 8.51
10/27/2022 8:15:00 AM 12.1 53.78 0.225 7.07 0.91 8.61
10/27/2022 8:30:00 AM 12.08 53.744 0.225 7.07 0.73 8.72
10/27/2022 8:45:00 AM 12.06 53.708 0.225 7.07 2.46 8.77
10/27/2022 9:00:00 AM 12.04 53.672 0.225 7.08 1.31 8.93
10/27/2022 9:15:00 AM 12.05 53.69 0.224 7.1 0.7 9.25
10/27/2022 9:30:00 AM 12.05 53.69 0.224 7.11 0.73 9.19
10/27/2022 9:45:00 AM 12.07 53.726 0.224 7.11 0.75 9.16
10/27/2022 10:00:00 AM 12.1 53.78 0.224 7.12 0.73 9.33
10/27/2022 10:15:00 AM 12.14 53.852 0.224 7.15 0.79 9.65
10/27/2022 10:30:00 AM 12.19 53.942 0.225 7.16 0.82 9.93
10/27/2022 10:45:00 AM 12.25 54.05 0.225 7.18 0.72 9.99
10/27/2022 11:00:00 AM 12.29 54.122 0.225 7.19 0.84 10.2
10/27/2022 11:15:00 AM 12.36 54.248 0.224 7.21 0.69 10.44
10/27/2022 11:30:00 AM 12.44 54.392 0.224 7.22 0.67 10.42
10/27/2022 11:45:00 AM 12.49 54.482 0.225 7.24 0.62 10.57
10/27/2022 12:00:00 PM 12.54 54.572 0.224 7.25 0.66 10.68
10/27/2022 12:15:00 PM 12.62 54.716 0.224 7.26 0.65 10.77
10/27/2022 12:30:00 PM 12.67 54.806 0.224 7.27 0.63 10.83
10/27/2022 12:45:00 PM 12.75 54.95 0.224 7.27 0.62 10.81
10/27/2022 1:00:00 PM 12.83 55.094 0.224 7.29 0.64 10.87
10/27/2022 1:15:00 PM 12.92 55.256 0.224 7.28 0.66 10.74
10/27/2022 1:30:00 PM 13.02 55.436 0.224 7.28 0.62 10.72
10/27/2022 1:45:00 PM 13.18 55.724 0.224 7.28 0.95 10.79
10/27/2022 2:00:00 PM 13.22 55.796 0.224 7.29 1.15 10.84
10/27/2022 2:15:00 PM 13.29 55.922 0.225 7.28 0.87 10.66
10/27/2022 2:30:00 PM 13.34 56.012 0.225 7.29 1.74 10.79
10/27/2022 2:45:00 PM 13.4 56.12 0.225 7.29 1.57 10.61
10/27/2022 3:00:00 PM 13.46 56.228 0.225 7.29 1.47 10.75
10/27/2022 3:15:00 PM 13.52 56.336 0.225 7.28 1.62 10.58
10/27/2022 3:30:00 PM 13.52 56.336 0.226 7.28 1.06 10.52
10/27/2022 3:45:00 PM 13.51 56.318 0.225 7.28 0.89 10.55
10/27/2022 4:00:00 PM 13.48 56.264 0.225 7.27 1.15 10.47
10/27/2022 4:15:00 PM 13.47 56.246 0.225 7.26 1.21 10.44
10/27/2022 4:30:00 PM 13.44 56.192 0.225 7.25 1.58 10.35
10/27/2022 4:45:00 PM 13.33 55.994 0.225 7.25 1.11 10.32
10/27/2022 5:00:00 PM 13.27 55.886 0.225 7.23 1.19 10.17
10/27/2022 5:15:00 PM 13.17 55.706 0.225 7.22 0.85 10.06
10/27/2022 5:30:00 PM 13.07 55.526 0.225 7.21 0.71 9.87
10/27/2022 5:45:00 PM 12.98 55.364 0.225 7.2 0.86 9.87
10/27/2022 6:00:00 PM 12.84 55.112 0.225 7.18 0.96 9.69
10/27/2022 6:15:00 PM 12.75 54.95 0.225 7.16 0.71 9.53
10/27/2022 6:30:00 PM 12.67 54.806 0.225 7.16 0.63 9.44
10/27/2022 6:45:00 PM 12.54 54.572 0.225 7.13 0.58 9.26
10/27/2022 7:00:00 PM 12.47 54.446 0.226 7.12 1.14 9.16
10/27/2022 7:15:00 PM 12.36 54.248 0.226 7.11 0.62 9.07
10/27/2022 7:30:00 PM 12.27 54.086 0.226 7.09 0.61 8.99
10/27/2022 7:45:00 PM 12.21 53.978 0.226 7.08 0.61 8.94
10/27/2022 8:00:00 PM 12.12 53.816 0.226 7.07 0.78 8.93
10/27/2022 8:15:00 PM 12.04 53.672 0.226 7.06 0.71 8.91
10/27/2022 8:30:00 PM 12 53.6 0.226 7.06 0.67 8.85
10/27/2022 8:45:00 PM 11.91 53.438 0.226 7.05 0.71 8.86
10/27/2022 9:00:00 PM 11.82 53.276 0.226 7.05 0.66 8.8
10/27/2022 9:15:00 PM 11.78 53.204 0.226 7.04 0.69 8.8
10/27/2022 9:30:00 PM 11.72 53.096 0.226 7.04 0.64 8.81
10/27/2022 9:45:00 PM 11.65 52.97 0.226 7.04 0.73 8.82
10/27/2022 10:00:00 PM 11.58 52.844 0.226 7.03 0.67 8.78
10/27/2022 10:15:00 PM 11.53 52.754 0.226 7.03 0.68 8.78
10/27/2022 10:30:00 PM 11.47 52.646 0.226 7.03 0.87 8.85
10/27/2022 10:45:00 PM 11.41 52.538 0.226 7.03 0.7 8.86
10/27/2022 11:00:00 PM 11.35 52.43 0.227 7.03 0.73 8.88
10/27/2022 11:15:00 PM 11.3 52.34 0.227 7.03 0.65 8.88
10/27/2022 11:30:00 PM 11.27 52.286 0.227 7.03 0.62 8.89
10/27/2022 11:45:00 PM 11.21 52.178 0.227 7.02 0.69 8.87
10/28/2022 12:00:00 AM 11.18 52.124 0.227 7.03 0.73 8.87
10/28/2022 12:15:00 AM 11.12 52.016 0.227 7.02 0.64 8.89
10/28/2022 12:30:00 AM 11.07 51.926 0.227 7.02 0.61 8.93
10/28/2022 12:45:00 AM 11.04 51.872 0.227 7.03 0.62 8.95
10/28/2022 1:00:00 AM 11.01 51.818 0.227 7.02 0.79 8.94
10/28/2022 1:15:00 AM 10.97 51.746 0.227 7.03 0.64 8.97
10/28/2022 1:30:00 AM 10.93 51.674 0.227 7.03 0.59 8.97
10/28/2022 1:45:00 AM 10.9 51.62 0.227 7.03 0.64 8.98
10/28/2022 2:00:00 AM 10.87 51.566 0.227 7.03 0.67 9.01
10/28/2022 2:15:00 AM 10.84 51.512 0.227 7.03 0.66 9.01
10/28/2022 2:30:00 AM 10.81 51.458 0.227 7.03 0.62 9.01
10/28/2022 2:45:00 AM 10.78 51.404 0.227 7.03 0.6 9.04
10/28/2022 3:00:00 AM 10.74 51.332 0.227 7.03 0.63 9
10/28/2022 3:15:00 AM 10.73 51.314 0.227 7.03 0.74 8.99
10/28/2022 3:30:00 AM 10.72 51.296 0.227 7.03 0.67 9.02
10/28/2022 3:45:00 AM 10.73 51.314 0.227 7.04 0.79 9.06
10/28/2022 4:00:00 AM 10.72 51.296 0.227 7.04 0.64 9.03
10/28/2022 4:15:00 AM 10.72 51.296 0.228 7.04 0.66 9.04
10/28/2022 4:30:00 AM 10.72 51.296 0.228 7.04 0.6 9.03
10/28/2022 4:45:00 AM 10.71 51.278 0.228 7.04 0.62 9.02
10/28/2022 5:00:00 AM 10.72 51.296 0.228 7.04 0.8 9.03
10/28/2022 5:15:00 AM 10.69 51.242 0.228 7.04 0.62 9.06
10/28/2022 5:30:00 AM 10.66 51.188 0.228 7.04 0.65 9.04
10/28/2022 5:45:00 AM 10.64 51.152 0.228 7.04 0.65 9.02
10/28/2022 6:00:00 AM 10.62 51.116 0.228 7.04 0.78 9.02
10/28/2022 6:15:00 AM 10.61 51.098 0.228 7.04 0.68 9.03
10/28/2022 6:30:00 AM 10.61 51.098 0.228 7.04 0.61 9.03
10/28/2022 6:45:00 AM 10.63 51.134 0.228 7.05 0.67 9.05
10/28/2022 7:00:00 AM 10.63 51.134 0.228 7.05 0.68 9.03
10/28/2022 7:15:00 AM 10.63 51.134 0.228 7.05 0.63 9.06
10/28/2022 7:30:00 AM 10.63 51.134 0.228 7.04 0.67 8.97
10/28/2022 7:45:00 AM 10.63 51.134 0.228 7.05 1.09 8.93
10/28/2022 8:00:00 AM 10.63 51.134 0.228 7.03 1.01 8.92
10/28/2022 8:15:00 AM 10.63 51.134 0.228 7.04 1.09 8.92
10/28/2022 8:30:00 AM 10.64 51.152 0.228 7.05 0.93 9.05
10/28/2022 8:45:00 AM 10.66 51.188 0.228 7.06 0.96 9.21
10/28/2022 9:00:00 AM 10.67 51.206 0.228 7.07 1.4 9.2
10/28/2022 9:15:00 AM 10.7 51.26 0.228 7.08 1.04 9.45
10/28/2022 9:30:00 AM 10.72 51.296 0.228 7.08 0.92 9.41
10/28/2022 9:45:00 AM 10.78 51.404 0.228 7.09 0.86 9.8
10/28/2022 10:00:00 AM 10.81 51.458 0.228 7.12 0.89 9.92
10/28/2022 10:15:00 AM 10.88 51.584 0.228 7.14 0.89 9.97
10/28/2022 10:30:00 AM 10.98 51.764 0.228 7.16 0.91 10.42
10/28/2022 10:45:00 AM 11.06 51.908 0.228 7.19 0.87 10.66
10/28/2022 11:00:00 AM 11.13 52.034 0.228 7.19 0.79 10.67
10/28/2022 11:15:00 AM 11.2 52.16 0.228 7.2 0.89 10.74
10/28/2022 11:30:00 AM 11.28 52.304 0.228 7.21 0.94 10.94
10/28/2022 11:45:00 AM 11.41 52.538 0.228 7.23 0.9 11.12
10/28/2022 12:00:00 PM 11.5 52.7 0.228 7.24 0.93 11.17
10/28/2022 12:15:00 PM 11.64 52.952 0.228 7.25 0.96 11.27
10/28/2022 12:30:00 PM 11.78 53.204 0.228 7.23 2.17 11.26
10/28/2022 12:45:00 PM 11.96 53.528 0.228 7.26 0.92 11.37
10/28/2022 1:00:00 PM 12.09 53.762 0.228 7.27 0.76 11.36
10/28/2022 1:15:00 PM 12.24 54.032 0.228 7.27 1.2 11.38
10/28/2022 1:30:00 PM 12.39 54.302 0.228 7.27 1.03 11.29
10/28/2022 1:45:00 PM 12.54 54.572 0.228 7.27 1.13 11.22
10/28/2022 2:00:00 PM 12.68 54.824 0.228 7.27 0.73 11.21
10/28/2022 2:15:00 PM 12.76 54.968 0.228 7.26 0.8 11.08
10/28/2022 2:30:00 PM 12.82 55.076 0.228 7.26 2.37 11.2
10/28/2022 2:45:00 PM 12.9 55.22 0.228 7.26 2.22 11.06
10/28/2022 3:00:00 PM 12.96 55.328 0.228 7.24 1.59 10.88
10/28/2022 3:15:00 PM 13.02 55.436 0.228 7.25 1.58 10.8
10/28/2022 3:30:00 PM 13.03 55.454 0.228 7.26 0.67 10.81
10/28/2022 3:45:00 PM 13.04 55.472 0.228 7.26 1 10.82
10/28/2022 4:00:00 PM 13.02 55.436 0.228 7.25 1.01 10.68
10/28/2022 4:15:00 PM 13.01 55.418 0.228 7.24 0.61 10.65
10/28/2022 4:30:00 PM 12.95 55.31 0.228 7.24 0.58 10.6
10/28/2022 4:45:00 PM 12.91 55.238 0.229 7.22 0.58 10.35
10/28/2022 5:00:00 PM 12.86 55.148 0.228 7.21 0.64 10.33
10/28/2022 5:15:00 PM 12.84 55.112 0.228 7.21 0.96 10.29
10/28/2022 5:30:00 PM 12.78 55.004 0.228 7.2 0.53 10.29
10/28/2022 5:45:00 PM 12.71 54.878 0.228 7.19 0.59 10.2
10/28/2022 6:00:00 PM 12.65 54.77 0.228 7.17 0.5 10.04
10/28/2022 6:15:00 PM 12.56 54.608 0.228 7.15 0.55 9.73
10/28/2022 6:30:00 PM 12.47 54.446 0.228 7.13 0.6 9.58
10/28/2022 6:45:00 PM 12.4 54.32 0.228 7.12 0.63 9.41
10/28/2022 7:00:00 PM 12.29 54.122 0.228 7.1 0.54 9.24
10/28/2022 7:15:00 PM 12.24 54.032 0.228 7.09 0.82 9.14
10/28/2022 7:30:00 PM 12.16 53.888 0.228 7.08 0.64 9.02
10/28/2022 7:45:00 PM 12.09 53.762 0.229 7.07 0.64 8.94
10/28/2022 8:00:00 PM 12.02 53.636 0.229 7.06 0.66 8.89
10/28/2022 8:15:00 PM 11.94 53.492 0.229 7.04 1.39 8.83
10/28/2022 8:30:00 PM 11.85 53.33 0.229 7.04 0.62 8.84
10/28/2022 8:45:00 PM 11.76 53.168 0.229 7.05 0.79 8.85
10/28/2022 9:00:00 PM 11.71 53.078 0.229 7.03 1.32 8.82
10/28/2022 9:15:00 PM 11.64 52.952 0.229 7.05 0.66 8.8
10/28/2022 9:30:00 PM 11.53 52.754 0.229 7.05 0.59 8.84
10/28/2022 9:45:00 PM 11.47 52.646 0.229 7.05 0.63 8.86
10/28/2022 10:00:00 PM 11.39 52.502 0.229 7.05 0.65 8.87
10/28/2022 10:15:00 PM 11.35 52.43 0.229 7.05 0.67 8.8
10/28/2022 10:30:00 PM 11.27 52.286 0.229 7.04 0.68 8.82
10/28/2022 10:45:00 PM 11.2 52.16 0.229 7.03 0.72 8.82
10/28/2022 11:00:00 PM 11.14 52.052 0.23 7.03 0.68 8.85
10/28/2022 11:15:00 PM 11.09 51.962 0.23 7.03 0.64 8.83
10/28/2022 11:30:00 PM 11.02 51.836 0.23 7.02 0.81 8.8
10/28/2022 11:45:00 PM 10.99 51.782 0.23 7.02 0.65 8.88
10/29/2022 12:00:00 AM 10.94 51.692 0.23 7.02 0.7 8.94
10/29/2022 12:15:00 AM 10.89 51.602 0.23 7.02 0.65 8.92
10/29/2022 12:30:00 AM 10.83 51.494 0.23 7.02 0.6 8.91
10/29/2022 12:45:00 AM 10.79 51.422 0.23 7.02 0.7 8.96
10/29/2022 1:00:00 AM 10.74 51.332 0.23 7.02 0.65 8.96
10/29/2022 1:15:00 AM 10.71 51.278 0.23 7.02 0.68 8.97
10/29/2022 1:30:00 AM 10.65 51.17 0.23 7.02 0.61 8.96
10/29/2022 1:45:00 AM 10.6 51.08 0.23 7.03 0.63 9.01
10/29/2022 2:00:00 AM 10.58 51.044 0.23 7.02 0.69 9.01
10/29/2022 2:15:00 AM 10.55 50.99 0.23 7.02 0.65 9.02
10/29/2022 2:30:00 AM 10.5 50.9 0.23 7.02 0.99 9.01
10/29/2022 2:45:00 AM 10.45 50.81 0.23 7.02 0.65 9.02
10/29/2022 3:00:00 AM 10.41 50.738 0.23 7.02 0.62 9.02
10/29/2022 3:15:00 AM 10.39 50.702 0.23 7.03 0.79 9.05
10/29/2022 3:30:00 AM 10.34 50.612 0.23 7.03 0.64 9.08
10/29/2022 3:45:00 AM 10.31 50.558 0.23 7.03 0.62 9.07
10/29/2022 4:00:00 AM 10.27 50.486 0.23 7.03 0.7 9.07
10/29/2022 4:15:00 AM 10.25 50.45 0.23 7.03 0.66 9.08
10/29/2022 4:30:00 AM 10.24 50.432 0.23 7.03 0.66 9.13
10/29/2022 4:45:00 AM 10.19 50.342 0.23 7.03 0.65 9.11
10/29/2022 5:00:00 AM 10.15 50.27 0.23 7.03 0.66 9.1
10/29/2022 5:15:00 AM 10.13 50.234 0.23 7.03 0.75 9.1
10/29/2022 5:30:00 AM 10.08 50.144 0.23 7.03 0.56 9.09
10/29/2022 5:45:00 AM 10.08 50.144 0.23 7.03 0.67 9.12
10/29/2022 6:00:00 AM 10.05 50.09 0.23 7.04 0.63 9.16
10/29/2022 6:15:00 AM 10.01 50.018 0.23 7.03 0.63 9.14
10/29/2022 6:30:00 AM 9.98 49.964 0.23 7.03 0.6 9.17
10/29/2022 6:45:00 AM 9.95 49.91 0.23 6.99 0.68 9.17
10/29/2022 7:00:00 AM 9.93 49.874 0.23 7.03 0.62 9.14
10/29/2022 7:15:00 AM 9.91 49.838 0.23 7.04 0.67 9.22
10/29/2022 7:30:00 AM 9.9 49.82 0.23 7.03 0.68 9.1
10/29/2022 7:45:00 AM 9.87 49.766 0.23 7.03 1.04 9.14
10/29/2022 8:00:00 AM 9.89 49.802 0.23 7.03 0.93 9.01
10/29/2022 8:15:00 AM 9.89 49.802 0.23 7.04 0.9 9.15
10/29/2022 8:30:00 AM 9.91 49.838 0.23 7.05 0.75 9.22
10/29/2022 8:45:00 AM 9.95 49.91 0.23 7.06 0.7 9.48
10/29/2022 9:00:00 AM 9.95 49.91 0.23 7.07 0.76 9.57
10/29/2022 9:15:00 AM 10.02 50.036 0.23 7.09 0.68 9.79
10/29/2022 9:30:00 AM 10.05 50.09 0.23 7.1 0.73 9.91
10/29/2022 9:45:00 AM 10.14 50.252 0.23 7.11 1.31 10.07
10/29/2022 10:00:00 AM 10.2 50.36 0.23 7.12 0.63 10.12
10/29/2022 10:15:00 AM 10.29 50.522 0.23 7.13 0.63 10.32
10/29/2022 10:30:00 AM 10.41 50.738 0.23 7.14 0.67 10.33
10/29/2022 10:45:00 AM 10.53 50.954 0.23 7.15 0.65 10.48
10/29/2022 11:00:00 AM 10.63 51.134 0.23 7.15 0.63 10.52
10/29/2022 11:15:00 AM 10.77 51.386 0.23 7.15 0.67 10.47
10/29/2022 11:30:00 AM 10.94 51.692 0.23 7.17 0.59 10.69
10/29/2022 11:45:00 AM 11.06 51.908 0.23 7.19 0.64 10.85
10/29/2022 12:00:00 PM 11.18 52.124 0.23 7.2 0.79 11
10/29/2022 12:15:00 PM 11.32 52.376 0.23 7.2 0.56 10.94
10/29/2022 12:30:00 PM 11.51 52.718 0.23 7.22 0.62 11.11
10/29/2022 12:45:00 PM 11.72 53.096 0.23 7.22 0.64 11.18
10/29/2022 1:00:00 PM 11.88 53.384 0.229 7.23 0.78 11.16
10/29/2022 1:15:00 PM 12.04 53.672 0.229 7.23 0.63 11.09
10/29/2022 1:30:00 PM 12.21 53.978 0.23 7.24 0.64 11.05
10/29/2022 1:45:00 PM 12.41 54.338 0.229 7.23 0.55 10.99
10/29/2022 2:00:00 PM 12.54 54.572 0.23 7.24 0.62 11.12
10/29/2022 2:15:00 PM 12.61 54.698 0.23 7.24 0.6 10.91
10/29/2022 2:30:00 PM 12.7 54.86 0.23 7.25 1.04 10.94
10/29/2022 2:45:00 PM 12.77 54.986 0.23 7.24 0.61 11
10/29/2022 3:00:00 PM 12.85 55.13 0.23 7.24 1.23 10.91
10/29/2022 3:15:00 PM 12.93 55.274 0.23 7.24 0.64 11.06
10/29/2022 3:30:00 PM 12.94 55.292 0.23 7.26 1.5 11.11
10/29/2022 3:45:00 PM 12.91 55.238 0.23 7.26 1.69 11.12
10/29/2022 4:00:00 PM 12.91 55.238 0.23 7.25 0.85 11
10/29/2022 4:15:00 PM 12.9 55.22 0.23 7.25 0.62 10.96
10/29/2022 4:30:00 PM 12.86 55.148 0.23 7.24 0.85 10.91
10/29/2022 4:45:00 PM 12.78 55.004 0.23 7.23 0.61 10.77
10/29/2022 5:00:00 PM 12.71 54.878 0.23 7.22 0.91 10.64
10/29/2022 5:15:00 PM 12.62 54.716 0.23 7.21 0.76 10.46
10/29/2022 5:30:00 PM 12.53 54.554 0.23 7.19 0.56 10.29
10/29/2022 5:45:00 PM 12.44 54.392 0.23 7.18 0.63 10.17
10/29/2022 6:00:00 PM 12.36 54.248 0.23 7.16 0.65 10.01
10/29/2022 6:15:00 PM 12.23 54.014 0.23 7.14 0.62 9.79
10/29/2022 6:30:00 PM 12.15 53.87 0.23 7.13 0.85 9.69
10/29/2022 6:45:00 PM 12.01 53.618 0.23 7.11 0.65 9.48
10/29/2022 7:00:00 PM 11.94 53.492 0.23 7.11 0.7 9.37
10/29/2022 7:15:00 PM 11.83 53.294 0.23 7.1 0.71 9.27
10/29/2022 7:30:00 PM 11.73 53.114 0.23 7.09 0.65 9.18
10/29/2022 7:45:00 PM 11.59 52.862 0.23 7.08 0.67 9.1
10/29/2022 8:00:00 PM 11.52 52.736 0.231 7.07 1.02 9.04
10/29/2022 8:15:00 PM 11.43 52.574 0.231 7.07 0.66 9.03
10/29/2022 8:30:00 PM 11.34 52.412 0.231 7.06 0.68 8.99
10/29/2022 8:45:00 PM 11.25 52.25 0.231 7.06 0.62 8.98
10/29/2022 9:00:00 PM 11.18 52.124 0.231 7.05 0.68 8.93
10/29/2022 9:15:00 PM 11.11 51.998 0.231 7.05 0.74 8.91
10/29/2022 9:30:00 PM 11.06 51.908 0.231 7.05 0.68 8.9
10/29/2022 9:45:00 PM 10.97 51.746 0.231 7.05 0.63 8.93
10/29/2022 10:00:00 PM 10.9 51.62 0.231 7.05 0.62 8.91
10/29/2022 10:15:00 PM 10.84 51.512 0.231 7.04 0.66 8.91
10/29/2022 10:30:00 PM 10.78 51.404 0.231 7.04 0.63 8.9
10/29/2022 10:45:00 PM 10.72 51.296 0.231 7.04 0.66 8.94
10/29/2022 11:00:00 PM 10.66 51.188 0.231 7.04 0.71 8.91
10/29/2022 11:15:00 PM 10.59 51.062 0.232 7.04 0.61 8.88
10/29/2022 11:30:00 PM 10.53 50.954 0.232 7.04 0.8 8.93
10/29/2022 11:45:00 PM 10.48 50.864 0.232 7.04 0.66 8.94
10/30/2022 12:00:00 AM 10.43 50.774 0.232 7.03 0.79 8.93
10/30/2022 12:15:00 AM 10.39 50.702 0.232 7.03 0.68 8.98
10/30/2022 12:30:00 AM 10.34 50.612 0.232 7.03 0.62 8.99
10/30/2022 12:45:00 AM 10.28 50.504 0.232 7.02 0.6 8.98
10/30/2022 1:00:00 AM 10.24 50.432 0.232 7.02 0.71 8.99
10/30/2022 1:15:00 AM 10.2 50.36 0.232 7.02 0.7 9.01
10/30/2022 1:30:00 AM 10.18 50.324 0.232 7.02 0.61 8.99
10/30/2022 1:45:00 AM 10.14 50.252 0.232 7.03 0.65 9.02
10/30/2022 2:00:00 AM 10.1 50.18 0.232 7.03 0.61 9.04
10/30/2022 2:15:00 AM 10.06 50.108 0.232 7.02 0.6 9.04
10/30/2022 2:30:00 AM 10.03 50.054 0.232 7.02 0.59 9.05
10/30/2022 2:45:00 AM 9.99 49.982 0.232 7.03 0.69 9.06
10/30/2022 3:00:00 AM 9.98 49.964 0.232 7.03 0.62 9.09
10/30/2022 3:15:00 AM 9.94 49.892 0.232 7.03 0.63 9.09
10/30/2022 3:30:00 AM 9.9 49.82 0.232 7.03 0.64 9.09
10/30/2022 3:45:00 AM 9.9 49.82 0.232 7.03 0.71 9.12
10/30/2022 4:00:00 AM 9.87 49.766 0.232 7.03 0.62 9.12
10/30/2022 4:15:00 AM 9.82 49.676 0.232 7.03 0.67 9.11
10/30/2022 4:30:00 AM 9.82 49.676 0.232 7.03 0.66 9.12
10/30/2022 4:45:00 AM 9.79 49.622 0.232 7.03 0.64 9.14
10/30/2022 5:00:00 AM 9.75 49.55 0.232 7.03 0.59 9.13
10/30/2022 5:15:00 AM 9.73 49.514 0.232 7.03 0.82 9.17
10/30/2022 5:30:00 AM 9.67 49.406 0.232 7.03 0.7 9.17
10/30/2022 5:45:00 AM 9.64 49.352 0.232 7.03 0.62 9.16
10/30/2022 6:00:00 AM 9.67 49.406 0.232 7.03 0.77 9.2
10/30/2022 6:15:00 AM 9.63 49.334 0.232 7.03 1.11 9.19
10/30/2022 6:30:00 AM 9.61 49.298 0.232 7.03 0.64 9.2
10/30/2022 6:45:00 AM 9.55 49.19 0.232 7.03 0.6 9.2
10/30/2022 7:00:00 AM 9.55 49.19 0.232 7.03 0.57 9.2
10/30/2022 7:15:00 AM 9.55 49.19 0.232 7.04 0.8 9.2
10/30/2022 7:30:00 AM 9.56 49.208 0.232 7.04 1.05 9.22
10/30/2022 7:45:00 AM 9.55 49.19 0.232 7.04 2.69 9.19
10/30/2022 8:00:00 AM 9.53 49.154 0.232 7.04 0.81 9.22
10/30/2022 8:15:00 AM 9.51 49.118 0.232 7.05 0.9 9.28
10/30/2022 8:30:00 AM 9.54 49.172 0.232 7.05 0.75 9.4
10/30/2022 8:45:00 AM 9.54 49.172 0.232 7.06 0.74 9.5
10/30/2022 9:00:00 AM 9.57 49.226 0.232 7.08 0.58 9.69
10/30/2022 9:15:00 AM 9.63 49.334 0.232 7.09 0.67 9.86
10/30/2022 9:30:00 AM 9.69 49.442 0.232 7.11 0.76 10.07
10/30/2022 9:45:00 AM 9.76 49.568 0.232 7.11 0.56 10.16
10/30/2022 10:00:00 AM 9.84 49.712 0.229 7.13 0.89 10.42
10/30/2022 10:15:00 AM 9.91 49.838 0.232 7.14 0.63 10.47
10/30/2022 10:30:00 AM 10.03 50.054 0.232 7.15 0.68 10.65
10/30/2022 10:45:00 AM 10.15 50.27 0.232 7.16 0.61 10.73
10/30/2022 11:00:00 AM 10.3 50.54 0.232 7.17 0.57 10.85
10/30/2022 11:15:00 AM 10.45 50.81 0.232 7.18 0.57 10.94
10/30/2022 11:30:00 AM 10.59 51.062 0.232 7.19 0.54 11.09
10/30/2022 11:45:00 AM 10.73 51.314 0.232 7.2 0.61 11.21
10/30/2022 12:00:00 PM 10.83 51.494 0.232 7.2 0.7 11.22
10/30/2022 12:15:00 PM 10.95 51.71 0.232 7.21 1.1 11.2
10/30/2022 12:30:00 PM 11.18 52.124 0.232 7.22 0.69 11.29
10/30/2022 12:45:00 PM 11.34 52.412 0.232 7.22 0.7 11.16
10/30/2022 1:00:00 PM 11.53 52.754 0.232 7.24 1.54 11.43
10/30/2022 1:15:00 PM 11.71 53.078 0.232 7.23 1.57 11.42
10/30/2022 1:30:00 PM 11.92 53.456 0.232 7.22 1.65 11.42
10/30/2022 1:45:00 PM 12.09 53.762 0.232 7.24 1.17 11.43
10/30/2022 2:00:00 PM 12.23 54.014 0.232 7.25 1.19 11.39
10/30/2022 2:15:00 PM 12.33 54.194 0.232 7.26 76.37 11.53
10/30/2022 2:30:00 PM 12.39 54.302 0.232 7.25 6.03 11.39
10/30/2022 2:45:00 PM 12.47 54.446 0.232 7.26 5.45 11.39
10/30/2022 3:00:00 PM 12.5 54.5 0.232 7.26 6.64 11.29
10/30/2022 3:15:00 PM 12.58 54.644 0.232 7.25 7.77 11.16
10/30/2022 3:30:00 PM 12.55 54.59 0.232 7.24 7.04 11.08
10/30/2022 3:45:00 PM 12.55 54.59 0.233 7.23 5.4 10.98
10/30/2022 4:00:00 PM 12.55 54.59 0.233 7.23 4.46 10.89
10/30/2022 4:15:00 PM 12.56 54.608 0.233 7.23 3.21 10.88
10/30/2022 4:30:00 PM 12.51 54.518 0.233 7.22 2.13 10.7
10/30/2022 4:45:00 PM 12.45 54.41 0.232 7.22 1.87 10.75
10/30/2022 5:00:00 PM 12.36 54.248 0.232 7.2 1.84 10.58
10/30/2022 5:15:00 PM 12.29 54.122 0.232 7.19 1.74 10.46
10/30/2022 5:30:00 PM 12.19 53.942 0.232 7.18 1.84 10.29
10/30/2022 5:45:00 PM 12.07 53.726 0.232 7.16 2.15 10.05
10/30/2022 6:00:00 PM 11.97 53.546 0.232 7.14 1.41 9.92
10/30/2022 6:15:00 PM 11.87 53.366 0.232 7.13 1.3 9.76
10/30/2022 6:30:00 PM 11.79 53.222 0.232 7.12 1.21 9.61
10/30/2022 6:45:00 PM 11.66 52.988 0.232 7.1 1.06 9.45
10/30/2022 7:00:00 PM 11.59 52.862 0.232 7.09 1.06 9.32
10/30/2022 7:15:00 PM 11.47 52.646 0.232 7.08 1.1 9.21
10/30/2022 7:30:00 PM 11.35 52.43 0.232 7.07 1.16 9.12
10/30/2022 7:45:00 PM 11.28 52.304 0.232 7.07 1.01 9.09
10/30/2022 8:00:00 PM 11.17 52.106 0.233 7.06 0.91 9.03
10/30/2022 8:15:00 PM 11.09 51.962 0.233 7.06 1.02 8.99
10/30/2022 8:30:00 PM 10.99 51.782 0.233 7.05 0.95 9.02
10/30/2022 8:45:00 PM 10.92 51.656 0.233 7.05 0.81 8.99
10/30/2022 9:00:00 PM 10.88 51.584 0.233 7.04 0.92 8.96
10/30/2022 9:15:00 PM 10.8 51.44 0.234 7.04 0.87 8.93
10/30/2022 9:30:00 PM 10.78 51.404 0.233 7.04 0.89 8.91
10/30/2022 9:45:00 PM 10.73 51.314 0.233 7.04 1.02 8.89
10/30/2022 10:00:00 PM 10.69 51.242 0.233 7.03 0.99 8.93
10/30/2022 10:15:00 PM 10.65 51.17 0.233 7.03 0.88 8.94
10/30/2022 10:30:00 PM 10.62 51.116 0.233 7.03 0.88 8.94
10/30/2022 10:45:00 PM 10.6 51.08 0.233 7.03 1.22 8.95
10/30/2022 11:00:00 PM 10.57 51.026 0.233 7.03 0.77 8.95
10/30/2022 11:15:00 PM 10.53 50.954 0.233 7.03 0.74 8.96
10/30/2022 11:30:00 PM 10.49 50.882 0.233 7.03 0.76 8.93
10/30/2022 11:45:00 PM 10.47 50.846 0.233 7.03 0.76 8.93
10/31/2022 12:00:00 AM 10.44 50.792 0.234 7.03 1.11 8.93
10/31/2022 12:15:00 AM 10.41 50.738 0.234 7.03 0.74 8.95
10/31/2022 12:30:00 AM 10.39 50.702 0.234 7.03 0.73 8.95
10/31/2022 12:45:00 AM 10.38 50.684 0.234 7.03 0.8 8.96
10/31/2022 1:00:00 AM 10.35 50.63 0.234 7.03 0.75 8.93
10/31/2022 1:15:00 AM 10.32 50.576 0.234 7.03 0.8 9.01
10/31/2022 1:30:00 AM 10.29 50.522 0.234 7.03 0.69 8.98
10/31/2022 1:45:00 AM 10.26 50.468 0.234 7.03 0.74 8.98
10/31/2022 2:00:00 AM 10.24 50.432 0.234 7.03 0.67 8.99
10/31/2022 2:15:00 AM 10.21 50.378 0.234 7.03 0.73 8.99
10/31/2022 2:30:00 AM 10.19 50.342 0.234 7.03 0.81 9
10/31/2022 2:45:00 AM 10.15 50.27 0.234 7.03 0.74 8.97
10/31/2022 3:00:00 AM 10.12 50.216 0.234 7.03 0.68 9.01
10/31/2022 3:15:00 AM 10.09 50.162 0.234 7.03 0.75 9
10/31/2022 3:30:00 AM 10.07 50.126 0.234 7.03 0.73 9.02
10/31/2022 3:45:00 AM 10.04 50.072 0.234 7.03 0.75 9.03
10/31/2022 4:00:00 AM 10.01 50.018 0.234 7.03 1.08 9.02
10/31/2022 4:15:00 AM 10.01 50.018 0.234 7.03 0.73 9.03
10/31/2022 4:30:00 AM 9.97 49.946 0.234 7.03 0.77 9.01
10/31/2022 4:45:00 AM 9.96 49.928 0.234 7.03 1.09 9.05
10/31/2022 5:00:00 AM 9.94 49.892 0.234 7.03 0.79 9.03
10/31/2022 5:15:00 AM 9.93 49.874 0.234 7.03 0.78 9.04
10/31/2022 5:30:00 AM 9.91 49.838 0.234 7.03 0.69 9.03
10/31/2022 5:45:00 AM 9.89 49.802 0.234 7.03 0.81 9.04
10/31/2022 6:00:00 AM 9.89 49.802 0.234 7.03 0.69 9.05
10/31/2022 6:15:00 AM 9.88 49.784 0.234 7.03 0.68 9.05
10/31/2022 6:30:00 AM 9.88 49.784 0.234 7.03 0.68 9.04
10/31/2022 6:45:00 AM 9.88 49.784 0.234 7.03 0.71 9.02
10/31/2022 7:00:00 AM 9.91 49.838 0.234 7.03 0.78 9.03
10/31/2022 7:15:00 AM 9.91 49.838 0.234 7.03 0.93 9.04
10/31/2022 7:30:00 AM 9.92 49.856 0.234 7.03 0.77 9.05
10/31/2022 7:45:00 AM 9.89 49.802 0.234 7.03 1.01 9.04
10/31/2022 8:00:00 AM 9.92 49.856 0.234 7.03 0.73 9.03
10/31/2022 8:15:00 AM 9.9 49.82 0.234 7.03 0.69 8.95
10/31/2022 8:30:00 AM 9.91 49.838 0.235 7.04 0.67 9.16
10/31/2022 8:45:00 AM 9.92 49.856 0.235 7.04 1.14 9.2
10/31/2022 9:00:00 AM 9.97 49.946 0.235 7.05 0.63 9.36
10/31/2022 9:15:00 AM 10.04 50.072 0.235 7.06 0.67 9.58
10/31/2022 9:30:00 AM 10.12 50.216 0.234 7.08 0.59 9.75
10/31/2022 9:45:00 AM 10.2 50.36 0.235 7.08 0.63 9.8
10/31/2022 10:00:00 AM 10.29 50.522 0.234 7.1 0.59 10.1
10/31/2022 10:15:00 AM 10.39 50.702 0.234 7.11 0.56 10.21
10/31/2022 10:30:00 AM 10.48 50.864 0.234 7.12 0.63 10.33
10/31/2022 10:45:00 AM 10.58 51.044 0.234 7.13 0.63 10.48
10/31/2022 11:00:00 AM 10.72 51.296 0.234 7.15 0.6 10.67
10/31/2022 11:15:00 AM 10.86 51.548 0.234 7.16 0.6 10.85
10/31/2022 11:30:00 AM 10.96 51.728 0.234 7.17 0.65 10.91
10/31/2022 11:45:00 AM 11.09 51.962 0.234 7.18 0.57 11.05
10/31/2022 12:00:00 PM 11.17 52.106 0.234 7.18 0.67 11.06
10/31/2022 12:15:00 PM 11.25 52.25 0.234 7.19 0.67 11.06
10/31/2022 12:30:00 PM 11.33 52.394 0.234 7.18 1.53 10.98
10/31/2022 12:45:00 PM 11.41 52.538 0.234 7.19 0.57 11.02
10/31/2022 1:00:00 PM 11.51 52.718 0.233 7.2 44.09 11.1
10/31/2022 1:15:00 PM 11.6 52.88 0.233 7.2 0.67 11.07
10/31/2022 1:30:00 PM 11.69 53.042 0.233 7.21 0.6 11.14
10/31/2022 1:45:00 PM 11.78 53.204 0.233 7.22 0.62 11.23
10/31/2022 2:00:00 PM 11.85 53.33 0.233 7.23 0.59 11.29
10/31/2022 2:15:00 PM 11.89 53.402 0.234 7.22 0.67 11.18
10/31/2022 2:30:00 PM 11.93 53.474 0.234 7.22 2 11.1
10/31/2022 2:45:00 PM 11.94 53.492 0.234 7.21 1.58 10.97
10/31/2022 3:00:00 PM 11.95 53.51 0.234 7.21 0.69 10.95
10/31/2022 3:15:00 PM 11.95 53.51 0.233 7.2 0.68 10.86
10/31/2022 3:30:00 PM 11.94 53.492 0.233 7.18 0.79 10.62
10/31/2022 3:45:00 PM 11.94 53.492 0.233 7.18 0.84 10.5
10/31/2022 4:00:00 PM 11.92 53.456 0.233 7.16 0.97 10.39
10/31/2022 4:15:00 PM 11.92 53.456 0.233 7.14 0.72 10.08
10/31/2022 4:30:00 PM 11.9 53.42 0.233 7.14 0.79 10
10/31/2022 4:45:00 PM 11.9 53.42 0.233 7.13 0.74 10.02
10/31/2022 5:00:00 PM 11.89 53.402 0.233 7.13 0.64 9.99
10/31/2022 5:15:00 PM 11.88 53.384 0.233 7.12 0.71 9.99
10/31/2022 5:30:00 PM 11.86 53.348 0.233 7.11 0.69 9.85
10/31/2022 5:45:00 PM 11.84 53.312 0.233 7.1 0.65 9.77
10/31/2022 6:00:00 PM 11.82 53.276 0.233 7.1 0.74 9.79
10/31/2022 6:15:00 PM 11.79 53.222 0.233 7.09 0.68 9.6
10/31/2022 6:30:00 PM 11.76 53.168 0.233 7.07 0.71 9.4
10/31/2022 6:45:00 PM 11.73 53.114 0.233 7.06 0.65 9.23
10/31/2022 7:00:00 PM 11.7 53.06 0.233 7.05 0.85 9.15
10/31/2022 7:15:00 PM 11.67 53.006 0.233 7.05 0.59 9.06
10/31/2022 7:30:00 PM 11.63 52.934 0.233 7.04 0.54 8.94
10/31/2022 7:45:00 PM 11.6 52.88 0.233 7.04 0.7 8.93
10/31/2022 8:00:00 PM 11.57 52.826 0.234 7.03 0.68 8.85
10/31/2022 8:15:00 PM 11.54 52.772 0.234 7.03 0.67 8.86
10/31/2022 8:30:00 PM 11.51 52.718 0.234 7.03 0.69 8.82
10/31/2022 8:45:00 PM 11.5 52.7 0.234 7.03 0.73 8.81
10/31/2022 9:00:00 PM 11.49 52.682 0.234 7.02 0.76 8.77
10/31/2022 9:15:00 PM 11.47 52.646 0.234 7.02 0.67 8.74
10/31/2022 9:30:00 PM 11.45 52.61 0.234 7.02 0.72 8.73
10/31/2022 9:45:00 PM 11.45 52.61 0.234 7.02 0.7 8.72
10/31/2022 10:00:00 PM 11.44 52.592 0.234 7.01 0.71 8.7
10/31/2022 10:15:00 PM 11.43 52.574 0.234 7.01 0.59 8.7
10/31/2022 10:30:00 PM 11.42 52.556 0.234 7.01 0.62 8.68
10/31/2022 10:45:00 PM 11.42 52.556 0.234 7.01 0.71 8.7
10/31/2022 11:00:00 PM 11.41 52.538 0.234 7.01 0.75 8.61
10/31/2022 11:15:00 PM 11.4 52.52 0.234 7.01 0.73 8.66
10/31/2022 11:30:00 PM 11.39 52.502 0.234 7.01 0.66 8.67
10/31/2022 11:45:00 PM 11.39 52.502 0.234 7.01 0.64 8.66
11/1/2022 12:00:00 AM 11.38 52.484 0.234 7.01 0.67 8.67
11/1/2022 12:15:00 AM 11.38 52.484 0.234 7.01 0.69 8.66
11/1/2022 12:30:00 AM 11.38 52.484 0.234 7.01 0.72 8.67
11/1/2022 12:45:00 AM 11.38 52.484 0.234 7 0.69 8.64
11/1/2022 1:00:00 AM 11.39 52.502 0.234 7.01 0.65 8.63
11/1/2022 1:15:00 AM 11.39 52.502 0.234 7.01 0.72 8.62
11/1/2022 1:30:00 AM 11.39 52.502 0.234 7.01 0.83 8.62
11/1/2022 1:45:00 AM 11.39 52.502 0.234 7 0.64 8.63
11/1/2022 2:00:00 AM 11.39 52.502 0.234 7 0.63 8.63
11/1/2022 2:15:00 AM 11.39 52.502 0.234 7 0.6 8.6
11/1/2022 2:30:00 AM 11.39 52.502 0.234 7 0.63 8.62
11/1/2022 2:45:00 AM 11.39 52.502 0.234 7 0.76 8.62
11/1/2022 3:00:00 AM 11.39 52.502 0.234 7 0.69 8.61
11/1/2022 3:15:00 AM 11.4 52.52 0.234 7 0.6 8.6
11/1/2022 3:30:00 AM 11.4 52.52 0.234 7 0.68 8.58
11/1/2022 3:45:00 AM 11.4 52.52 0.234 7 0.67 8.57
11/1/2022 4:00:00 AM 11.4 52.52 0.234 7 0.73 8.59
11/1/2022 4:15:00 AM 11.4 52.52 0.235 7 0.74 8.58
11/1/2022 4:30:00 AM 11.39 52.502 0.234 7 1.04 8.56
11/1/2022 4:45:00 AM 11.39 52.502 0.235 7 0.69 8.59
11/1/2022 5:00:00 AM 11.39 52.502 0.235 7 0.67 8.6
11/1/2022 5:15:00 AM 11.4 52.52 0.235 7 0.72 8.56
11/1/2022 5:30:00 AM 11.4 52.52 0.235 7 0.6 8.57
11/1/2022 5:45:00 AM 11.4 52.52 0.235 7 0.67 8.59
11/1/2022 6:00:00 AM 11.4 52.52 0.235 7 0.78 8.57
11/1/2022 6:15:00 AM 11.4 52.52 0.235 7 0.8 8.56
11/1/2022 6:30:00 AM 11.4 52.52 0.235 7 0.75 8.55
11/1/2022 6:45:00 AM 11.4 52.52 0.235 6.99 0.69 8.54
11/1/2022 7:00:00 AM 11.4 52.52 0.235 6.99 0.82 8.54
11/1/2022 7:15:00 AM 11.41 52.538 0.235 6.99 2.02 8.54
11/1/2022 7:30:00 AM 11.41 52.538 0.235 6.99 0.64 8.51
11/1/2022 7:45:00 AM 11.41 52.538 0.235 6.99 1.16 8.41
11/1/2022 8:00:00 AM 11.41 52.538 0.235 6.99 0.82 8.42
11/1/2022 8:15:00 AM 11.41 52.538 0.235 6.99 0.67 8.46
11/1/2022 8:30:00 AM 11.42 52.556 0.235 6.99 0.7 8.48
11/1/2022 8:45:00 AM 11.43 52.574 0.235 7 0.67 8.56
11/1/2022 9:00:00 AM 11.45 52.61 0.235 7 0.7 8.7
11/1/2022 9:15:00 AM 11.48 52.664 0.235 7.01 2.41 8.78
11/1/2022 9:30:00 AM 11.52 52.736 0.234 7.03 0.73 9.1
11/1/2022 9:45:00 AM 11.56 52.808 0.234 7.05 0.69 9.36
11/1/2022 10:00:00 AM 11.59 52.862 0.235 7.06 0.62 9.54
11/1/2022 10:15:00 AM 11.63 52.934 0.234 7.07 0.61 9.65
11/1/2022 10:30:00 AM 11.68 53.024 0.234 7.08 0.62 9.72
11/1/2022 10:45:00 AM 11.72 53.096 0.234 7.08 0.59 9.78
11/1/2022 11:00:00 AM 11.76 53.168 0.234 7.09 0.74 9.77
11/1/2022 11:15:00 AM 11.8 53.24 0.234 7.11 1.02 10.04
11/1/2022 11:30:00 AM 11.82 53.276 0.234 7.11 0.67 9.99
11/1/2022 11:45:00 AM 11.84 53.312 0.234 7.12 0.63 9.92
11/1/2022 12:00:00 PM 11.85 53.33 0.234 7.1 0.78 9.69
11/1/2022 12:15:00 PM 11.86 53.348 0.233 7.1 0.68 9.67
11/1/2022 12:30:00 PM 11.87 53.366 0.233 7.09 0.7 9.5
11/1/2022 12:45:00 PM 11.9 53.42 0.233 7.1 0.64 9.78
11/1/2022 1:00:00 PM 11.95 53.51 0.233 7.11 0.97 9.93
11/1/2022 1:15:00 PM 12.06 53.708 0.234 7.13 0.62 10.19
11/1/2022 1:30:00 PM 12.2 53.96 0.233 7.16 0.66 10.57
11/1/2022 1:45:00 PM 12.31 54.158 0.233 7.18 0.66 10.78
11/1/2022 2:00:00 PM 12.37 54.266 0.233 7.19 0.67 10.78
11/1/2022 2:15:00 PM 12.39 54.302 0.233 7.19 1.05 10.68
11/1/2022 2:30:00 PM 12.41 54.338 0.233 7.19 0.73 10.84
11/1/2022 2:45:00 PM 12.45 54.41 0.233 7.18 0.71 10.7
11/1/2022 3:00:00 PM 12.53 54.554 0.233 7.19 0.69 10.76
11/1/2022 3:15:00 PM 12.61 54.698 0.233 7.2 0.65 10.87
11/1/2022 3:30:00 PM 12.62 54.716 0.233 7.21 0.59 10.87
11/1/2022 3:45:00 PM 12.61 54.698 0.234 7.2 0.91 10.84
11/1/2022 4:00:00 PM 12.6 54.68 0.234 7.19 0.6 10.72
11/1/2022 4:15:00 PM 12.56 54.608 0.234 7.18 0.59 10.47
11/1/2022 4:30:00 PM 12.54 54.572 0.233 7.17 0.62 10.4
11/1/2022 4:45:00 PM 12.51 54.518 0.233 7.16 0.73 10.28
11/1/2022 5:00:00 PM 12.49 54.482 0.233 7.16 0.55 10.32
11/1/2022 5:15:00 PM 12.47 54.446 0.233 7.16 0.59 10.26
11/1/2022 5:30:00 PM 12.44 54.392 0.233 7.15 0.57 10.18
11/1/2022 5:45:00 PM 12.41 54.338 0.233 7.14 0.61 10.09
11/1/2022 6:00:00 PM 12.39 54.302 0.233 7.13 0.7 9.98
11/1/2022 6:15:00 PM 12.33 54.194 0.233 7.1 0.6 9.61
11/1/2022 6:30:00 PM 12.31 54.158 0.233 7.09 0.68 9.42
11/1/2022 6:45:00 PM 12.27 54.086 0.233 7.08 0.77 9.21
11/1/2022 7:00:00 PM 12.24 54.032 0.233 7.07 0.65 9.1
11/1/2022 7:15:00 PM 12.22 53.996 0.233 7.06 0.64 8.99
11/1/2022 7:30:00 PM 12.17 53.906 0.233 7.05 0.8 8.89
11/1/2022 7:45:00 PM 12.12 53.816 0.233 7.04 0.69 8.83
11/1/2022 8:00:00 PM 12.09 53.762 0.234 7.04 0.96 8.77
11/1/2022 8:15:00 PM 12.06 53.708 0.234 7.03 0.63 8.74
11/1/2022 8:30:00 PM 12.03 53.654 0.234 7.03 0.71 8.71
11/1/2022 8:45:00 PM 12.01 53.618 0.234 7.03 0.78 8.69
11/1/2022 9:00:00 PM 11.98 53.564 0.234 7.02 0.73 8.67
11/1/2022 9:15:00 PM 11.96 53.528 0.234 7.02 0.65 8.62
11/1/2022 9:30:00 PM 11.93 53.474 0.234 7.02 0.62 8.62
11/1/2022 9:45:00 PM 11.9 53.42 0.234 7.01 0.68 8.6
11/1/2022 10:00:00 PM 11.87 53.366 0.234 7.01 0.67 8.6
11/1/2022 10:15:00 PM 11.83 53.294 0.234 7.01 0.65 8.6
11/1/2022 10:30:00 PM 11.79 53.222 0.234 7.01 0.8 8.61
11/1/2022 10:45:00 PM 11.76 53.168 0.234 7.01 0.75 8.59
11/1/2022 11:00:00 PM 11.71 53.078 0.234 7.01 0.83 8.59
11/1/2022 11:15:00 PM 11.67 53.006 0.234 7.01 0.93 8.58
11/1/2022 11:30:00 PM 11.6 52.88 0.234 6.99 1.38 8.58
11/1/2022 11:45:00 PM 11.54 52.772 0.234 7.01 0.76 8.61
11/2/2022 12:00:00 AM 11.5 52.7 0.234 6.99 0.71 8.6
11/2/2022 12:15:00 AM 11.45 52.61 0.234 7.01 0.76 8.58
11/2/2022 12:30:00 AM 11.41 52.538 0.234 7.01 0.65 8.6
11/2/2022 12:45:00 AM 11.37 52.466 0.234 7.01 0.72 8.63
11/2/2022 1:00:00 AM 11.32 52.376 0.234 7.01 0.66 8.63
11/2/2022 1:15:00 AM 11.29 52.322 0.234 7.01 0.67 8.64
11/2/2022 1:30:00 AM 11.26 52.268 0.234 7.01 0.71 8.64
11/2/2022 1:45:00 AM 11.24 52.232 0.234 7.01 0.71 8.68
11/2/2022 2:00:00 AM 11.23 52.214 0.234 7.01 0.67 8.69
11/2/2022 2:15:00 AM 11.23 52.214 0.234 7.01 0.58 8.71
11/2/2022 2:30:00 AM 11.24 52.232 0.234 7.01 0.63 8.72
11/2/2022 2:45:00 AM 11.25 52.25 0.234 7.01 0.65 8.72
11/2/2022 3:00:00 AM 11.26 52.268 0.234 7.01 0.78 8.72
11/2/2022 3:15:00 AM 11.28 52.304 0.235 7.01 0.73 8.69
11/2/2022 3:30:00 AM 11.28 52.304 0.235 7.01 0.73 8.68
11/2/2022 3:45:00 AM 11.29 52.322 0.234 7.01 0.8 8.71
11/2/2022 4:00:00 AM 11.3 52.34 0.235 7.01 0.67 8.69
11/2/2022 4:15:00 AM 11.31 52.358 0.235 7.01 0.75 8.65
11/2/2022 4:30:00 AM 11.31 52.358 0.235 7.01 0.69 8.67
11/2/2022 4:45:00 AM 11.31 52.358 0.235 7.01 0.67 8.66
11/2/2022 5:00:00 AM 11.31 52.358 0.235 7.01 0.7 8.66
11/2/2022 5:15:00 AM 11.3 52.34 0.235 7.01 0.72 8.62
11/2/2022 5:30:00 AM 11.29 52.322 0.235 7.01 0.85 8.67
11/2/2022 5:45:00 AM 11.27 52.286 0.235 7.01 0.67 8.64
11/2/2022 6:00:00 AM 11.25 52.25 0.235 7.01 0.72 8.68
11/2/2022 6:15:00 AM 11.23 52.214 0.235 7.01 0.68 8.65
11/2/2022 6:30:00 AM 11.22 52.196 0.235 7.01 0.73 8.61
11/2/2022 6:45:00 AM 11.21 52.178 0.235 7.01 0.68 8.63
11/2/2022 7:00:00 AM 11.2 52.16 0.235 7.01 0.75 8.67
11/2/2022 7:15:00 AM 11.2 52.16 0.235 7.01 0.81 8.66
11/2/2022 7:30:00 AM 11.2 52.16 0.235 7.01 0.92 8.67
11/2/2022 7:45:00 AM 11.19 52.142 0.235 7.01 1.02 8.7
11/2/2022 8:00:00 AM 11.19 52.142 0.235 7.01 1.04 8.72
11/2/2022 8:15:00 AM 11.18 52.124 0.235 7.01 0.86 8.77
11/2/2022 8:30:00 AM 11.18 52.124 0.235 7.02 0.75 8.84
11/2/2022 8:45:00 AM 11.18 52.124 0.235 7.02 0.8 8.9
11/2/2022 9:00:00 AM 11.19 52.142 0.235 7.03 0.92 9.06
11/2/2022 9:15:00 AM 11.23 52.214 0.235 7.04 0.87 9.29
11/2/2022 9:30:00 AM 11.29 52.322 0.235 7.06 0.73 9.56
11/2/2022 9:45:00 AM 11.34 52.412 0.235 7.07 0.73 9.74
11/2/2022 10:00:00 AM 11.42 52.556 0.235 7.09 0.7 9.93
11/2/2022 10:15:00 AM 11.51 52.718 0.235 7.11 0.68 10.2
11/2/2022 10:30:00 AM 11.61 52.898 0.235 7.12 1.24 10.39
11/2/2022 10:45:00 AM 11.71 53.078 0.235 7.13 0.6 10.55
11/2/2022 11:00:00 AM 11.8 53.24 0.235 7.14 0.56 10.65
11/2/2022 11:15:00 AM 11.88 53.384 0.235 7.16 0.85 10.74
11/2/2022 11:30:00 AM 12.03 53.654 0.235 7.16 0.98 10.77
11/2/2022 11:45:00 AM 12.06 53.708 0.235 7.17 0.81 10.8
11/2/2022 12:00:00 PM 12.18 53.924 0.235 7.17 1.33 10.87
11/2/2022 12:15:00 PM 12.28 54.104 0.235 7.18 1.18 10.9
11/2/2022 12:30:00 PM 12.38 54.284 0.235 7.19 1.29 10.76
11/2/2022 12:45:00 PM 12.52 54.536 0.235 7.2 0.71 11.08
11/2/2022 1:00:00 PM 12.65 54.77 0.235 7.21 1.21 10.93
11/2/2022 1:15:00 PM 12.81 55.058 0.235 7.21 0.61 11.05
11/2/2022 1:30:00 PM 12.93 55.274 0.235 7.21 1.35 11.01
11/2/2022 1:45:00 PM 13.05 55.49 0.235 7.23 0.67 11.07
11/2/2022 2:00:00 PM 13.15 55.67 0.235 7.22 0.82 10.98
11/2/2022 2:15:00 PM 13.19 55.742 0.235 7.23 0.78 11.04
11/2/2022 2:30:00 PM 13.25 55.85 0.235 7.21 0.68 10.83
11/2/2022 2:45:00 PM 13.32 55.976 0.235 7.17 0.68 10.95
11/2/2022 3:00:00 PM 13.34 56.012 0.235 7.22 0.75 10.95
11/2/2022 3:15:00 PM 13.37 56.066 0.235 7.22 0.69 10.96
11/2/2022 3:30:00 PM 13.35 56.03 0.235 7.21 0.77 10.86
11/2/2022 3:45:00 PM 13.34 56.012 0.236 7.22 0.84 10.92
11/2/2022 4:00:00 PM 13.3 55.94 0.235 7.22 0.68 10.92
11/2/2022 4:15:00 PM 13.23 55.814 0.235 7.21 0.89 10.8
11/2/2022 4:30:00 PM 13.18 55.724 0.235 7.19 0.61 10.61
11/2/2022 4:45:00 PM 13.11 55.598 0.236 7.16 0.59 10.28
11/2/2022 5:00:00 PM 13.03 55.454 0.235 7.18 0.68 10.41
11/2/2022 5:15:00 PM 12.92 55.256 0.236 7.15 0.67 9.88
11/2/2022 5:30:00 PM 12.84 55.112 0.236 7.14 0.69 9.91
11/2/2022 5:45:00 PM 12.74 54.932 0.236 7.12 0.61 9.74
11/2/2022 6:00:00 PM 12.65 54.77 0.236 7.11 0.66 9.65
11/2/2022 6:15:00 PM 12.53 54.554 0.236 7.1 0.61 9.55
11/2/2022 6:30:00 PM 12.45 54.41 0.236 7.09 0.73 9.41
11/2/2022 6:45:00 PM 12.34 54.212 0.236 7.07 0.79 9.23
11/2/2022 7:00:00 PM 12.26 54.068 0.236 7.06 0.64 9.1
11/2/2022 7:15:00 PM 12.15 53.87 0.236 7.05 0.69 9
11/2/2022 7:30:00 PM 12.07 53.726 0.236 7.05 0.7 8.91
11/2/2022 7:45:00 PM 11.99 53.582 0.236 7.04 0.67 8.84
11/2/2022 8:00:00 PM 11.92 53.456 0.236 7.04 1.57 8.79
11/2/2022 8:15:00 PM 11.8 53.24 0.236 7.03 0.66 8.78
11/2/2022 8:30:00 PM 11.75 53.15 0.236 7.03 0.67 8.75
11/2/2022 8:45:00 PM 11.69 53.042 0.236 7.03 0.82 8.7
11/2/2022 9:00:00 PM 11.64 52.952 0.236 7.02 0.7 8.69
11/2/2022 9:15:00 PM 11.56 52.808 0.236 6.97 0.89 8.7
11/2/2022 9:30:00 PM 11.5 52.7 0.236 7.02 0.86 8.7
11/2/2022 9:45:00 PM 11.44 52.592 0.236 7.02 1.04 8.7
11/2/2022 10:00:00 PM 11.39 52.502 0.236 7.02 0.73 8.69
11/2/2022 10:15:00 PM 11.35 52.43 0.236 7.02 0.75 8.68
11/2/2022 10:30:00 PM 11.31 52.358 0.236 7.02 0.71 8.67
11/2/2022 10:45:00 PM 11.26 52.268 0.236 7.01 0.66 8.62
11/2/2022 11:00:00 PM 11.22 52.196 0.236 7.01 0.73 8.67
11/2/2022 11:15:00 PM 11.16 52.088 0.236 7.01 0.65 8.7
11/2/2022 11:30:00 PM 11.13 52.034 0.236 7.01 0.75 8.71
11/2/2022 11:45:00 PM 11.08 51.944 0.236 7 0.72 8.71
11/3/2022 12:00:00 AM 11.05 51.89 0.236 7 0.67 8.73
11/3/2022 12:15:00 AM 11.02 51.836 0.236 6.99 0.71 8.69
11/3/2022 12:30:00 AM 10.98 51.764 0.236 6.99 0.68 8.68
11/3/2022 12:45:00 AM 10.94 51.692 0.236 6.99 0.74 8.75
11/3/2022 1:00:00 AM 10.91 51.638 0.236 6.99 0.69 8.75
11/3/2022 1:15:00 AM 10.88 51.584 0.236 6.99 0.69 8.75
11/3/2022 1:30:00 AM 10.86 51.548 0.236 6.99 0.66 8.72
11/3/2022 1:45:00 AM 10.83 51.494 0.236 6.99 0.67 8.76
11/3/2022 2:00:00 AM 10.81 51.458 0.236 6.99 0.7 8.76
11/3/2022 2:15:00 AM 10.78 51.404 0.236 6.99 0.71 8.76
11/3/2022 2:30:00 AM 10.75 51.35 0.236 6.99 0.83 8.82
11/3/2022 2:45:00 AM 10.72 51.296 0.236 6.99 0.69 8.8
11/3/2022 3:00:00 AM 10.7 51.26 0.236 7 0.7 8.83
11/3/2022 3:15:00 AM 10.69 51.242 0.236 7 0.73 8.84
11/3/2022 3:30:00 AM 10.69 51.242 0.236 7 0.6 8.85
11/3/2022 3:45:00 AM 10.68 51.224 0.237 7 0.72 8.83
11/3/2022 4:00:00 AM 10.68 51.224 0.236 7 0.68 8.85
11/3/2022 4:15:00 AM 10.66 51.188 0.236 7.01 0.69 8.86
11/3/2022 4:30:00 AM 10.66 51.188 0.236 7.01 0.69 8.86
11/3/2022 4:45:00 AM 10.66 51.188 0.236 7.01 0.77 8.86
11/3/2022 5:00:00 AM 10.65 51.17 0.236 7 0.79 8.83
11/3/2022 5:15:00 AM 10.66 51.188 0.236 7.01 0.76 8.85
11/3/2022 5:30:00 AM 10.63 51.134 0.236 7.01 0.65 8.79
11/3/2022 5:45:00 AM 10.67 51.206 0.236 7.01 0.69 8.83
11/3/2022 6:00:00 AM 10.68 51.224 0.236 7.01 0.69 8.83
11/3/2022 6:15:00 AM 10.71 51.278 0.237 7.01 0.86 8.84
11/3/2022 6:30:00 AM 10.72 51.296 0.237 7.01 0.77 8.83
11/3/2022 6:45:00 AM 10.74 51.332 0.237 7.01 0.79 8.82
11/3/2022 7:00:00 AM 10.77 51.386 0.237 7.01 0.62 8.82
11/3/2022 7:15:00 AM 10.76 51.368 0.237 7.01 0.67 8.79
11/3/2022 7:30:00 AM 10.78 51.404 0.237 7.01 0.64 8.82
11/3/2022 7:45:00 AM 10.78 51.404 0.237 7.01 0.98 8.73
11/3/2022 8:00:00 AM 10.79 51.422 0.237 7.01 0.7 8.6
11/3/2022 8:15:00 AM 10.79 51.422 0.237 7.01 1.92 8.7
11/3/2022 8:30:00 AM 10.8 51.44 0.237 7.01 0.79 8.67
11/3/2022 8:45:00 AM 10.82 51.476 0.237 7.02 0.92 8.79
11/3/2022 9:00:00 AM 10.86 51.548 0.237 7.03 0.62 9.03
11/3/2022 9:15:00 AM 10.86 51.548 0.237 7.03 0.7 8.96
11/3/2022 9:30:00 AM 10.89 51.602 0.237 7.04 0.62 9.29
11/3/2022 9:45:00 AM 10.92 51.656 0.237 7.06 0.63 9.39
11/3/2022 10:00:00 AM 10.96 51.728 0.237 7.06 0.84 9.41
11/3/2022 10:15:00 AM 11.01 51.818 0.236 7.09 0.66 9.86
11/3/2022 10:30:00 AM 11.07 51.926 0.237 7.1 0.59 9.76
11/3/2022 10:45:00 AM 11.16 52.088 0.236 7.12 0.61 10.34
11/3/2022 11:00:00 AM 11.25 52.25 0.237 7.14 0.61 10.53
11/3/2022 11:15:00 AM 11.33 52.394 0.237 7.15 0.59 10.68
11/3/2022 11:30:00 AM 11.49 52.682 0.237 7.17 0.6 10.89
11/3/2022 11:45:00 AM 11.59 52.862 0.237 7.17 0.61 10.96
11/3/2022 12:00:00 PM 11.67 53.006 0.237 7.18 0.62 11.08
11/3/2022 12:15:00 PM 11.79 53.222 0.237 7.19 1.09 11.06
11/3/2022 12:30:00 PM 11.91 53.438 0.237 7.19 0.7 11.01
11/3/2022 12:45:00 PM 12.06 53.708 0.237 7.19 0.61 10.99
11/3/2022 1:00:00 PM 12.22 53.996 0.236 7.2 0.86 11.1
11/3/2022 1:15:00 PM 12.37 54.266 0.236 7.21 0.61 11.11
11/3/2022 1:30:00 PM 12.54 54.572 0.236 7.22 0.63 11.23
11/3/2022 1:45:00 PM 12.67 54.806 0.236 7.22 0.63 11.21
11/3/2022 2:00:00 PM 12.8 55.04 0.237 7.22 0.68 11.25
11/3/2022 2:15:00 PM 12.87 55.166 0.237 7.22 1.12 11.26
11/3/2022 2:30:00 PM 12.95 55.31 0.237 7.22 0.75 11.21
11/3/2022 2:45:00 PM 13.04 55.472 0.237 7.23 0.52 11.21
11/3/2022 3:00:00 PM 13.1 55.58 0.237 7.23 0.99 11.13
11/3/2022 3:15:00 PM 13.14 55.652 0.237 7.21 0.61 10.9
11/3/2022 3:30:00 PM 13.14 55.652 0.237 7.22 0.67 11.05
11/3/2022 3:45:00 PM 13.11 55.598 0.237 7.21 0.6 10.93
11/3/2022 4:00:00 PM 13.07 55.526 0.237 7.22 0.63 10.89
11/3/2022 4:15:00 PM 13.06 55.508 0.237 7.2 0.64 10.81
11/3/2022 4:30:00 PM 13 55.4 0.237 7.2 0.62 10.55
11/3/2022 4:45:00 PM 12.9 55.22 0.237 7.18 0.57 10.5
11/3/2022 5:00:00 PM 12.81 55.058 0.237 7.17 0.6 10.31
11/3/2022 5:15:00 PM 12.71 54.878 0.237 7.16 0.62 10.24
11/3/2022 5:30:00 PM 12.6 54.68 0.237 7.15 0.65 10.1
11/3/2022 5:45:00 PM 12.5 54.5 0.237 7.13 0.62 9.86
11/3/2022 6:00:00 PM 12.42 54.356 0.237 7.11 0.57 9.64
11/3/2022 6:15:00 PM 12.31 54.158 0.237 7.1 0.56 9.57
11/3/2022 6:30:00 PM 12.22 53.996 0.237 7.09 1.01 9.43
11/3/2022 6:45:00 PM 12.13 53.834 0.237 7.08 0.92 9.28
11/3/2022 7:00:00 PM 12.05 53.69 0.237 7.07 0.74 9.15
11/3/2022 7:15:00 PM 11.97 53.546 0.237 7.06 0.93 9.03
11/3/2022 7:30:00 PM 11.86 53.348 0.237 7.05 0.72 8.94
11/3/2022 7:45:00 PM 11.77 53.186 0.237 7.04 0.86 8.83
11/3/2022 8:00:00 PM 11.66 52.988 0.237 7.03 0.73 8.79
11/3/2022 8:15:00 PM 11.59 52.862 0.237 7.03 0.84 8.76
11/3/2022 8:30:00 PM 11.52 52.736 0.237 7.03 0.77 8.73
11/3/2022 8:45:00 PM 11.47 52.646 0.237 7.02 0.89 8.72
11/3/2022 9:00:00 PM 11.41 52.538 0.237 7.02 0.86 8.7
11/3/2022 9:15:00 PM 11.34 52.412 0.237 7.02 0.72 8.68
11/3/2022 9:30:00 PM 11.28 52.304 0.237 7.01 0.69 8.66
11/3/2022 9:45:00 PM 11.23 52.214 0.237 7.01 0.66 8.65
11/3/2022 10:00:00 PM 11.18 52.124 0.237 7.01 0.93 8.66
11/3/2022 10:15:00 PM 11.12 52.016 0.237 7.01 0.7 8.66
11/3/2022 10:30:00 PM 11.09 51.962 0.237 7.01 0.86 8.64
11/3/2022 10:45:00 PM 11.05 51.89 0.237 7.01 0.66 8.64
11/3/2022 11:00:00 PM 11.01 51.818 0.237 7.01 0.76 8.65
11/3/2022 11:15:00 PM 10.95 51.71 0.237 7 0.73 8.65
11/3/2022 11:30:00 PM 10.9 51.62 0.237 7 0.75 8.68
11/3/2022 11:45:00 PM 10.87 51.566 0.237 6.99 1.02 8.66
11/4/2022 12:00:00 AM 10.83 51.494 0.237 7 0.64 8.69
11/4/2022 12:15:00 AM 10.8 51.44 0.237 7 0.66 8.73
11/4/2022 12:30:00 AM 10.77 51.386 0.238 7 0.68 8.72
11/4/2022 12:45:00 AM 10.73 51.314 0.238 7 0.65 8.75
11/4/2022 1:00:00 AM 10.7 51.26 0.238 7 0.65 8.77
11/4/2022 1:15:00 AM 10.66 51.188 0.238 7 0.87 8.75
11/4/2022 1:30:00 AM 10.65 51.17 0.238 7 0.64 8.74
11/4/2022 1:45:00 AM 10.61 51.098 0.238 7 0.83 8.78
11/4/2022 2:00:00 AM 10.59 51.062 0.238 7 0.73 8.77
11/4/2022 2:15:00 AM 10.57 51.026 0.238 7 0.81 8.76
11/4/2022 2:30:00 AM 10.56 51.008 0.238 7 0.69 8.79
11/4/2022 2:45:00 AM 10.54 50.972 0.238 7 0.67 8.78
11/4/2022 3:00:00 AM 10.52 50.936 0.238 7 0.71 8.78
11/4/2022 3:15:00 AM 10.5 50.9 0.238 7 0.68 8.83
11/4/2022 3:30:00 AM 10.49 50.882 0.238 7 0.62 8.8
11/4/2022 3:45:00 AM 10.46 50.828 0.238 7 0.65 8.82
11/4/2022 4:00:00 AM 10.45 50.81 0.238 7.01 0.69 8.84
11/4/2022 4:15:00 AM 10.43 50.774 0.238 7.01 0.7 8.83
11/4/2022 4:30:00 AM 10.43 50.774 0.238 7 0.68 8.84
11/4/2022 4:45:00 AM 10.4 50.72 0.238 7.01 0.69 8.83
11/4/2022 5:00:00 AM 10.4 50.72 0.238 7.01 0.62 8.87
11/4/2022 5:15:00 AM 10.39 50.702 0.238 7.01 0.66 8.86
11/4/2022 5:30:00 AM 10.37 50.666 0.238 7.01 0.74 8.85
11/4/2022 5:45:00 AM 10.36 50.648 0.238 7.01 0.73 8.86
11/4/2022 6:00:00 AM 10.35 50.63 0.238 7.01 0.7 8.86
11/4/2022 6:15:00 AM 10.34 50.612 0.238 7.01 0.8 8.88
11/4/2022 6:30:00 AM 10.31 50.558 0.238 7.01 0.79 8.85
11/4/2022 6:45:00 AM 10.32 50.576 0.238 7.01 0.72 8.87
11/4/2022 7:00:00 AM 10.29 50.522 0.238 7.01 0.68 8.84
11/4/2022 7:15:00 AM 10.29 50.522 0.238 7.01 0.64 8.87
11/4/2022 7:30:00 AM 10.28 50.504 0.238 7.01 1.14 8.84
11/4/2022 7:45:00 AM 10.29 50.522 0.238 7.01 0.94 8.88
11/4/2022 8:00:00 AM 10.3 50.54 0.238 7.01 0.84 8.91
11/4/2022 8:15:00 AM 10.3 50.54 0.238 7.02 0.62 8.96
11/4/2022 8:30:00 AM 10.31 50.558 0.238 7.02 0.6 9.02
11/4/2022 8:45:00 AM 10.34 50.612 0.238 7.03 0.9 9.23
11/4/2022 9:00:00 AM 10.38 50.684 0.238 7.05 0.6 9.39
11/4/2022 9:15:00 AM 10.44 50.792 0.238 7.06 0.66 9.64
11/4/2022 9:30:00 AM 10.49 50.882 0.238 7.07 0.62 9.75
11/4/2022 9:45:00 AM 10.57 51.026 0.238 7.07 1.54 9.94
11/4/2022 10:00:00 AM 10.64 51.152 0.238 7.09 0.7 10.03
11/4/2022 10:15:00 AM 10.7 51.26 0.237 7.1 0.66 10.1
11/4/2022 10:30:00 AM 10.82 51.476 0.237 7.06 0.69 10.3
11/4/2022 10:45:00 AM 10.95 51.71 0.237 7.12 0.62 10.35
11/4/2022 11:00:00 AM 11.08 51.944 0.237 7.13 0.6 10.43
11/4/2022 11:15:00 AM 11.21 52.178 0.237 7.14 0.62 10.53
11/4/2022 11:30:00 AM 11.38 52.484 0.236 7.15 0.7 10.47
11/4/2022 11:45:00 AM 11.51 52.718 0.236 7.15 0.6 10.56
11/4/2022 12:00:00 PM 11.67 53.006 0.236 7.18 0.95 10.93
11/4/2022 12:15:00 PM 11.79 53.222 0.236 7.19 0.65 10.97
11/4/2022 12:30:00 PM 11.94 53.492 0.236 7.2 0.67 11.02
11/4/2022 12:45:00 PM 12.08 53.744 0.236 7.2 0.69 11.08
11/4/2022 1:00:00 PM 12.22 53.996 0.236 7.21 0.64 11.08
11/4/2022 1:15:00 PM 12.39 54.302 0.237 7.22 0.64 11.07
11/4/2022 1:30:00 PM 12.56 54.608 0.237 7.23 0.67 11.1
11/4/2022 1:45:00 PM 12.72 54.896 0.237 7.24 0.63 11.1
11/4/2022 2:00:00 PM 12.86 55.148 0.237 7.23 0.68 11.08
11/4/2022 2:15:00 PM 12.95 55.31 0.237 7.24 0.69 11.12
11/4/2022 2:30:00 PM 13.04 55.472 0.237 7.25 0.66 11.17
11/4/2022 2:45:00 PM 13.12 55.616 0.236 7.25 0.6 11.08
11/4/2022 3:00:00 PM 13.17 55.706 0.236 7.25 0.63 11.04
11/4/2022 3:15:00 PM 13.22 55.796 0.236 7.25 0.83 11.07
11/4/2022 3:30:00 PM 13.22 55.796 0.235 7.25 0.7 11
11/4/2022 3:45:00 PM 13.19 55.742 0.235 7.25 0.75 10.96
11/4/2022 4:00:00 PM 13.17 55.706 0.236 7.24 0.59 10.83
11/4/2022 4:15:00 PM 13.13 55.634 0.236 7.22 0.64 10.71
11/4/2022 4:30:00 PM 13.09 55.562 0.236 7.22 0.72 10.6
11/4/2022 4:45:00 PM 13 55.4 0.236 7.21 0.63 10.53
11/4/2022 5:00:00 PM 12.92 55.256 0.236 7.19 0.63 10.26
11/4/2022 5:15:00 PM 12.82 55.076 0.236 7.18 0.69 10.12
11/4/2022 5:30:00 PM 12.72 54.896 0.236 7.15 0.59 9.87
11/4/2022 5:45:00 PM 12.64 54.752 0.237 7.14 0.77 9.82
11/4/2022 6:00:00 PM 12.56 54.608 0.237 7.13 0.59 9.63
11/4/2022 6:15:00 PM 12.44 54.392 0.237 7.11 0.59 9.41
11/4/2022 6:30:00 PM 12.39 54.302 0.237 7.1 0.63 9.26
11/4/2022 6:45:00 PM 12.29 54.122 0.236 7.08 0.82 9.11
11/4/2022 7:00:00 PM 12.23 54.014 0.236 7.07 0.61 9.01
11/4/2022 7:15:00 PM 12.16 53.888 0.236 7.06 0.65 8.92
11/4/2022 7:30:00 PM 12.08 53.744 0.236 7.05 0.76 8.85
11/4/2022 7:45:00 PM 12.03 53.654 0.236 7.05 0.72 8.77
11/4/2022 8:00:00 PM 11.95 53.51 0.236 7.04 0.75 8.7
11/4/2022 8:15:00 PM 11.87 53.366 0.236 7.04 0.69 8.69
11/4/2022 8:30:00 PM 11.83 53.294 0.236 7.03 0.75 8.68
11/4/2022 8:45:00 PM 11.79 53.222 0.236 7.03 0.67 8.65
11/4/2022 9:00:00 PM 11.72 53.096 0.236 7.03 1.07 8.67
11/4/2022 9:15:00 PM 11.7 53.06 0.236 7.02 0.89 8.65
11/4/2022 9:30:00 PM 11.66 52.988 0.236 7.02 0.66 8.63
11/4/2022 9:45:00 PM 11.64 52.952 0.236 7.02 0.67 8.61
11/4/2022 10:00:00 PM 11.61 52.898 0.236 7.02 0.66 8.61
11/4/2022 10:15:00 PM 11.59 52.862 0.236 7.01 0.82 8.62
11/4/2022 10:30:00 PM 11.57 52.826 0.237 7.02 0.62 8.6
11/4/2022 10:45:00 PM 11.56 52.808 0.237 7.01 0.66 8.58
11/4/2022 11:00:00 PM 11.54 52.772 0.237 7.01 0.67 8.59
11/4/2022 11:15:00 PM 11.52 52.736 0.237 7.01 0.67 8.59
11/4/2022 11:30:00 PM 11.5 52.7 0.237 6.96 0.63 8.59
11/4/2022 11:45:00 PM 11.48 52.664 0.237 7.01 0.69 8.6
11/5/2022 12:00:00 AM 11.47 52.646 0.237 7.01 0.66 8.56
11/5/2022 12:15:00 AM 11.46 52.628 0.237 7.01 0.75 8.52
11/5/2022 12:30:00 AM 11.44 52.592 0.237 7.01 0.65 8.55
11/5/2022 12:45:00 AM 11.43 52.574 0.237 7.01 0.69 8.56
11/5/2022 1:00:00 AM 11.43 52.574 0.237 7.01 0.69 8.55
11/5/2022 1:15:00 AM 11.43 52.574 0.237 7.01 0.72 8.55
11/5/2022 1:30:00 AM 11.42 52.556 0.237 7.01 0.65 8.53
11/5/2022 1:45:00 AM 11.41 52.538 0.237 7.01 0.59 8.53
11/5/2022 2:00:00 AM 11.42 52.556 0.237 7.01 0.69 8.52
11/5/2022 2:15:00 AM 11.41 52.538 0.237 7 1.18 8.49
11/5/2022 2:30:00 AM 11.42 52.556 0.237 7 0.66 8.46
11/5/2022 2:45:00 AM 11.41 52.538 0.238 7 0.62 8.5
11/5/2022 3:00:00 AM 11.42 52.556 0.238 7 0.65 8.48
11/5/2022 3:15:00 AM 11.42 52.556 0.238 7 0.69 8.46
11/5/2022 3:30:00 AM 11.43 52.574 0.238 7 0.66 8.45
11/5/2022 3:45:00 AM 11.44 52.592 0.238 7 0.7 8.46
11/5/2022 4:00:00 AM 11.45 52.61 0.238 7 0.67 8.5
11/5/2022 4:15:00 AM 11.46 52.628 0.238 7 0.7 8.46
11/5/2022 4:30:00 AM 11.47 52.646 0.238 7 0.7 8.47
11/5/2022 4:45:00 AM 11.47 52.646 0.238 7 0.72 8.43
11/5/2022 5:00:00 AM 11.46 52.628 0.238 7 0.93 8.5
11/5/2022 5:15:00 AM 11.46 52.628 0.238 7 0.87 8.48
11/5/2022 5:30:00 AM 11.44 52.592 0.238 7 0.79 8.45
11/5/2022 5:45:00 AM 11.44 52.592 0.238 6.99 0.8 8.46
11/5/2022 6:00:00 AM 11.45 52.61 0.238 7 0.78 8.45
11/5/2022 6:15:00 AM 11.45 52.61 0.238 7 0.77 8.43
11/5/2022 6:30:00 AM 11.46 52.628 0.238 7 0.96 8.46
11/5/2022 6:45:00 AM 11.47 52.646 0.238 7 0.9 8.41
11/5/2022 7:00:00 AM 11.48 52.664 0.238 6.99 0.91 8.42
11/5/2022 7:15:00 AM 11.49 52.682 0.238 6.99 0.88 8.42
11/5/2022 7:30:00 AM 11.5 52.7 0.238 6.99 0.93 8.37
11/5/2022 7:45:00 AM 11.53 52.754 0.238 6.99 1.32 8.43
11/5/2022 8:00:00 AM 11.56 52.808 0.238 6.99 1.1 8.45
11/5/2022 8:15:00 AM 11.61 52.898 0.237 7 2.18 8.49
11/5/2022 8:30:00 AM 11.66 52.988 0.237 7 1.98 8.59
11/5/2022 8:45:00 AM 11.7 53.06 0.238 7.01 0.8 8.64
11/5/2022 9:00:00 AM 11.76 53.168 0.238 7.01 0.66 8.74
11/5/2022 9:15:00 AM 11.81 53.258 0.238 7.02 0.65 8.88
11/5/2022 9:30:00 AM 11.87 53.366 0.238 7.03 0.63 8.95
11/5/2022 9:45:00 AM 11.94 53.492 0.238 7.04 0.6 9.13
11/5/2022 10:00:00 AM 12.02 53.636 0.238 7.05 0.65 9.3
11/5/2022 10:15:00 AM 12.1 53.78 0.238 7.07 0.66 9.54
11/5/2022 10:30:00 AM 12.2 53.96 0.238 7.09 0.65 9.87
11/5/2022 10:45:00 AM 12.28 54.104 0.238 7.1 0.7 9.86
11/5/2022 11:00:00 AM 12.38 54.284 0.238 7.12 0.71 10.17
11/5/2022 11:15:00 AM 12.48 54.464 0.238 7.13 0.66 10.36
11/5/2022 11:30:00 AM 12.57 54.626 0.238 7.15 0.67 10.54
11/5/2022 11:45:00 AM 12.66 54.788 0.238 7.16 0.62 10.57
11/5/2022 12:00:00 PM 12.76 54.968 0.237 7.18 0.64 10.79
11/5/2022 12:15:00 PM 12.84 55.112 0.237 7.18 0.68 10.82
11/5/2022 12:30:00 PM 12.89 55.202 0.237 7.18 0.7 10.66
11/5/2022 12:45:00 PM 12.94 55.292 0.237 7.2 3.25 10.81
11/5/2022 1:00:00 PM 12.98 55.364 0.237 7.2 4.62 10.83
11/5/2022 1:15:00 PM 13.03 55.454 0.237 7.2 4.34 10.76
11/5/2022 1:30:00 PM 13.06 55.508 0.237 7.19 3.07 10.67
11/5/2022 1:45:00 PM 13.09 55.562 0.237 7.2 2.09 10.65
11/5/2022 2:00:00 PM 13.11 55.598 0.237 7.19 1.75 10.61
11/5/2022 2:15:00 PM 13.11 55.598 0.237 7.19 1.91 10.54
11/5/2022 2:30:00 PM 13.11 55.598 0.237 7.17 1.97 10.4
11/5/2022 2:45:00 PM 13.1 55.58 0.237 7.17 2.33 10.26
11/5/2022 3:00:00 PM 13.08 55.544 0.237 7.16 1.9 10.15
11/5/2022 3:15:00 PM 13.07 55.526 0.237 7.15 3.46 10.07
11/5/2022 3:30:00 PM 13.05 55.49 0.237 7.15 1.75 9.98
11/5/2022 3:45:00 PM 13.03 55.454 0.237 7.14 1.31 9.91
11/5/2022 4:00:00 PM 13.02 55.436 0.237 7.13 1.35 9.86
11/5/2022 4:15:00 PM 13 55.4 0.237 7.13 1 9.77
11/5/2022 4:30:00 PM 12.96 55.328 0.237 7.12 0.92 9.66
11/5/2022 4:45:00 PM 12.93 55.274 0.236 7.11 2.17 9.52
11/5/2022 5:00:00 PM 12.92 55.256 0.236 7.1 0.81 9.47
11/5/2022 5:15:00 PM 12.89 55.202 0.236 7.1 0.97 9.38
11/5/2022 5:30:00 PM 12.86 55.148 0.236 7.09 0.79 9.31
11/5/2022 5:45:00 PM 12.85 55.13 0.236 7.08 0.73 9.2
11/5/2022 6:00:00 PM 12.82 55.076 0.237 7.07 1.04 9.08
11/5/2022 6:15:00 PM 12.79 55.022 0.237 7.06 0.69 8.9
11/5/2022 6:30:00 PM 12.76 54.968 0.237 7.05 0.69 8.78
11/5/2022 6:45:00 PM 12.72 54.896 0.237 7.04 0.74 8.71
11/5/2022 7:00:00 PM 12.67 54.806 0.237 7.04 0.78 8.61
11/5/2022 7:15:00 PM 12.64 54.752 0.236 7.03 0.78 8.53
11/5/2022 7:30:00 PM 12.61 54.698 0.237 7.03 0.78 8.5
11/5/2022 7:45:00 PM 12.58 54.644 0.237 7.03 0.7 8.45
11/5/2022 8:00:00 PM 12.57 54.626 0.237 7.02 1.01 8.43
11/5/2022 8:15:00 PM 12.55 54.59 0.237 7.02 0.69 8.41
11/5/2022 8:30:00 PM 12.54 54.572 0.237 7.02 0.67 8.37
11/5/2022 8:45:00 PM 12.53 54.554 0.237 7.02 0.65 8.36
11/5/2022 9:00:00 PM 12.52 54.536 0.238 7.02 0.66 8.32
11/5/2022 9:15:00 PM 12.5 54.5 0.238 7.01 0.69 8.32
11/5/2022 9:30:00 PM 12.49 54.482 0.238 7.01 0.67 8.29
11/5/2022 9:45:00 PM 12.47 54.446 0.238 7.01 0.77 8.29
11/5/2022 10:00:00 PM 12.46 54.428 0.238 7.01 0.83 8.31
11/5/2022 10:15:00 PM 12.45 54.41 0.237 7.01 0.76 8.3
11/5/2022 10:30:00 PM 12.44 54.392 0.237 7.01 0.71 8.27
11/5/2022 10:45:00 PM 12.43 54.374 0.237 7.01 0.76 8.26
11/5/2022 11:00:00 PM 12.42 54.356 0.237 7.01 0.63 8.27
11/5/2022 11:15:00 PM 12.42 54.356 0.238 7.01 0.7 8.27
11/5/2022 11:30:00 PM 12.41 54.338 0.238 7 0.92 8.26
11/5/2022 11:45:00 PM 12.41 54.338 0.237 7 0.69 8.26
11/6/2022 12:00:00 AM 12.42 54.356 0.237 7 0.94 8.25
11/6/2022 12:15:00 AM 12.42 54.356 0.238 7 0.87 8.24
11/6/2022 12:30:00 AM 12.42 54.356 0.238 7 0.64 8.23
11/6/2022 12:45:00 AM 12.42 54.356 0.238 7 0.7 8.23
11/6/2022 1:00:00 AM 12.43 54.374 0.237 7 0.7 8.22
11/6/2022 1:15:00 AM 12.44 54.392 0.237 7 0.67 8.19
11/6/2022 1:30:00 AM 12.46 54.428 0.238 7 0.72 8.16
11/6/2022 1:45:00 AM 12.47 54.446 0.238 7 0.66 8.17
11/6/2022 2:00:00 AM 12.49 54.482 0.238 7 0.68 8.21
11/6/2022 2:15:00 AM 12.5 54.5 0.238 7 0.83 8.18
11/6/2022 2:30:00 AM 12.51 54.518 0.238 7 0.66 8.18
11/6/2022 2:45:00 AM 12.52 54.536 0.238 7 1.23 8.19
11/6/2022 3:00:00 AM 12.54 54.572 0.238 7 0.85 8.18
11/6/2022 3:15:00 AM 12.56 54.608 0.238 7 0.83 8.17
11/6/2022 3:30:00 AM 12.56 54.608 0.238 7 0.87 8.13
11/6/2022 3:45:00 AM 12.57 54.626 0.238 7 0.94 8.1
11/6/2022 4:00:00 AM 12.57 54.626 0.239 7 0.81 8.14
11/6/2022 4:15:00 AM 12.6 54.68 0.238 7 0.77 8.09
11/6/2022 4:30:00 AM 12.62 54.716 0.237 6.99 0.69 8.07
11/6/2022 4:45:00 AM 12.63 54.734 0.237 6.99 0.68 8.04
11/6/2022 5:00:00 AM 12.64 54.752 0.237 6.99 0.86 8.04
11/6/2022 5:15:00 AM 12.65 54.77 0.237 6.99 0.81 8.05
11/6/2022 5:30:00 AM 12.66 54.788 0.238 6.99 0.92 8.06
11/6/2022 5:45:00 AM 12.66 54.788 0.238 6.99 0.84 8.03
11/6/2022 6:00:00 AM 12.66 54.788 0.239 6.99 0.86 8.05
11/6/2022 6:15:00 AM 12.66 54.788 0.239 6.99 0.9 8.05
11/6/2022 6:30:00 AM 12.63 54.734 0.239 6.99 0.86 8.07
11/6/2022 6:45:00 AM 12.62 54.716 0.239 6.99 1.13 8.01
11/6/2022 7:00:00 AM 12.6 54.68 0.239 6.98 0.76 7.94
11/6/2022 7:15:00 AM 12.6 54.68 0.239 6.99 0.96 7.93
11/6/2022 7:30:00 AM 12.61 54.698 0.238 6.99 1.64 8.03
11/6/2022 7:45:00 AM 12.61 54.698 0.238 6.99 0.81 8.08
11/6/2022 8:00:00 AM 12.62 54.716 0.238 6.99 0.79 8.08
11/6/2022 8:15:00 AM 12.64 54.752 0.238 6.99 0.92 8.13
11/6/2022 8:30:00 AM 12.66 54.788 0.238 7 0.71 8.14
11/6/2022 8:45:00 AM 12.69 54.842 0.238 7 0.71 8.38
11/6/2022 9:00:00 AM 12.72 54.896 0.238 7.01 0.97 8.36
11/6/2022 9:15:00 AM 12.75 54.95 0.238 7.01 0.74 8.52
11/6/2022 9:30:00 AM 12.81 55.058 0.238 7.03 0.88 8.6
11/6/2022 9:45:00 AM 12.88 55.184 0.238 7.04 0.63 9.03
11/6/2022 10:00:00 AM 12.99 55.382 0.238 7.07 0.74 9.44
11/6/2022 10:15:00 AM 13.08 55.544 0.238 7.1 0.8 9.84
11/6/2022 10:30:00 AM 13.17 55.706 0.238 7.11 0.81 9.93
11/6/2022 10:45:00 AM 13.24 55.832 0.238 7.13 0.69 10.19
11/6/2022 11:00:00 AM 13.32 55.976 0.238 7.14 1.84 10.31
11/6/2022 11:15:00 AM 13.38 56.084 0.238 7.15 0.95 10.29
11/6/2022 11:30:00 AM 13.46 56.228 0.238 7.16 0.7 10.41
11/6/2022 11:45:00 AM 13.54 56.372 0.238 7.18 1.05 10.59
11/6/2022 12:00:00 PM 13.62 56.516 0.238 7.19 0.72 10.76
11/6/2022 12:15:00 PM 13.73 56.714 0.238 7.2 0.94 10.79
11/6/2022 12:30:00 PM 13.86 56.948 0.238 7.21 1.07 10.9
11/6/2022 12:45:00 PM 14.02 57.236 0.238 7.19 0.67 10.67
11/6/2022 1:00:00 PM 14.12 57.416 0.238 7.21 0.65 10.73
11/6/2022 1:15:00 PM 14.19 57.542 0.238 7.21 0.73 10.79
11/6/2022 1:30:00 PM 14.24 57.632 0.238 7.21 1.46 10.71
11/6/2022 1:45:00 PM 14.3 57.74 0.238 7.21 0.76 10.66
11/6/2022 2:00:00 PM 14.35 57.83 0.238 7.22 0.74 10.69
11/6/2022 2:15:00 PM 14.4 57.92 0.238 7.2 0.72 10.71
11/6/2022 2:30:00 PM 14.43 57.974 0.238 7.22 0.8 10.65
11/6/2022 2:45:00 PM 14.43 57.974 0.238 7.22 2 10.62
11/6/2022 3:00:00 PM 14.41 57.938 0.237 7.22 3.38 10.52
11/6/2022 3:15:00 PM 14.32 57.776 0.237 7.21 1.96 10.34
11/6/2022 3:30:00 PM 14.26 57.668 0.237 7.18 2.66 10.19
11/6/2022 3:45:00 PM 14.18 57.524 0.238 7.17 1.81 9.93
11/6/2022 4:00:00 PM 14.1 57.38 0.239 7.16 1.28 9.81
11/6/2022 4:15:00 PM 14.02 57.236 0.239 7.15 0.93 9.67
11/6/2022 4:30:00 PM 13.96 57.128 0.239 7.13 1.38 9.49
11/6/2022 4:45:00 PM 13.87 56.966 0.239 7.12 0.9 9.29
11/6/2022 5:00:00 PM 13.8 56.84 0.238 7.1 0.83 9.13
11/6/2022 5:15:00 PM 13.74 56.732 0.238 7.09 0.85 8.96
11/6/2022 5:30:00 PM 13.67 56.606 0.238 7.08 0.88 8.76
11/6/2022 5:45:00 PM 13.58 56.444 0.238 7.06 0.99 8.59
11/6/2022 6:00:00 PM 13.53 56.354 0.238 7.05 0.84 8.45
11/6/2022 6:15:00 PM 13.49 56.282 0.238 7.04 0.84 8.36
11/6/2022 6:30:00 PM 13.44 56.192 0.238 7.04 0.87 8.24
11/6/2022 6:45:00 PM 13.4 56.12 0.237 7.03 0.78 8.24
11/6/2022 7:00:00 PM 13.34 56.012 0.237 7.02 0.8 8.2
11/6/2022 7:15:00 PM 13.29 55.922 0.237 7.02 0.69 8.18
11/6/2022 7:30:00 PM 13.28 55.904 0.237 7.02 0.92 8.12
11/6/2022 7:45:00 PM 13.24 55.832 0.237 7.02 0.91 8.13
11/6/2022 8:00:00 PM 13.22 55.796 0.237 7.02 0.77 8.11
11/6/2022 8:15:00 PM 13.19 55.742 0.238 7.01 0.79 8.05
11/6/2022 8:30:00 PM 13.16 55.688 0.238 7.01 0.74 8.09
11/6/2022 8:45:00 PM 13.13 55.634 0.238 7.01 0.87 8.05
11/6/2022 9:00:00 PM 13.1 55.58 0.238 7.01 0.87 8.05
11/6/2022 9:15:00 PM 13.09 55.562 0.238 7.01 0.8 8.06
11/6/2022 9:30:00 PM 13.08 55.544 0.238 7 0.84 8.07
11/6/2022 9:45:00 PM 13.06 55.508 0.237 7 0.78 8.03
11/6/2022 10:00:00 PM 13.06 55.508 0.237 7 0.9 8.05
11/6/2022 10:15:00 PM 13.07 55.526 0.237 7 0.73 8.05
11/6/2022 10:30:00 PM 13.08 55.544 0.237 7 0.79 7.95
11/6/2022 10:45:00 PM 13.14 55.652 0.235 7.01 0.8 7.98
11/6/2022 11:00:00 PM 13.26 55.868 0.233 7.03 1 8.21
11/6/2022 11:15:00 PM 13.25 55.85 0.233 7.03 1.1 8.22
11/6/2022 11:30:00 PM 13.26 55.868 0.232 7.03 1.37 8.22
11/6/2022 11:45:00 PM 13.26 55.868 0.232 7.03 0.94 8.19
11/7/2022 12:00:00 AM 13.25 55.85 0.232 7.02 0.98 8.14
11/7/2022 12:15:00 AM 13.24 55.832 0.232 7.02 0.92 8.11
11/7/2022 12:30:00 AM 13.24 55.832 0.232 7.01 1.03 8.1
11/7/2022 12:45:00 AM 13.25 55.85 0.232 7.02 1.09 8.12
11/7/2022 1:00:00 AM 13.25 55.85 0.232 7.01 0.88 8.09
11/7/2022 1:15:00 AM 13.25 55.85 0.232 7.01 1 8.06
11/7/2022 1:30:00 AM 13.24 55.832 0.232 7.01 1.05 8.09
11/7/2022 1:45:00 AM 13.23 55.814 0.232 7.01 1.18 8.08
11/7/2022 2:00:00 AM 13.22 55.796 0.232 7.02 0.99 8.11
11/7/2022 2:15:00 AM 13.2 55.76 0.232 7.02 1.59 8.15
11/7/2022 2:30:00 AM 13.2 55.76 0.232 7.02 0.95 8.11
11/7/2022 2:45:00 AM 13.19 55.742 0.231 7.03 0.98 8.17
11/7/2022 3:00:00 AM 13.18 55.724 0.232 7 5.71 7.37
11/7/2022 3:15:00 AM 13.17 55.706 0.232 7.02 4.13 7.21
11/7/2022 3:30:00 AM 13.16 55.688 0.232 7.01 5.39 7.52
11/7/2022 3:45:00 AM 13.14 55.652 0.231 7.01 3.43 7.45
11/7/2022 4:00:00 AM 13.12 55.616 0.232 7 3.42 7.61
11/7/2022 4:15:00 AM 13.1 55.58 0.232 7.01 2.99 7.9
11/7/2022 4:30:00 AM 13.06 55.508 0.232 7.02 3.51 8.1
11/7/2022 4:45:00 AM 13.02 55.436 0.232 7.02 3.45 8.1
11/7/2022 5:00:00 AM 12.98 55.364 0.231 7.03 0.87 8.22
11/7/2022 5:15:00 AM 12.93 55.274 0.231 7.03 0.94 8.18
11/7/2022 5:30:00 AM 12.89 55.202 0.231 7.03 0.9 8.27
11/7/2022 5:45:00 AM 12.84 55.112 0.231 7.04 0.98 8.29
11/7/2022 6:00:00 AM 12.79 55.022 0.23 7.05 1.89 8.42
11/7/2022 6:15:00 AM 13.07 55.526 0.216 7.21 9.52 9.16
11/7/2022 6:30:00 AM 13.13 55.634 0.211 7.24 12.45 9.29
11/7/2022 6:45:00 AM 13.13 55.634 0.209 7.24 7.99 9.32
11/7/2022 7:00:00 AM 13.19 55.742 0.203 7.26 8.98 9.39
11/7/2022 7:15:00 AM 13.26 55.868 0.199 7.29 8.24 9.47
11/7/2022 7:30:00 AM 13.3 55.94 0.197 7.3 6.45 9.53
11/7/2022 7:45:00 AM 13.32 55.976 0.196 7.3 6.86 9.55
11/7/2022 8:00:00 AM 13.33 55.994 0.196 7.31 7.67 9.59
11/7/2022 8:15:00 AM 13.35 56.03 0.196 7.31 10.46 9.64
11/7/2022 8:30:00 AM 13.37 56.066 0.196 7.32 8.51 9.7
11/7/2022 8:45:00 AM 13.4 56.12 0.195 7.32 8.87 9.75
11/7/2022 9:00:00 AM 13.43 56.174 0.195 7.31 8.99 9.81
11/7/2022 9:15:00 AM 13.46 56.228 0.195 7.33 9.24 9.85
11/7/2022 9:30:00 AM 13.5 56.3 0.195 7.34 8.37 9.9
11/7/2022 9:45:00 AM 13.55 56.39 0.194 7.35 10.3 9.94
11/7/2022 10:00:00 AM 13.6 56.48 0.194 7.35 9.81 9.96
11/7/2022 10:15:00 AM 13.66 56.588 0.193 7.34 9.88 10
11/7/2022 10:30:00 AM 13.72 56.696 0.192 7.36 10.59 10.02
11/7/2022 10:45:00 AM 13.79 56.822 0.192 7.34 10.76 10.03
11/7/2022 11:00:00 AM 13.87 56.966 0.192 7.36 10.75 10.04
11/7/2022 11:15:00 AM 13.95 57.11 0.191 7.36 10.76 10.05
11/7/2022 11:30:00 AM 14.04 57.272 0.191 7.37 10.66 10.07
11/7/2022 11:45:00 AM 14.14 57.452 0.19 7.37 10.42 10.08
11/7/2022 12:00:00 PM 14.24 57.632 0.19 7.37 10.25 10.05
11/7/2022 12:15:00 PM 14.33 57.794 0.19 7.35 9.95 10.06
11/7/2022 12:30:00 PM 14.41 57.938 0.19 7.37 9.5 10.05
11/7/2022 12:45:00 PM 14.49 58.082 0.189 7.38 9.36 10.04
11/7/2022 1:00:00 PM 14.58 58.244 0.189 7.36 9.46 10.03
11/7/2022 1:15:00 PM 14.67 58.406 0.189 7.36 8.92 10
11/7/2022 1:30:00 PM 14.73 58.514 0.189 7.38 9.09 9.99
11/7/2022 1:45:00 PM 14.77 58.586 0.189 7.38 7.9 9.97
11/7/2022 2:00:00 PM 14.8 58.64 0.189 7.38 7.98 9.96
11/7/2022 2:15:00 PM 14.82 58.676 0.189 7.36 7.48 9.92
11/7/2022 2:30:00 PM 14.81 58.658 0.189 7.38 7.71 9.92
11/7/2022 2:45:00 PM 14.75 58.55 0.189 7.37 6.42 9.87
11/7/2022 3:00:00 PM 14.69 58.442 0.189 7.37 6.96 9.82
11/7/2022 3:15:00 PM 14.63 58.334 0.189 7.36 6.42 9.79
11/7/2022 3:30:00 PM 14.52 58.136 0.189 7.35 6.07 9.75
11/7/2022 3:45:00 PM 14.42 57.956 0.189 7.34 6.14 9.69
11/7/2022 4:00:00 PM 14.31 57.758 0.189 7.33 6.35 9.65
11/7/2022 4:15:00 PM 14.17 57.506 0.189 7.3 5.55 9.61
11/7/2022 4:30:00 PM 14.03 57.254 0.19 7.29 5.64 9.55
11/7/2022 4:45:00 PM 13.89 57.002 0.19 7.28 5.19 9.52
11/7/2022 5:00:00 PM 13.75 56.75 0.19 7.26 5.56 9.47
11/7/2022 5:15:00 PM 13.61 56.498 0.19 7.28 5.42 9.44
11/7/2022 5:30:00 PM 13.47 56.246 0.19 7.27 9.51 9.44
11/7/2022 5:45:00 PM 13.35 56.03 0.19 7.24 5.29 9.42
11/7/2022 6:00:00 PM 13.25 55.85 0.19 7.25 4.61 9.4
11/7/2022 6:15:00 PM 13.14 55.652 0.19 7.25 4.19 9.41
11/7/2022 6:30:00 PM 13.04 55.472 0.19 7.24 4.05 9.42
11/7/2022 6:45:00 PM 12.95 55.31 0.19 7.24 4.03 9.43
11/7/2022 7:00:00 PM 12.86 55.148 0.191 7.24 3.93 9.44
11/7/2022 7:15:00 PM 12.79 55.022 0.191 7.23 3.7 9.44
11/7/2022 7:30:00 PM 12.71 54.878 0.191 7.23 3.71 9.46
11/7/2022 7:45:00 PM 12.62 54.716 0.191 7.23 3.98 9.48
11/7/2022 8:00:00 PM 12.54 54.572 0.191 7.22 3.56 9.49
11/7/2022 8:15:00 PM 12.47 54.446 0.191 7.22 3.58 9.51
11/7/2022 8:30:00 PM 12.38 54.284 0.191 7.22 3.58 9.53
11/7/2022 8:45:00 PM 12.31 54.158 0.192 7.22 3.26 9.56
11/7/2022 9:00:00 PM 12.24 54.032 0.192 7.21 3.24 9.56
11/7/2022 9:15:00 PM 12.16 53.888 0.192 7.21 2.95 9.59
11/7/2022 9:30:00 PM 12.1 53.78 0.192 7.19 3.38 9.6
11/7/2022 9:45:00 PM 12.03 53.654 0.192 7.19 2.77 9.6
11/7/2022 10:00:00 PM 11.96 53.528 0.192 7.19 2.73 9.62
11/7/2022 10:15:00 PM 11.9 53.42 0.192 7.19 2.81 9.64
11/7/2022 10:30:00 PM 11.84 53.312 0.192 7.19 3.04 9.65
11/7/2022 10:45:00 PM 11.79 53.222 0.193 7.19 2.63 9.67
11/7/2022 11:00:00 PM 11.74 53.132 0.193 7.18 2.47 9.67
11/7/2022 11:15:00 PM 11.7 53.06 0.193 7.18 2.44 9.7
11/7/2022 11:30:00 PM 11.66 52.988 0.193 7.18 2.56 9.7
11/7/2022 11:45:00 PM 11.62 52.916 0.193 7.18 2.31 9.72
11/8/2022 12:00:00 AM 11.58 52.844 0.193 7.18 2.29 9.72
11/8/2022 12:15:00 AM 11.54 52.772 0.193 7.16 3.15 9.74
11/8/2022 12:30:00 AM 11.49 52.682 0.193 7.18 2.33 9.75
11/8/2022 12:45:00 AM 11.44 52.592 0.193 7.18 2.29 9.76
11/8/2022 1:00:00 AM 11.4 52.52 0.194 7.18 2.29 9.77
11/8/2022 1:15:00 AM 11.35 52.43 0.194 7.17 2.33 9.78
11/8/2022 1:30:00 AM 11.3 52.34 0.194 7.17 2.25 9.79
11/8/2022 1:45:00 AM 11.25 52.25 0.194 7.17 2.34 9.8
11/8/2022 2:00:00 AM 11.21 52.178 0.194 7.17 2.22 9.81
11/8/2022 2:15:00 AM 11.16 52.088 0.194 7.17 1.97 9.83
11/8/2022 2:30:00 AM 11.12 52.016 0.194 7.17 2.23 9.84
11/8/2022 2:45:00 AM 11.09 51.962 0.194 7.17 2.09 9.84
11/8/2022 3:00:00 AM 11.04 51.872 0.194 7.17 2.21 9.86
11/8/2022 3:15:00 AM 11.01 51.818 0.194 7.17 2.25 9.88
11/8/2022 3:30:00 AM 10.96 51.728 0.195 7.17 1.98 9.89
11/8/2022 3:45:00 AM 10.92 51.656 0.195 7.17 1.93 9.88
11/8/2022 4:00:00 AM 10.88 51.584 0.195 7.17 2.04 9.9
11/8/2022 4:15:00 AM 10.83 51.494 0.195 7.17 1.94 9.92
11/8/2022 4:30:00 AM 10.79 51.422 0.195 7.17 1.87 9.92
11/8/2022 4:45:00 AM 10.75 51.35 0.195 7.17 2.13 9.94
11/8/2022 5:00:00 AM 10.71 51.278 0.195 7.17 1.87 9.95
11/8/2022 5:15:00 AM 10.67 51.206 0.195 7.17 1.93 9.95
11/8/2022 5:30:00 AM 10.63 51.134 0.195 7.17 1.75 9.98
11/8/2022 5:45:00 AM 10.6 51.08 0.195 7.17 1.96 9.97
11/8/2022 6:00:00 AM 10.56 51.008 0.195 7.17 1.82 9.99
11/8/2022 6:15:00 AM 10.55 50.99 0.195 7.17 1.83 9.99
11/8/2022 6:30:00 AM 10.55 50.99 0.196 7.17 1.85 10
11/8/2022 6:45:00 AM 10.55 50.99 0.196 7.17 1.82 10.01
11/8/2022 7:00:00 AM 10.53 50.954 0.196 7.17 1.39 10.02
11/8/2022 7:15:00 AM 10.54 50.972 0.196 7.17 1.35 10.02
11/8/2022 7:30:00 AM 10.54 50.972 0.196 7.18 1.33 10.08
11/8/2022 7:45:00 AM 10.55 50.99 0.196 7.18 1.55 10.11
11/8/2022 8:00:00 AM 10.55 50.99 0.196 7.19 1.52 10.15
11/8/2022 8:15:00 AM 10.56 51.008 0.196 7.2 2.81 10.22
11/8/2022 8:30:00 AM 10.58 51.044 0.196 7.21 1.23 10.27
11/8/2022 8:45:00 AM 10.6 51.08 0.196 7.22 1.24 10.36
11/8/2022 9:00:00 AM 10.64 51.152 0.196 7.23 1.29 10.44
11/8/2022 9:15:00 AM 10.68 51.224 0.196 7.24 1.18 10.49
11/8/2022 9:30:00 AM 10.71 51.278 0.196 7.25 1.15 10.56
11/8/2022 9:45:00 AM 10.81 51.458 0.197 7.26 1.2 10.62
11/8/2022 10:00:00 AM 10.92 51.656 0.197 7.27 1.19 10.69
11/8/2022 10:15:00 AM 11.01 51.818 0.197 7.28 1.12 10.74
11/8/2022 10:30:00 AM 11.15 52.07 0.197 7.28 1.07 10.76
11/8/2022 10:45:00 AM 11.27 52.286 0.197 7.29 1.08 10.78
11/8/2022 11:00:00 AM 11.39 52.502 0.197 7.3 1.3 10.77
11/8/2022 11:15:00 AM 11.5 52.7 0.197 7.31 1.28 10.78
11/8/2022 11:30:00 AM 11.62 52.916 0.197 7.31 1.1 10.79
11/8/2022 11:45:00 AM 11.74 53.132 0.197 7.32 1.05 10.77
11/8/2022 12:00:00 PM 11.86 53.348 0.197 7.32 1.09 10.71
11/8/2022 12:15:00 PM 11.97 53.546 0.197 7.32 1.1 10.71
11/8/2022 12:30:00 PM 12.11 53.798 0.197 7.33 1 10.74
11/8/2022 12:45:00 PM 12.23 54.014 0.197 7.33 1.02 10.73
11/8/2022 1:00:00 PM 12.32 54.176 0.197 7.34 1.13 10.7
11/8/2022 1:15:00 PM 12.41 54.338 0.197 7.34 1.06 10.69
11/8/2022 1:30:00 PM 12.45 54.41 0.198 7.34 1.05 10.64
11/8/2022 1:45:00 PM 12.51 54.518 0.198 7.34 1.12 10.64
11/8/2022 2:00:00 PM 12.55 54.59 0.198 7.34 0.98 10.6
11/8/2022 2:15:00 PM 12.56 54.608 0.198 7.34 0.95 10.61
11/8/2022 2:30:00 PM 12.54 54.572 0.198 7.34 0.92 10.58
11/8/2022 2:45:00 PM 12.49 54.482 0.198 7.33 0.95 10.55
11/8/2022 3:00:00 PM 12.46 54.428 0.198 7.33 0.93 10.5
11/8/2022 3:15:00 PM 12.41 54.338 0.198 7.32 0.97 10.45
11/8/2022 3:30:00 PM 12.35 54.23 0.198 7.32 1.2 10.43
11/8/2022 3:45:00 PM 12.27 54.086 0.198 7.31 0.92 10.36
11/8/2022 4:00:00 PM 12.17 53.906 0.198 7.3 1.33 10.31
11/8/2022 4:15:00 PM 12.07 53.726 0.198 7.29 0.97 10.25
11/8/2022 4:30:00 PM 11.96 53.528 0.198 7.29 0.92 10.2
11/8/2022 4:45:00 PM 11.88 53.384 0.198 7.28 1.06 10.14
11/8/2022 5:00:00 PM 11.78 53.204 0.198 7.26 1.06 10.1
11/8/2022 5:15:00 PM 11.67 53.006 0.199 7.25 0.94 10.03
11/8/2022 5:30:00 PM 11.58 52.844 0.199 7.24 0.99 9.98
11/8/2022 5:45:00 PM 11.49 52.682 0.199 7.23 1.12 9.93
11/8/2022 6:00:00 PM 11.41 52.538 0.199 7.23 0.97 9.92
11/8/2022 6:15:00 PM 11.31 52.358 0.199 7.22 0.99 9.89
11/8/2022 6:30:00 PM 11.23 52.214 0.199 7.21 0.94 9.86
11/8/2022 6:45:00 PM 11.14 52.052 0.199 7.21 1 9.88
11/8/2022 7:00:00 PM 11.06 51.908 0.199 7.2 0.99 9.88
11/8/2022 7:15:00 PM 10.99 51.782 0.199 7.19 1.1 9.87
11/8/2022 7:30:00 PM 10.91 51.638 0.2 7.18 1.04 9.89
11/8/2022 7:45:00 PM 10.85 51.53 0.2 7.17 0.96 9.89
11/8/2022 8:00:00 PM 10.78 51.404 0.2 7.18 1.08 9.9
11/8/2022 8:15:00 PM 10.71 51.278 0.2 7.17 1.09 9.92
11/8/2022 8:30:00 PM 10.66 51.188 0.2 7.17 0.92 9.93
11/8/2022 8:45:00 PM 10.6 51.08 0.2 7.16 0.96 9.94
11/8/2022 9:00:00 PM 10.54 50.972 0.2 7.16 1 9.95
11/8/2022 9:15:00 PM 10.48 50.864 0.2 7.16 0.95 9.95
11/8/2022 9:30:00 PM 10.43 50.774 0.2 7.16 0.96 9.99
11/8/2022 9:45:00 PM 10.38 50.684 0.2 7.16 0.93 9.98
11/8/2022 10:00:00 PM 10.32 50.576 0.2 7.16 0.96 10.02
11/8/2022 10:15:00 PM 10.27 50.486 0.2 7.16 0.94 10
11/8/2022 10:30:00 PM 10.22 50.396 0.2 7.15 0.9 10.03
11/8/2022 10:45:00 PM 10.16 50.288 0.2 7.15 0.91 10.04
11/8/2022 11:00:00 PM 10.12 50.216 0.2 7.1 0.91 10.06
11/8/2022 11:15:00 PM 10.07 50.126 0.201 7.15 0.89 10.06
11/8/2022 11:30:00 PM 10.02 50.036 0.201 7.15 1.03 10.07
11/8/2022 11:45:00 PM 9.97 49.946 0.201 7.15 0.94 10.09
11/9/2022 12:00:00 AM 9.93 49.874 0.201 7.15 1 10.09
11/9/2022 12:15:00 AM 9.88 49.784 0.201 7.15 0.87 10.11
11/9/2022 12:30:00 AM 9.84 49.712 0.201 7.15 0.91 10.11
11/9/2022 12:45:00 AM 9.8 49.64 0.201 7.15 0.94 10.11
11/9/2022 1:00:00 AM 9.76 49.568 0.201 7.11 0.91 10.14
11/9/2022 1:15:00 AM 9.72 49.496 0.201 7.15 0.91 10.14
11/9/2022 1:30:00 AM 9.68 49.424 0.201 7.15 1.02 10.16
11/9/2022 1:45:00 AM 9.64 49.352 0.201 7.15 0.95 10.16
11/9/2022 2:00:00 AM 9.6 49.28 0.201 7.15 1 10.17
11/9/2022 2:15:00 AM 9.56 49.208 0.202 7.15 0.79 10.18
11/9/2022 2:30:00 AM 9.53 49.154 0.202 7.15 0.84 10.19
11/9/2022 2:45:00 AM 9.5 49.1 0.202 7.15 0.93 10.18
11/9/2022 3:00:00 AM 9.46 49.028 0.202 7.15 0.86 10.18
11/9/2022 3:15:00 AM 9.42 48.956 0.202 7.15 0.84 10.19
11/9/2022 3:30:00 AM 9.37 48.866 0.202 7.15 0.8 10.2
11/9/2022 3:45:00 AM 9.34 48.812 0.202 7.15 0.92 10.22
11/9/2022 4:00:00 AM 9.31 48.758 0.202 7.15 0.88 10.22
11/9/2022 4:15:00 AM 9.28 48.704 0.202 7.15 0.93 10.24
11/9/2022 4:30:00 AM 9.24 48.632 0.202 7.15 0.95 10.24
11/9/2022 4:45:00 AM 9.21 48.578 0.202 7.15 0.93 10.24
11/9/2022 5:00:00 AM 9.17 48.506 0.202 7.15 1 10.24
11/9/2022 5:15:00 AM 9.14 48.452 0.202 7.15 0.88 10.26
11/9/2022 5:30:00 AM 9.12 48.416 0.202 7.15 0.87 10.26
11/9/2022 5:45:00 AM 9.08 48.344 0.203 7.15 1.07 10.27
11/9/2022 6:00:00 AM 9.04 48.272 0.203 7.15 0.83 10.27
11/9/2022 6:15:00 AM 9.02 48.236 0.203 7.15 0.88 10.29
11/9/2022 6:30:00 AM 8.98 48.164 0.203 7.15 0.89 10.29
11/9/2022 6:45:00 AM 8.95 48.11 0.203 7.15 1.49 10.3
11/9/2022 7:00:00 AM 8.93 48.074 0.203 7.16 1.37 10.33
11/9/2022 7:15:00 AM 8.9 48.02 0.203 7.15 0.96 10.34
11/9/2022 7:30:00 AM 8.88 47.984 0.203 7.16 0.93 10.39
11/9/2022 7:45:00 AM 8.89 48.002 0.203 7.17 0.89 10.43
11/9/2022 8:00:00 AM 8.87 47.966 0.203 7.17 0.9 10.47
11/9/2022 8:15:00 AM 8.88 47.984 0.203 7.18 0.82 10.54
11/9/2022 8:30:00 AM 8.92 48.056 0.203 7.19 0.85 10.64
11/9/2022 8:45:00 AM 8.97 48.146 0.203 7.2 0.85 10.69
11/9/2022 9:00:00 AM 9 48.2 0.203 7.21 0.75 10.76
11/9/2022 9:15:00 AM 9.06 48.308 0.203 7.22 0.79 10.85
11/9/2022 9:30:00 AM 9.14 48.452 0.203 7.22 0.82 10.89
11/9/2022 9:45:00 AM 9.28 48.704 0.203 7.23 0.82 10.99
11/9/2022 10:00:00 AM 9.39 48.902 0.203 7.24 0.8 11.01
11/9/2022 10:15:00 AM 9.53 49.154 0.203 7.24 3.85 11.03
11/9/2022 10:30:00 AM 9.66 49.388 0.203 7.25 0.76 11.09
11/9/2022 10:45:00 AM 9.82 49.676 0.203 7.26 0.75 11.12
11/9/2022 11:00:00 AM 9.96 49.928 0.203 7.27 0.96 11.11
11/9/2022 11:15:00 AM 10.13 50.234 0.203 7.28 0.75 11.14
11/9/2022 11:30:00 AM 10.27 50.486 0.203 7.29 0.74 11.14
11/9/2022 11:45:00 AM 10.46 50.828 0.203 7.24 0.79 11.14
11/9/2022 12:00:00 PM 10.61 51.098 0.203 7.3 0.73 11.11
11/9/2022 12:15:00 PM 10.79 51.422 0.203 7.3 0.74 11.11
11/9/2022 12:30:00 PM 10.97 51.746 0.203 7.31 0.74 11.08
11/9/2022 12:45:00 PM 11.13 52.034 0.203 7.32 0.71 11.08
11/9/2022 1:00:00 PM 11.27 52.286 0.203 7.31 0.97 11.08
11/9/2022 1:15:00 PM 11.36 52.448 0.203 7.32 0.81 11.02
11/9/2022 1:30:00 PM 11.38 52.484 0.203 7.32 0.76 10.96
11/9/2022 1:45:00 PM 11.43 52.574 0.203 7.32 0.85 10.92
11/9/2022 2:00:00 PM 11.49 52.682 0.204 7.32 0.87 10.92
11/9/2022 2:15:00 PM 11.48 52.664 0.204 7.32 0.85 10.87
11/9/2022 2:30:00 PM 11.48 52.664 0.204 7.32 0.98 10.87
11/9/2022 2:45:00 PM 11.44 52.592 0.204 7.32 0.71 10.86
11/9/2022 3:00:00 PM 11.42 52.556 0.203 7.32 0.72 10.84
11/9/2022 3:15:00 PM 11.38 52.484 0.203 7.31 0.71 10.81
11/9/2022 3:30:00 PM 11.31 52.358 0.203 7.31 0.71 10.75
11/9/2022 3:45:00 PM 11.25 52.25 0.203 7.3 0.73 10.71
11/9/2022 4:00:00 PM 11.17 52.106 0.203 7.29 0.84 10.62
11/9/2022 4:15:00 PM 11.11 51.998 0.204 7.27 1.91 10.53
11/9/2022 4:30:00 PM 11.05 51.89 0.204 7.27 0.99 10.49
11/9/2022 4:45:00 PM 10.97 51.746 0.204 7.26 1.77 10.4
11/9/2022 5:00:00 PM 10.88 51.584 0.204 7.25 0.76 10.36
11/9/2022 5:15:00 PM 10.8 51.44 0.204 7.24 0.78 10.29
11/9/2022 5:30:00 PM 10.71 51.278 0.204 7.23 0.76 10.21
11/9/2022 5:45:00 PM 10.61 51.098 0.204 7.22 0.71 10.15
11/9/2022 6:00:00 PM 10.54 50.972 0.204 7.22 0.74 10.1
11/9/2022 6:15:00 PM 10.45 50.81 0.204 7.21 0.77 10.08
11/9/2022 6:30:00 PM 10.38 50.684 0.205 7.2 0.89 10.06
11/9/2022 6:45:00 PM 10.3 50.54 0.205 7.2 0.77 10.04
11/9/2022 7:00:00 PM 10.23 50.414 0.205 7.19 0.7 10.03
11/9/2022 7:15:00 PM 10.17 50.306 0.205 7.19 0.79 10.02
11/9/2022 7:30:00 PM 10.09 50.162 0.205 7.18 1.25 10.02
11/9/2022 7:45:00 PM 10.04 50.072 0.205 7.18 0.82 10
11/9/2022 8:00:00 PM 9.97 49.946 0.205 7.18 0.79 10.01
11/9/2022 8:15:00 PM 9.92 49.856 0.205 7.18 0.9 10.02
11/9/2022 8:30:00 PM 9.87 49.766 0.205 7.17 0.79 10.02
11/9/2022 8:45:00 PM 9.81 49.658 0.205 7.17 0.85 10.03
11/9/2022 9:00:00 PM 9.76 49.568 0.205 7.17 0.8 10.03
11/9/2022 9:15:00 PM 9.71 49.478 0.205 7.17 0.93 10.04
11/9/2022 9:30:00 PM 9.67 49.406 0.205 7.17 0.73 10.05
11/9/2022 9:45:00 PM 9.63 49.334 0.205 7.17 0.84 10.06
11/9/2022 10:00:00 PM 9.6 49.28 0.205 7.17 0.89 10.09
11/9/2022 10:15:00 PM 9.55 49.19 0.205 7.16 0.85 10.06
11/9/2022 10:30:00 PM 9.51 49.118 0.205 7.16 0.9 10.09
11/9/2022 10:45:00 PM 9.48 49.064 0.205 7.16 0.89 10.1
11/9/2022 11:00:00 PM 9.44 48.992 0.205 7.16 0.89 10.1
11/9/2022 11:15:00 PM 9.41 48.938 0.205 7.16 0.95 10.11
11/9/2022 11:30:00 PM 9.37 48.866 0.206 7.16 0.81 10.1
11/9/2022 11:45:00 PM 9.34 48.812 0.205 7.16 0.77 10.12
11/10/2022 12:00:00 AM 9.31 48.758 0.205 7.15 0.82 10.08
11/10/2022 12:15:00 AM 9.28 48.704 0.206 7.16 0.88 10.12
11/10/2022 12:30:00 AM 9.25 48.65 0.206 7.15 0.83 10.12
11/10/2022 12:45:00 AM 9.22 48.596 0.206 7.15 0.75 10.13
11/10/2022 1:00:00 AM 9.19 48.542 0.206 7.15 0.76 10.14
11/10/2022 1:15:00 AM 9.15 48.47 0.206 7.15 0.85 10.15
11/10/2022 1:30:00 AM 9.14 48.452 0.206 7.15 0.85 10.13
11/10/2022 1:45:00 AM 9.11 48.398 0.206 7.15 0.84 10.16
11/10/2022 2:00:00 AM 9.08 48.344 0.206 7.15 0.75 10.14
11/10/2022 2:15:00 AM 9.05 48.29 0.206 7.15 0.71 10.18
11/10/2022 2:30:00 AM 9.03 48.254 0.206 7.15 0.83 10.17
11/10/2022 2:45:00 AM 9 48.2 0.206 7.15 0.77 10.16
11/10/2022 3:00:00 AM 8.97 48.146 0.206 7.15 0.79 10.17
11/10/2022 3:15:00 AM 8.95 48.11 0.206 7.15 0.83 10.17
11/10/2022 3:30:00 AM 8.93 48.074 0.206 7.15 0.8 10.19
11/10/2022 3:45:00 AM 8.9 48.02 0.206 7.15 0.83 10.19
11/10/2022 4:00:00 AM 8.88 47.984 0.206 7.15 0.77 10.19
11/10/2022 4:15:00 AM 8.86 47.948 0.206 7.15 0.72 10.17
11/10/2022 4:30:00 AM 8.84 47.912 0.206 7.15 0.83 10.21
11/10/2022 4:45:00 AM 8.82 47.876 0.206 7.15 0.76 10.2
11/10/2022 5:00:00 AM 8.81 47.858 0.206 7.15 0.74 10.22
11/10/2022 5:15:00 AM 8.79 47.822 0.206 7.15 0.74 10.21
11/10/2022 5:30:00 AM 8.76 47.768 0.206 7.15 0.73 10.19
11/10/2022 5:45:00 AM 8.75 47.75 0.206 7.15 0.78 10.21
11/10/2022 6:00:00 AM 8.72 47.696 0.206 7.15 0.82 10.23
11/10/2022 6:15:00 AM 8.72 47.696 0.206 7.15 0.72 10.23
11/10/2022 6:30:00 AM 8.71 47.678 0.206 7.15 0.83 10.23
11/10/2022 6:45:00 AM 8.68 47.624 0.206 7.15 0.79 10.25
11/10/2022 7:00:00 AM 8.67 47.606 0.206 7.15 0.91 10.27
11/10/2022 7:15:00 AM 8.66 47.588 0.206 7.15 1.52 10.25
11/10/2022 7:30:00 AM 8.65 47.57 0.206 7.15 0.73 10.28
11/10/2022 7:45:00 AM 8.67 47.606 0.206 7.16 0.8 10.33
11/10/2022 8:00:00 AM 8.66 47.588 0.206 7.16 0.77 10.43
11/10/2022 8:15:00 AM 8.7 47.66 0.206 7.17 0.75 10.5
11/10/2022 8:30:00 AM 8.75 47.75 0.206 7.18 0.74 10.56
11/10/2022 8:45:00 AM 8.81 47.858 0.206 7.18 0.75 10.63
11/10/2022 9:00:00 AM 8.88 47.984 0.206